<?xml version="1.0" encoding="UTF-8" standalone="no" ?>
<gpx xmlns="http://www.topografix.com/GPX/1/1" xmlns:xsi="http://www.w3.org/2001/XMLSchema-instance" xsi:schemaLocation="http://www.topografix.com/GPX/1/1 http://www.topografix.com/GPX/1/1/gpx.xsd" version="1.1" creator="VisuGPX - https://www.visugpx.com">
  <metadata>
    <name>Col du Mollendruz - Mont Tendre</name>
    <desc><![CDATA[Randonnée pédestre effectuée le 22 mai 2019]]></desc>
  </metadata>
  <trk>
    <name><![CDATA[22 mai 2019 à 09:37:18]]></name>
    <trkseg>
      <trkpt lat="46.64969" lon="6.35832">
        <ele>1176</ele>
        <time>2019-05-22T07:37:19Z</time>
      </trkpt>
      <trkpt lat="46.64969" lon="6.35832">
        <ele>1175</ele>
        <time>2019-05-22T07:37:20Z</time>
      </trkpt>
      <trkpt lat="46.64976" lon="6.35837">
        <ele>1171</ele>
        <time>2019-05-22T07:37:32Z</time>
      </trkpt>
      <trkpt lat="46.64978" lon="6.35844">
        <ele>1171</ele>
        <time>2019-05-22T07:37:37Z</time>
      </trkpt>
      <trkpt lat="46.64981" lon="6.3585">
        <ele>1171</ele>
        <time>2019-05-22T07:37:41Z</time>
      </trkpt>
      <trkpt lat="46.64986" lon="6.35854">
        <ele>1172</ele>
        <time>2019-05-22T07:37:51Z</time>
      </trkpt>
      <trkpt lat="46.64985" lon="6.35843">
        <ele>1167</ele>
        <time>2019-05-22T07:38:18Z</time>
      </trkpt>
      <trkpt lat="46.6498" lon="6.35832">
        <ele>1169</ele>
        <time>2019-05-22T07:38:27Z</time>
      </trkpt>
      <trkpt lat="46.64981" lon="6.35829">
        <ele>1167</ele>
        <time>2019-05-22T07:44:22Z</time>
      </trkpt>
      <trkpt lat="46.64979" lon="6.35811">
        <ele>1172</ele>
        <time>2019-05-22T07:45:22Z</time>
      </trkpt>
      <trkpt lat="46.64978" lon="6.35799">
        <ele>1172</ele>
        <time>2019-05-22T07:45:34Z</time>
      </trkpt>
      <trkpt lat="46.64971" lon="6.35794">
        <ele>1171</ele>
        <time>2019-05-22T07:45:46Z</time>
      </trkpt>
      <trkpt lat="46.64963" lon="6.35789">
        <ele>1174</ele>
        <time>2019-05-22T07:46:10Z</time>
      </trkpt>
      <trkpt lat="46.64958" lon="6.3579">
        <ele>1173</ele>
        <time>2019-05-22T07:46:14Z</time>
      </trkpt>
      <trkpt lat="46.64954" lon="6.35794">
        <ele>1172</ele>
        <time>2019-05-22T07:46:19Z</time>
      </trkpt>
      <trkpt lat="46.64942" lon="6.35798">
        <ele>1171</ele>
        <time>2019-05-22T07:46:54Z</time>
      </trkpt>
      <trkpt lat="46.64937" lon="6.358">
        <ele>1170</ele>
        <time>2019-05-22T07:46:59Z</time>
      </trkpt>
      <trkpt lat="46.64929" lon="6.35805">
        <ele>1170</ele>
        <time>2019-05-22T07:47:10Z</time>
      </trkpt>
      <trkpt lat="46.64914" lon="6.3581">
        <ele>1172</ele>
        <time>2019-05-22T07:47:28Z</time>
      </trkpt>
      <trkpt lat="46.64904" lon="6.35812">
        <ele>1175</ele>
        <time>2019-05-22T07:47:38Z</time>
      </trkpt>
      <trkpt lat="46.64895" lon="6.35812">
        <ele>1172</ele>
        <time>2019-05-22T07:47:52Z</time>
      </trkpt>
      <trkpt lat="46.64885" lon="6.35809">
        <ele>1174</ele>
        <time>2019-05-22T07:48:02Z</time>
      </trkpt>
      <trkpt lat="46.64877" lon="6.35804">
        <ele>1174</ele>
        <time>2019-05-22T07:48:10Z</time>
      </trkpt>
      <trkpt lat="46.64863" lon="6.35795">
        <ele>1174</ele>
        <time>2019-05-22T07:48:27Z</time>
      </trkpt>
      <trkpt lat="46.64847" lon="6.3579">
        <ele>1178</ele>
        <time>2019-05-22T07:48:45Z</time>
      </trkpt>
      <trkpt lat="46.64831" lon="6.3578">
        <ele>1180</ele>
        <time>2019-05-22T07:49:04Z</time>
      </trkpt>
      <trkpt lat="46.64821" lon="6.35775">
        <ele>1180</ele>
        <time>2019-05-22T07:49:14Z</time>
      </trkpt>
      <trkpt lat="46.64811" lon="6.35773">
        <ele>1181</ele>
        <time>2019-05-22T07:49:23Z</time>
      </trkpt>
      <trkpt lat="46.64792" lon="6.35774">
        <ele>1181</ele>
        <time>2019-05-22T07:49:40Z</time>
      </trkpt>
      <trkpt lat="46.64777" lon="6.35778">
        <ele>1185</ele>
        <time>2019-05-22T07:49:55Z</time>
      </trkpt>
      <trkpt lat="46.64769" lon="6.35785">
        <ele>1188</ele>
        <time>2019-05-22T07:50:03Z</time>
      </trkpt>
      <trkpt lat="46.6475" lon="6.35809">
        <ele>1188</ele>
        <time>2019-05-22T07:50:30Z</time>
      </trkpt>
      <trkpt lat="46.64741" lon="6.35811">
        <ele>1188</ele>
        <time>2019-05-22T07:50:40Z</time>
      </trkpt>
      <trkpt lat="46.64732" lon="6.35806">
        <ele>1188</ele>
        <time>2019-05-22T07:50:50Z</time>
      </trkpt>
      <trkpt lat="46.64717" lon="6.35794">
        <ele>1190</ele>
        <time>2019-05-22T07:51:10Z</time>
      </trkpt>
      <trkpt lat="46.64705" lon="6.35778">
        <ele>1192</ele>
        <time>2019-05-22T07:51:39Z</time>
      </trkpt>
      <trkpt lat="46.64701" lon="6.35772">
        <ele>1192</ele>
        <time>2019-05-22T07:51:47Z</time>
      </trkpt>
      <trkpt lat="46.64698" lon="6.35766">
        <ele>1193</ele>
        <time>2019-05-22T07:51:53Z</time>
      </trkpt>
      <trkpt lat="46.64695" lon="6.35761">
        <ele>1194</ele>
        <time>2019-05-22T07:51:57Z</time>
      </trkpt>
      <trkpt lat="46.64686" lon="6.35756">
        <ele>1195</ele>
        <time>2019-05-22T07:52:05Z</time>
      </trkpt>
      <trkpt lat="46.64681" lon="6.35756">
        <ele>1196</ele>
        <time>2019-05-22T07:52:10Z</time>
      </trkpt>
      <trkpt lat="46.64662" lon="6.35764">
        <ele>1200</ele>
        <time>2019-05-22T07:52:31Z</time>
      </trkpt>
      <trkpt lat="46.64658" lon="6.35767">
        <ele>1200</ele>
        <time>2019-05-22T07:52:36Z</time>
      </trkpt>
      <trkpt lat="46.64653" lon="6.3577">
        <ele>1200</ele>
        <time>2019-05-22T07:52:41Z</time>
      </trkpt>
      <trkpt lat="46.64646" lon="6.35773">
        <ele>1200</ele>
        <time>2019-05-22T07:52:50Z</time>
      </trkpt>
      <trkpt lat="46.64637" lon="6.35782">
        <ele>1199</ele>
        <time>2019-05-22T07:52:58Z</time>
      </trkpt>
      <trkpt lat="46.64618" lon="6.35804">
        <ele>1201</ele>
        <time>2019-05-22T07:53:17Z</time>
      </trkpt>
      <trkpt lat="46.64613" lon="6.35806">
        <ele>1201</ele>
        <time>2019-05-22T07:53:21Z</time>
      </trkpt>
      <trkpt lat="46.646" lon="6.35817">
        <ele>1200</ele>
        <time>2019-05-22T07:53:35Z</time>
      </trkpt>
      <trkpt lat="46.64594" lon="6.35819">
        <ele>1200</ele>
        <time>2019-05-22T07:53:40Z</time>
      </trkpt>
      <trkpt lat="46.6459" lon="6.35822">
        <ele>1200</ele>
        <time>2019-05-22T07:53:44Z</time>
      </trkpt>
      <trkpt lat="46.64548" lon="6.35832">
        <ele>1202</ele>
        <time>2019-05-22T07:54:17Z</time>
      </trkpt>
      <trkpt lat="46.64538" lon="6.35832">
        <ele>1203</ele>
        <time>2019-05-22T07:54:25Z</time>
      </trkpt>
      <trkpt lat="46.64531" lon="6.35835">
        <ele>1204</ele>
        <time>2019-05-22T07:54:32Z</time>
      </trkpt>
      <trkpt lat="46.64526" lon="6.35836">
        <ele>1204</ele>
        <time>2019-05-22T07:54:37Z</time>
      </trkpt>
      <trkpt lat="46.64521" lon="6.35839">
        <ele>1204</ele>
        <time>2019-05-22T07:54:42Z</time>
      </trkpt>
      <trkpt lat="46.64512" lon="6.3584">
        <ele>1204</ele>
        <time>2019-05-22T07:54:50Z</time>
      </trkpt>
      <trkpt lat="46.64507" lon="6.35843">
        <ele>1203</ele>
        <time>2019-05-22T07:54:55Z</time>
      </trkpt>
      <trkpt lat="46.64494" lon="6.35854">
        <ele>1204</ele>
        <time>2019-05-22T07:55:10Z</time>
      </trkpt>
      <trkpt lat="46.64489" lon="6.35855">
        <ele>1204</ele>
        <time>2019-05-22T07:55:14Z</time>
      </trkpt>
      <trkpt lat="46.64484" lon="6.35856">
        <ele>1204</ele>
        <time>2019-05-22T07:55:19Z</time>
      </trkpt>
      <trkpt lat="46.64474" lon="6.35858">
        <ele>1204</ele>
        <time>2019-05-22T07:55:28Z</time>
      </trkpt>
      <trkpt lat="46.64469" lon="6.3586">
        <ele>1204</ele>
        <time>2019-05-22T07:55:32Z</time>
      </trkpt>
      <trkpt lat="46.64464" lon="6.35862">
        <ele>1204</ele>
        <time>2019-05-22T07:55:37Z</time>
      </trkpt>
      <trkpt lat="46.64444" lon="6.35871">
        <ele>1205</ele>
        <time>2019-05-22T07:55:56Z</time>
      </trkpt>
      <trkpt lat="46.64429" lon="6.35879">
        <ele>1205</ele>
        <time>2019-05-22T07:56:10Z</time>
      </trkpt>
      <trkpt lat="46.64411" lon="6.35886">
        <ele>1205</ele>
        <time>2019-05-22T07:56:26Z</time>
      </trkpt>
      <trkpt lat="46.64396" lon="6.35889">
        <ele>1205</ele>
        <time>2019-05-22T07:56:39Z</time>
      </trkpt>
      <trkpt lat="46.6438" lon="6.35891">
        <ele>1205</ele>
        <time>2019-05-22T07:56:53Z</time>
      </trkpt>
      <trkpt lat="46.64376" lon="6.3589">
        <ele>1204</ele>
        <time>2019-05-22T07:56:58Z</time>
      </trkpt>
      <trkpt lat="46.64369" lon="6.35891">
        <ele>1204</ele>
        <time>2019-05-22T07:57:05Z</time>
      </trkpt>
      <trkpt lat="46.64363" lon="6.35892">
        <ele>1203</ele>
        <time>2019-05-22T07:57:12Z</time>
      </trkpt>
      <trkpt lat="46.64357" lon="6.35891">
        <ele>1203</ele>
        <time>2019-05-22T07:57:17Z</time>
      </trkpt>
      <trkpt lat="46.6435" lon="6.35893">
        <ele>1202</ele>
        <time>2019-05-22T07:57:25Z</time>
      </trkpt>
      <trkpt lat="46.64342" lon="6.35894">
        <ele>1202</ele>
        <time>2019-05-22T07:57:34Z</time>
      </trkpt>
      <trkpt lat="46.64331" lon="6.35893">
        <ele>1202</ele>
        <time>2019-05-22T07:57:44Z</time>
      </trkpt>
      <trkpt lat="46.64324" lon="6.35895">
        <ele>1201</ele>
        <time>2019-05-22T07:57:52Z</time>
      </trkpt>
      <trkpt lat="46.64319" lon="6.35895">
        <ele>1200</ele>
        <time>2019-05-22T07:57:57Z</time>
      </trkpt>
      <trkpt lat="46.64279" lon="6.35902">
        <ele>1200</ele>
        <time>2019-05-22T07:58:31Z</time>
      </trkpt>
      <trkpt lat="46.64268" lon="6.35905">
        <ele>1199</ele>
        <time>2019-05-22T07:58:44Z</time>
      </trkpt>
      <trkpt lat="46.64244" lon="6.35922">
        <ele>1197</ele>
        <time>2019-05-22T07:59:08Z</time>
      </trkpt>
      <trkpt lat="46.64233" lon="6.35919">
        <ele>1197</ele>
        <time>2019-05-22T07:59:17Z</time>
      </trkpt>
      <trkpt lat="46.64228" lon="6.35916">
        <ele>1197</ele>
        <time>2019-05-22T07:59:21Z</time>
      </trkpt>
      <trkpt lat="46.64216" lon="6.35916">
        <ele>1196</ele>
        <time>2019-05-22T07:59:33Z</time>
      </trkpt>
      <trkpt lat="46.64211" lon="6.35919">
        <ele>1195</ele>
        <time>2019-05-22T07:59:41Z</time>
      </trkpt>
      <trkpt lat="46.64206" lon="6.35919">
        <ele>1195</ele>
        <time>2019-05-22T07:59:46Z</time>
      </trkpt>
      <trkpt lat="46.64179" lon="6.35906">
        <ele>1193</ele>
        <time>2019-05-22T08:00:11Z</time>
      </trkpt>
      <trkpt lat="46.64167" lon="6.35907">
        <ele>1191</ele>
        <time>2019-05-22T08:00:22Z</time>
      </trkpt>
      <trkpt lat="46.64154" lon="6.35898">
        <ele>1191</ele>
        <time>2019-05-22T08:00:36Z</time>
      </trkpt>
      <trkpt lat="46.64146" lon="6.3589">
        <ele>1190</ele>
        <time>2019-05-22T08:00:45Z</time>
      </trkpt>
      <trkpt lat="46.64138" lon="6.35884">
        <ele>1189</ele>
        <time>2019-05-22T08:00:54Z</time>
      </trkpt>
      <trkpt lat="46.64122" lon="6.35866">
        <ele>1188</ele>
        <time>2019-05-22T08:01:11Z</time>
      </trkpt>
      <trkpt lat="46.64117" lon="6.35855">
        <ele>1188</ele>
        <time>2019-05-22T08:01:21Z</time>
      </trkpt>
      <trkpt lat="46.64112" lon="6.35843">
        <ele>1189</ele>
        <time>2019-05-22T08:01:32Z</time>
      </trkpt>
      <trkpt lat="46.64111" lon="6.35828">
        <ele>1188</ele>
        <time>2019-05-22T08:01:49Z</time>
      </trkpt>
      <trkpt lat="46.64109" lon="6.35805">
        <ele>1191</ele>
        <time>2019-05-22T08:02:17Z</time>
      </trkpt>
      <trkpt lat="46.64108" lon="6.35784">
        <ele>1193</ele>
        <time>2019-05-22T08:02:32Z</time>
      </trkpt>
      <trkpt lat="46.6411" lon="6.35769">
        <ele>1192</ele>
        <time>2019-05-22T08:02:44Z</time>
      </trkpt>
      <trkpt lat="46.641" lon="6.35734">
        <ele>1195</ele>
        <time>2019-05-22T08:03:19Z</time>
      </trkpt>
      <trkpt lat="46.64096" lon="6.35717">
        <ele>1197</ele>
        <time>2019-05-22T08:03:35Z</time>
      </trkpt>
      <trkpt lat="46.64088" lon="6.35709">
        <ele>1197</ele>
        <time>2019-05-22T08:03:47Z</time>
      </trkpt>
      <trkpt lat="46.64086" lon="6.35694">
        <ele>1197</ele>
        <time>2019-05-22T08:04:00Z</time>
      </trkpt>
      <trkpt lat="46.6407" lon="6.35666">
        <ele>1200</ele>
        <time>2019-05-22T08:04:31Z</time>
      </trkpt>
      <trkpt lat="46.6406" lon="6.35654">
        <ele>1203</ele>
        <time>2019-05-22T08:04:49Z</time>
      </trkpt>
      <trkpt lat="46.64046" lon="6.35652">
        <ele>1206</ele>
        <time>2019-05-22T08:05:06Z</time>
      </trkpt>
      <trkpt lat="46.64033" lon="6.35649">
        <ele>1206</ele>
        <time>2019-05-22T08:05:23Z</time>
      </trkpt>
      <trkpt lat="46.63997" lon="6.35649">
        <ele>1210</ele>
        <time>2019-05-22T08:06:07Z</time>
      </trkpt>
      <trkpt lat="46.63988" lon="6.35645">
        <ele>1211</ele>
        <time>2019-05-22T08:06:16Z</time>
      </trkpt>
      <trkpt lat="46.63978" lon="6.35637">
        <ele>1213</ele>
        <time>2019-05-22T08:06:32Z</time>
      </trkpt>
      <trkpt lat="46.63969" lon="6.35622">
        <ele>1214</ele>
        <time>2019-05-22T08:06:48Z</time>
      </trkpt>
      <trkpt lat="46.63956" lon="6.35615">
        <ele>1215</ele>
        <time>2019-05-22T08:07:02Z</time>
      </trkpt>
      <trkpt lat="46.63947" lon="6.35614">
        <ele>1215</ele>
        <time>2019-05-22T08:07:08Z</time>
      </trkpt>
      <trkpt lat="46.63934" lon="6.35604">
        <ele>1217</ele>
        <time>2019-05-22T08:07:24Z</time>
      </trkpt>
      <trkpt lat="46.63925" lon="6.35605">
        <ele>1216</ele>
        <time>2019-05-22T08:07:32Z</time>
      </trkpt>
      <trkpt lat="46.63913" lon="6.35608">
        <ele>1217</ele>
        <time>2019-05-22T08:07:42Z</time>
      </trkpt>
      <trkpt lat="46.63896" lon="6.35603">
        <ele>1218</ele>
        <time>2019-05-22T08:07:59Z</time>
      </trkpt>
      <trkpt lat="46.63887" lon="6.35603">
        <ele>1218</ele>
        <time>2019-05-22T08:08:09Z</time>
      </trkpt>
      <trkpt lat="46.63875" lon="6.35595">
        <ele>1220</ele>
        <time>2019-05-22T08:08:19Z</time>
      </trkpt>
      <trkpt lat="46.63851" lon="6.35571">
        <ele>1221</ele>
        <time>2019-05-22T08:08:58Z</time>
      </trkpt>
      <trkpt lat="46.63841" lon="6.35566">
        <ele>1224</ele>
        <time>2019-05-22T08:09:12Z</time>
      </trkpt>
      <trkpt lat="46.63831" lon="6.35564">
        <ele>1224</ele>
        <time>2019-05-22T08:09:25Z</time>
      </trkpt>
      <trkpt lat="46.63821" lon="6.35561">
        <ele>1226</ele>
        <time>2019-05-22T08:09:38Z</time>
      </trkpt>
      <trkpt lat="46.6381" lon="6.3556">
        <ele>1228</ele>
        <time>2019-05-22T08:10:01Z</time>
      </trkpt>
      <trkpt lat="46.63803" lon="6.35553">
        <ele>1228</ele>
        <time>2019-05-22T08:10:11Z</time>
      </trkpt>
      <trkpt lat="46.63803" lon="6.3554">
        <ele>1229</ele>
        <time>2019-05-22T08:10:19Z</time>
      </trkpt>
      <trkpt lat="46.63795" lon="6.35531">
        <ele>1232</ele>
        <time>2019-05-22T08:10:40Z</time>
      </trkpt>
      <trkpt lat="46.63785" lon="6.35536">
        <ele>1234</ele>
        <time>2019-05-22T08:11:05Z</time>
      </trkpt>
      <trkpt lat="46.63788" lon="6.35522">
        <ele>1239</ele>
        <time>2019-05-22T08:13:13Z</time>
      </trkpt>
      <trkpt lat="46.63785" lon="6.35509">
        <ele>1238</ele>
        <time>2019-05-22T08:13:23Z</time>
      </trkpt>
      <trkpt lat="46.63776" lon="6.35518">
        <ele>1241</ele>
        <time>2019-05-22T08:13:42Z</time>
      </trkpt>
      <trkpt lat="46.6377" lon="6.3553">
        <ele>1242</ele>
        <time>2019-05-22T08:14:08Z</time>
      </trkpt>
      <trkpt lat="46.6378" lon="6.3554">
        <ele>1241</ele>
        <time>2019-05-22T08:15:26Z</time>
      </trkpt>
      <trkpt lat="46.63786" lon="6.35558">
        <ele>1241</ele>
        <time>2019-05-22T08:15:45Z</time>
      </trkpt>
      <trkpt lat="46.63798" lon="6.35565">
        <ele>1242</ele>
        <time>2019-05-22T08:16:03Z</time>
      </trkpt>
      <trkpt lat="46.63806" lon="6.35573">
        <ele>1241</ele>
        <time>2019-05-22T08:16:27Z</time>
      </trkpt>
      <trkpt lat="46.63818" lon="6.35578">
        <ele>1240</ele>
        <time>2019-05-22T08:16:57Z</time>
      </trkpt>
      <trkpt lat="46.63829" lon="6.35579">
        <ele>1240</ele>
        <time>2019-05-22T08:17:15Z</time>
      </trkpt>
      <trkpt lat="46.63839" lon="6.35587">
        <ele>1239</ele>
        <time>2019-05-22T08:17:39Z</time>
      </trkpt>
      <trkpt lat="46.63852" lon="6.35584">
        <ele>1238</ele>
        <time>2019-05-22T08:18:06Z</time>
      </trkpt>
      <trkpt lat="46.63868" lon="6.35596">
        <ele>1237</ele>
        <time>2019-05-22T08:18:27Z</time>
      </trkpt>
      <trkpt lat="46.63876" lon="6.35604">
        <ele>1236</ele>
        <time>2019-05-22T08:18:34Z</time>
      </trkpt>
      <trkpt lat="46.63885" lon="6.35609">
        <ele>1236</ele>
        <time>2019-05-22T08:18:41Z</time>
      </trkpt>
      <trkpt lat="46.63893" lon="6.35608">
        <ele>1235</ele>
        <time>2019-05-22T08:18:50Z</time>
      </trkpt>
      <trkpt lat="46.63899" lon="6.35601">
        <ele>1232</ele>
        <time>2019-05-22T08:19:45Z</time>
      </trkpt>
      <trkpt lat="46.63886" lon="6.35598">
        <ele>1233</ele>
        <time>2019-05-22T08:20:06Z</time>
      </trkpt>
      <trkpt lat="46.63878" lon="6.35592">
        <ele>1232</ele>
        <time>2019-05-22T08:20:14Z</time>
      </trkpt>
      <trkpt lat="46.6387" lon="6.35584">
        <ele>1229</ele>
        <time>2019-05-22T08:20:32Z</time>
      </trkpt>
      <trkpt lat="46.63862" lon="6.35595">
        <ele>1229</ele>
        <time>2019-05-22T08:20:47Z</time>
      </trkpt>
      <trkpt lat="46.63876" lon="6.35604">
        <ele>1231</ele>
        <time>2019-05-22T08:21:04Z</time>
      </trkpt>
      <trkpt lat="46.63884" lon="6.3561">
        <ele>1229</ele>
        <time>2019-05-22T08:21:22Z</time>
      </trkpt>
      <trkpt lat="46.63879" lon="6.35611">
        <ele>1226</ele>
        <time>2019-05-22T08:22:47Z</time>
      </trkpt>
      <trkpt lat="46.63871" lon="6.35623">
        <ele>1229</ele>
        <time>2019-05-22T08:23:11Z</time>
      </trkpt>
      <trkpt lat="46.63859" lon="6.35637">
        <ele>1225</ele>
        <time>2019-05-22T08:23:32Z</time>
      </trkpt>
      <trkpt lat="46.63855" lon="6.35649">
        <ele>1228</ele>
        <time>2019-05-22T08:23:42Z</time>
      </trkpt>
      <trkpt lat="46.63858" lon="6.35662">
        <ele>1228</ele>
        <time>2019-05-22T08:23:57Z</time>
      </trkpt>
      <trkpt lat="46.63845" lon="6.35666">
        <ele>1231</ele>
        <time>2019-05-22T08:24:30Z</time>
      </trkpt>
      <trkpt lat="46.63832" lon="6.35658">
        <ele>1233</ele>
        <time>2019-05-22T08:24:50Z</time>
      </trkpt>
      <trkpt lat="46.63825" lon="6.35648">
        <ele>1235</ele>
        <time>2019-05-22T08:25:08Z</time>
      </trkpt>
      <trkpt lat="46.63817" lon="6.3564">
        <ele>1237</ele>
        <time>2019-05-22T08:25:26Z</time>
      </trkpt>
      <trkpt lat="46.63797" lon="6.35653">
        <ele>1237</ele>
        <time>2019-05-22T08:25:52Z</time>
      </trkpt>
      <trkpt lat="46.63788" lon="6.35657">
        <ele>1236</ele>
        <time>2019-05-22T08:26:01Z</time>
      </trkpt>
      <trkpt lat="46.63777" lon="6.35662">
        <ele>1237</ele>
        <time>2019-05-22T08:26:15Z</time>
      </trkpt>
      <trkpt lat="46.63766" lon="6.35658">
        <ele>1239</ele>
        <time>2019-05-22T08:26:33Z</time>
      </trkpt>
      <trkpt lat="46.63752" lon="6.35648">
        <ele>1238</ele>
        <time>2019-05-22T08:26:52Z</time>
      </trkpt>
      <trkpt lat="46.63739" lon="6.35647">
        <ele>1238</ele>
        <time>2019-05-22T08:27:05Z</time>
      </trkpt>
      <trkpt lat="46.63734" lon="6.35642">
        <ele>1238</ele>
        <time>2019-05-22T08:27:20Z</time>
      </trkpt>
      <trkpt lat="46.63729" lon="6.35639">
        <ele>1240</ele>
        <time>2019-05-22T08:27:32Z</time>
      </trkpt>
      <trkpt lat="46.63726" lon="6.35632">
        <ele>1241</ele>
        <time>2019-05-22T08:27:50Z</time>
      </trkpt>
      <trkpt lat="46.63715" lon="6.35625">
        <ele>1239</ele>
        <time>2019-05-22T08:28:32Z</time>
      </trkpt>
      <trkpt lat="46.63714" lon="6.35605">
        <ele>1242</ele>
        <time>2019-05-22T08:29:13Z</time>
      </trkpt>
      <trkpt lat="46.63702" lon="6.3561">
        <ele>1244</ele>
        <time>2019-05-22T08:29:23Z</time>
      </trkpt>
      <trkpt lat="46.63699" lon="6.35594">
        <ele>1244</ele>
        <time>2019-05-22T08:29:44Z</time>
      </trkpt>
      <trkpt lat="46.63689" lon="6.3559">
        <ele>1245</ele>
        <time>2019-05-22T08:29:52Z</time>
      </trkpt>
      <trkpt lat="46.63652" lon="6.35586">
        <ele>1246</ele>
        <time>2019-05-22T08:30:18Z</time>
      </trkpt>
      <trkpt lat="46.63641" lon="6.35572">
        <ele>1248</ele>
        <time>2019-05-22T08:30:34Z</time>
      </trkpt>
      <trkpt lat="46.63631" lon="6.35563">
        <ele>1250</ele>
        <time>2019-05-22T08:30:47Z</time>
      </trkpt>
      <trkpt lat="46.63619" lon="6.35553">
        <ele>1252</ele>
        <time>2019-05-22T08:31:00Z</time>
      </trkpt>
      <trkpt lat="46.63611" lon="6.35538">
        <ele>1252</ele>
        <time>2019-05-22T08:31:12Z</time>
      </trkpt>
      <trkpt lat="46.63611" lon="6.35524">
        <ele>1254</ele>
        <time>2019-05-22T08:31:18Z</time>
      </trkpt>
      <trkpt lat="46.63593" lon="6.35522">
        <ele>1256</ele>
        <time>2019-05-22T08:31:36Z</time>
      </trkpt>
      <trkpt lat="46.63574" lon="6.35513">
        <ele>1256</ele>
        <time>2019-05-22T08:31:58Z</time>
      </trkpt>
      <trkpt lat="46.6356" lon="6.35511">
        <ele>1256</ele>
        <time>2019-05-22T08:32:06Z</time>
      </trkpt>
      <trkpt lat="46.63551" lon="6.35511">
        <ele>1257</ele>
        <time>2019-05-22T08:32:15Z</time>
      </trkpt>
      <trkpt lat="46.63535" lon="6.35507">
        <ele>1260</ele>
        <time>2019-05-22T08:32:35Z</time>
      </trkpt>
      <trkpt lat="46.63525" lon="6.35493">
        <ele>1263</ele>
        <time>2019-05-22T08:32:53Z</time>
      </trkpt>
      <trkpt lat="46.63513" lon="6.35475">
        <ele>1269</ele>
        <time>2019-05-22T08:33:16Z</time>
      </trkpt>
      <trkpt lat="46.63502" lon="6.35474">
        <ele>1270</ele>
        <time>2019-05-22T08:33:23Z</time>
      </trkpt>
      <trkpt lat="46.63491" lon="6.35473">
        <ele>1270</ele>
        <time>2019-05-22T08:33:29Z</time>
      </trkpt>
      <trkpt lat="46.63482" lon="6.35466">
        <ele>1269</ele>
        <time>2019-05-22T08:33:43Z</time>
      </trkpt>
      <trkpt lat="46.6346" lon="6.35467">
        <ele>1270</ele>
        <time>2019-05-22T08:33:58Z</time>
      </trkpt>
      <trkpt lat="46.63447" lon="6.35462">
        <ele>1270</ele>
        <time>2019-05-22T08:34:04Z</time>
      </trkpt>
      <trkpt lat="46.63439" lon="6.35455">
        <ele>1272</ele>
        <time>2019-05-22T08:34:25Z</time>
      </trkpt>
      <trkpt lat="46.63431" lon="6.35447">
        <ele>1273</ele>
        <time>2019-05-22T08:34:35Z</time>
      </trkpt>
      <trkpt lat="46.63397" lon="6.3542">
        <ele>1275</ele>
        <time>2019-05-22T08:35:07Z</time>
      </trkpt>
      <trkpt lat="46.63389" lon="6.35413">
        <ele>1277</ele>
        <time>2019-05-22T08:35:14Z</time>
      </trkpt>
      <trkpt lat="46.63383" lon="6.35403">
        <ele>1278</ele>
        <time>2019-05-22T08:35:23Z</time>
      </trkpt>
      <trkpt lat="46.63379" lon="6.35386">
        <ele>1279</ele>
        <time>2019-05-22T08:35:37Z</time>
      </trkpt>
      <trkpt lat="46.63359" lon="6.35358">
        <ele>1278</ele>
        <time>2019-05-22T08:36:03Z</time>
      </trkpt>
      <trkpt lat="46.6335" lon="6.35348">
        <ele>1278</ele>
        <time>2019-05-22T08:36:14Z</time>
      </trkpt>
      <trkpt lat="46.63343" lon="6.35338">
        <ele>1279</ele>
        <time>2019-05-22T08:36:21Z</time>
      </trkpt>
      <trkpt lat="46.63328" lon="6.35321">
        <ele>1278</ele>
        <time>2019-05-22T08:36:36Z</time>
      </trkpt>
      <trkpt lat="46.63291" lon="6.35274">
        <ele>1282</ele>
        <time>2019-05-22T08:37:14Z</time>
      </trkpt>
      <trkpt lat="46.63279" lon="6.35252">
        <ele>1285</ele>
        <time>2019-05-22T08:37:29Z</time>
      </trkpt>
      <trkpt lat="46.63264" lon="6.35236">
        <ele>1285</ele>
        <time>2019-05-22T08:37:43Z</time>
      </trkpt>
      <trkpt lat="46.63256" lon="6.35229">
        <ele>1285</ele>
        <time>2019-05-22T08:37:51Z</time>
      </trkpt>
      <trkpt lat="46.63248" lon="6.3522">
        <ele>1285</ele>
        <time>2019-05-22T08:37:59Z</time>
      </trkpt>
      <trkpt lat="46.63242" lon="6.3521">
        <ele>1285</ele>
        <time>2019-05-22T08:38:07Z</time>
      </trkpt>
      <trkpt lat="46.63209" lon="6.35159">
        <ele>1289</ele>
        <time>2019-05-22T08:38:44Z</time>
      </trkpt>
      <trkpt lat="46.63203" lon="6.35147">
        <ele>1289</ele>
        <time>2019-05-22T08:38:52Z</time>
      </trkpt>
      <trkpt lat="46.63178" lon="6.35104">
        <ele>1291</ele>
        <time>2019-05-22T08:39:21Z</time>
      </trkpt>
      <trkpt lat="46.63175" lon="6.35091">
        <ele>1291</ele>
        <time>2019-05-22T08:39:29Z</time>
      </trkpt>
      <trkpt lat="46.63174" lon="6.35077">
        <ele>1293</ele>
        <time>2019-05-22T08:39:36Z</time>
      </trkpt>
      <trkpt lat="46.6317" lon="6.35064">
        <ele>1293</ele>
        <time>2019-05-22T08:39:43Z</time>
      </trkpt>
      <trkpt lat="46.63167" lon="6.35058">
        <ele>1293</ele>
        <time>2019-05-22T08:39:48Z</time>
      </trkpt>
      <trkpt lat="46.63154" lon="6.35034">
        <ele>1293</ele>
        <time>2019-05-22T08:40:05Z</time>
      </trkpt>
      <trkpt lat="46.63152" lon="6.35026">
        <ele>1292</ele>
        <time>2019-05-22T08:40:09Z</time>
      </trkpt>
      <trkpt lat="46.63149" lon="6.3502">
        <ele>1291</ele>
        <time>2019-05-22T08:40:13Z</time>
      </trkpt>
      <trkpt lat="46.63142" lon="6.3501">
        <ele>1292</ele>
        <time>2019-05-22T08:40:22Z</time>
      </trkpt>
      <trkpt lat="46.63137" lon="6.35005">
        <ele>1294</ele>
        <time>2019-05-22T08:40:32Z</time>
      </trkpt>
      <trkpt lat="46.63133" lon="6.35003">
        <ele>1295</ele>
        <time>2019-05-22T08:40:36Z</time>
      </trkpt>
      <trkpt lat="46.63128" lon="6.35">
        <ele>1295</ele>
        <time>2019-05-22T08:40:40Z</time>
      </trkpt>
      <trkpt lat="46.63114" lon="6.34991">
        <ele>1298</ele>
        <time>2019-05-22T08:40:54Z</time>
      </trkpt>
      <trkpt lat="46.63099" lon="6.34986">
        <ele>1298</ele>
        <time>2019-05-22T08:41:08Z</time>
      </trkpt>
      <trkpt lat="46.63094" lon="6.34985">
        <ele>1298</ele>
        <time>2019-05-22T08:41:13Z</time>
      </trkpt>
      <trkpt lat="46.63089" lon="6.34986">
        <ele>1299</ele>
        <time>2019-05-22T08:41:18Z</time>
      </trkpt>
      <trkpt lat="46.63071" lon="6.34993">
        <ele>1303</ele>
        <time>2019-05-22T08:41:56Z</time>
      </trkpt>
      <trkpt lat="46.63065" lon="6.34998">
        <ele>1301</ele>
        <time>2019-05-22T08:42:20Z</time>
      </trkpt>
      <trkpt lat="46.63055" lon="6.35001">
        <ele>1304</ele>
        <time>2019-05-22T08:42:30Z</time>
      </trkpt>
      <trkpt lat="46.63041" lon="6.35003">
        <ele>1308</ele>
        <time>2019-05-22T08:42:43Z</time>
      </trkpt>
      <trkpt lat="46.63035" lon="6.35006">
        <ele>1309</ele>
        <time>2019-05-22T08:42:51Z</time>
      </trkpt>
      <trkpt lat="46.63026" lon="6.35009">
        <ele>1309</ele>
        <time>2019-05-22T08:43:02Z</time>
      </trkpt>
      <trkpt lat="46.63021" lon="6.3501">
        <ele>1310</ele>
        <time>2019-05-22T08:43:07Z</time>
      </trkpt>
      <trkpt lat="46.63008" lon="6.35014">
        <ele>1311</ele>
        <time>2019-05-22T08:43:22Z</time>
      </trkpt>
      <trkpt lat="46.62988" lon="6.35024">
        <ele>1313</ele>
        <time>2019-05-22T08:43:47Z</time>
      </trkpt>
      <trkpt lat="46.62983" lon="6.35026">
        <ele>1313</ele>
        <time>2019-05-22T08:44:07Z</time>
      </trkpt>
      <trkpt lat="46.62979" lon="6.35028">
        <ele>1313</ele>
        <time>2019-05-22T08:44:12Z</time>
      </trkpt>
      <trkpt lat="46.62969" lon="6.35038">
        <ele>1313</ele>
        <time>2019-05-22T08:44:24Z</time>
      </trkpt>
      <trkpt lat="46.62959" lon="6.35044">
        <ele>1313</ele>
        <time>2019-05-22T08:44:36Z</time>
      </trkpt>
      <trkpt lat="46.62954" lon="6.35046">
        <ele>1316</ele>
        <time>2019-05-22T08:44:56Z</time>
      </trkpt>
      <trkpt lat="46.62949" lon="6.35051">
        <ele>1317</ele>
        <time>2019-05-22T08:45:01Z</time>
      </trkpt>
      <trkpt lat="46.62946" lon="6.35055">
        <ele>1317</ele>
        <time>2019-05-22T08:45:05Z</time>
      </trkpt>
      <trkpt lat="46.62941" lon="6.35058">
        <ele>1317</ele>
        <time>2019-05-22T08:45:10Z</time>
      </trkpt>
      <trkpt lat="46.62935" lon="6.35059">
        <ele>1317</ele>
        <time>2019-05-22T08:45:17Z</time>
      </trkpt>
      <trkpt lat="46.62929" lon="6.35063">
        <ele>1317</ele>
        <time>2019-05-22T08:45:24Z</time>
      </trkpt>
      <trkpt lat="46.62923" lon="6.35064">
        <ele>1317</ele>
        <time>2019-05-22T08:45:32Z</time>
      </trkpt>
      <trkpt lat="46.62918" lon="6.35064">
        <ele>1317</ele>
        <time>2019-05-22T08:45:37Z</time>
      </trkpt>
      <trkpt lat="46.62914" lon="6.35062">
        <ele>1317</ele>
        <time>2019-05-22T08:45:42Z</time>
      </trkpt>
      <trkpt lat="46.62907" lon="6.35061">
        <ele>1317</ele>
        <time>2019-05-22T08:45:50Z</time>
      </trkpt>
      <trkpt lat="46.62888" lon="6.35055">
        <ele>1319</ele>
        <time>2019-05-22T08:46:13Z</time>
      </trkpt>
      <trkpt lat="46.62861" lon="6.35053">
        <ele>1324</ele>
        <time>2019-05-22T08:46:46Z</time>
      </trkpt>
      <trkpt lat="46.62856" lon="6.35054">
        <ele>1324</ele>
        <time>2019-05-22T08:46:51Z</time>
      </trkpt>
      <trkpt lat="46.62849" lon="6.35055">
        <ele>1325</ele>
        <time>2019-05-22T08:46:59Z</time>
      </trkpt>
      <trkpt lat="46.62845" lon="6.35055">
        <ele>1325</ele>
        <time>2019-05-22T08:47:04Z</time>
      </trkpt>
      <trkpt lat="46.62831" lon="6.35058">
        <ele>1328</ele>
        <time>2019-05-22T08:47:19Z</time>
      </trkpt>
      <trkpt lat="46.62826" lon="6.35058">
        <ele>1328</ele>
        <time>2019-05-22T08:47:24Z</time>
      </trkpt>
      <trkpt lat="46.62804" lon="6.35065">
        <ele>1331</ele>
        <time>2019-05-22T08:47:57Z</time>
      </trkpt>
      <trkpt lat="46.6278" lon="6.35076">
        <ele>1335</ele>
        <time>2019-05-22T08:48:27Z</time>
      </trkpt>
      <trkpt lat="46.62772" lon="6.35077">
        <ele>1336</ele>
        <time>2019-05-22T08:48:41Z</time>
      </trkpt>
      <trkpt lat="46.6275" lon="6.35089">
        <ele>1339</ele>
        <time>2019-05-22T08:49:11Z</time>
      </trkpt>
      <trkpt lat="46.62749" lon="6.35089">
        <ele>1340</ele>
        <time>2019-05-22T08:50:17Z</time>
      </trkpt>
      <trkpt lat="46.62768" lon="6.35071">
        <ele>1331</ele>
        <time>2019-05-22T08:57:51Z</time>
      </trkpt>
      <trkpt lat="46.62768" lon="6.35071">
        <ele>1331</ele>
        <time>2019-05-22T08:57:51Z</time>
      </trkpt>
      <trkpt lat="46.62774" lon="6.35071">
        <ele>1331</ele>
        <time>2019-05-22T08:57:56Z</time>
      </trkpt>
      <trkpt lat="46.62778" lon="6.35067">
        <ele>1331</ele>
        <time>2019-05-22T08:58:01Z</time>
      </trkpt>
      <trkpt lat="46.62783" lon="6.35063">
        <ele>1332</ele>
        <time>2019-05-22T08:58:15Z</time>
      </trkpt>
      <trkpt lat="46.62804" lon="6.35058">
        <ele>1332</ele>
        <time>2019-05-22T08:58:46Z</time>
      </trkpt>
      <trkpt lat="46.62805" lon="6.35051">
        <ele>1332</ele>
        <time>2019-05-22T08:59:09Z</time>
      </trkpt>
      <trkpt lat="46.62805" lon="6.3504">
        <ele>1329</ele>
        <time>2019-05-22T08:59:22Z</time>
      </trkpt>
      <trkpt lat="46.62806" lon="6.35018">
        <ele>1325</ele>
        <time>2019-05-22T08:59:40Z</time>
      </trkpt>
      <trkpt lat="46.62808" lon="6.35012">
        <ele>1325</ele>
        <time>2019-05-22T08:59:45Z</time>
      </trkpt>
      <trkpt lat="46.62809" lon="6.35">
        <ele>1323</ele>
        <time>2019-05-22T08:59:55Z</time>
      </trkpt>
      <trkpt lat="46.62807" lon="6.34995">
        <ele>1322</ele>
        <time>2019-05-22T09:00:00Z</time>
      </trkpt>
      <trkpt lat="46.62805" lon="6.34987">
        <ele>1320</ele>
        <time>2019-05-22T09:00:08Z</time>
      </trkpt>
      <trkpt lat="46.62806" lon="6.3498">
        <ele>1319</ele>
        <time>2019-05-22T09:00:13Z</time>
      </trkpt>
      <trkpt lat="46.62806" lon="6.3495">
        <ele>1316</ele>
        <time>2019-05-22T09:00:45Z</time>
      </trkpt>
      <trkpt lat="46.62808" lon="6.34942">
        <ele>1314</ele>
        <time>2019-05-22T09:01:03Z</time>
      </trkpt>
      <trkpt lat="46.62806" lon="6.34935">
        <ele>1311</ele>
        <time>2019-05-22T09:01:21Z</time>
      </trkpt>
      <trkpt lat="46.62811" lon="6.34917">
        <ele>1308</ele>
        <time>2019-05-22T09:01:39Z</time>
      </trkpt>
      <trkpt lat="46.62814" lon="6.34906">
        <ele>1307</ele>
        <time>2019-05-22T09:01:51Z</time>
      </trkpt>
      <trkpt lat="46.62814" lon="6.34899">
        <ele>1305</ele>
        <time>2019-05-22T09:01:56Z</time>
      </trkpt>
      <trkpt lat="46.62814" lon="6.34892">
        <ele>1305</ele>
        <time>2019-05-22T09:02:01Z</time>
      </trkpt>
      <trkpt lat="46.62826" lon="6.34848">
        <ele>1300</ele>
        <time>2019-05-22T09:02:35Z</time>
      </trkpt>
      <trkpt lat="46.6283" lon="6.34834">
        <ele>1298</ele>
        <time>2019-05-22T09:02:48Z</time>
      </trkpt>
      <trkpt lat="46.62831" lon="6.34818">
        <ele>1293</ele>
        <time>2019-05-22T09:02:59Z</time>
      </trkpt>
      <trkpt lat="46.62825" lon="6.34809">
        <ele>1292</ele>
        <time>2019-05-22T09:03:11Z</time>
      </trkpt>
      <trkpt lat="46.62817" lon="6.348">
        <ele>1290</ele>
        <time>2019-05-22T09:03:20Z</time>
      </trkpt>
      <trkpt lat="46.62814" lon="6.34795">
        <ele>1289</ele>
        <time>2019-05-22T09:03:24Z</time>
      </trkpt>
      <trkpt lat="46.62811" lon="6.3479">
        <ele>1289</ele>
        <time>2019-05-22T09:03:28Z</time>
      </trkpt>
      <trkpt lat="46.62809" lon="6.34784">
        <ele>1289</ele>
        <time>2019-05-22T09:03:33Z</time>
      </trkpt>
      <trkpt lat="46.62805" lon="6.34779">
        <ele>1287</ele>
        <time>2019-05-22T09:03:52Z</time>
      </trkpt>
      <trkpt lat="46.62801" lon="6.34768">
        <ele>1284</ele>
        <time>2019-05-22T09:04:51Z</time>
      </trkpt>
      <trkpt lat="46.62799" lon="6.34761">
        <ele>1283</ele>
        <time>2019-05-22T09:04:55Z</time>
      </trkpt>
      <trkpt lat="46.62797" lon="6.34751">
        <ele>1283</ele>
        <time>2019-05-22T09:04:59Z</time>
      </trkpt>
      <trkpt lat="46.62798" lon="6.34743">
        <ele>1283</ele>
        <time>2019-05-22T09:05:08Z</time>
      </trkpt>
      <trkpt lat="46.62793" lon="6.34734">
        <ele>1285</ele>
        <time>2019-05-22T09:05:20Z</time>
      </trkpt>
      <trkpt lat="46.62791" lon="6.34722">
        <ele>1284</ele>
        <time>2019-05-22T09:05:31Z</time>
      </trkpt>
      <trkpt lat="46.62791" lon="6.34715">
        <ele>1284</ele>
        <time>2019-05-22T09:05:36Z</time>
      </trkpt>
      <trkpt lat="46.62789" lon="6.34708">
        <ele>1285</ele>
        <time>2019-05-22T09:05:41Z</time>
      </trkpt>
      <trkpt lat="46.62786" lon="6.34701">
        <ele>1283</ele>
        <time>2019-05-22T09:05:46Z</time>
      </trkpt>
      <trkpt lat="46.62775" lon="6.34687">
        <ele>1283</ele>
        <time>2019-05-22T09:06:00Z</time>
      </trkpt>
      <trkpt lat="46.62771" lon="6.34684">
        <ele>1283</ele>
        <time>2019-05-22T09:06:05Z</time>
      </trkpt>
      <trkpt lat="46.62766" lon="6.34679">
        <ele>1283</ele>
        <time>2019-05-22T09:06:10Z</time>
      </trkpt>
      <trkpt lat="46.62762" lon="6.34674">
        <ele>1284</ele>
        <time>2019-05-22T09:06:14Z</time>
      </trkpt>
      <trkpt lat="46.62759" lon="6.34668">
        <ele>1283</ele>
        <time>2019-05-22T09:06:18Z</time>
      </trkpt>
      <trkpt lat="46.62754" lon="6.34665">
        <ele>1284</ele>
        <time>2019-05-22T09:06:23Z</time>
      </trkpt>
      <trkpt lat="46.62746" lon="6.34655">
        <ele>1285</ele>
        <time>2019-05-22T09:06:32Z</time>
      </trkpt>
      <trkpt lat="46.62742" lon="6.3465">
        <ele>1285</ele>
        <time>2019-05-22T09:06:36Z</time>
      </trkpt>
      <trkpt lat="46.62737" lon="6.34645">
        <ele>1286</ele>
        <time>2019-05-22T09:06:41Z</time>
      </trkpt>
      <trkpt lat="46.62732" lon="6.34641">
        <ele>1286</ele>
        <time>2019-05-22T09:06:46Z</time>
      </trkpt>
      <trkpt lat="46.62724" lon="6.34631">
        <ele>1284</ele>
        <time>2019-05-22T09:06:54Z</time>
      </trkpt>
      <trkpt lat="46.62721" lon="6.34626">
        <ele>1284</ele>
        <time>2019-05-22T09:06:58Z</time>
      </trkpt>
      <trkpt lat="46.62701" lon="6.34606">
        <ele>1287</ele>
        <time>2019-05-22T09:07:21Z</time>
      </trkpt>
      <trkpt lat="46.62697" lon="6.34602">
        <ele>1286</ele>
        <time>2019-05-22T09:07:25Z</time>
      </trkpt>
      <trkpt lat="46.62678" lon="6.34577">
        <ele>1286</ele>
        <time>2019-05-22T09:07:46Z</time>
      </trkpt>
      <trkpt lat="46.62674" lon="6.34572">
        <ele>1285</ele>
        <time>2019-05-22T09:07:50Z</time>
      </trkpt>
      <trkpt lat="46.62671" lon="6.34567">
        <ele>1286</ele>
        <time>2019-05-22T09:07:54Z</time>
      </trkpt>
      <trkpt lat="46.6266" lon="6.34551">
        <ele>1286</ele>
        <time>2019-05-22T09:08:07Z</time>
      </trkpt>
      <trkpt lat="46.62656" lon="6.34548">
        <ele>1286</ele>
        <time>2019-05-22T09:08:11Z</time>
      </trkpt>
      <trkpt lat="46.62647" lon="6.34543">
        <ele>1285</ele>
        <time>2019-05-22T09:08:20Z</time>
      </trkpt>
      <trkpt lat="46.62642" lon="6.34538">
        <ele>1285</ele>
        <time>2019-05-22T09:08:25Z</time>
      </trkpt>
      <trkpt lat="46.62638" lon="6.34533">
        <ele>1285</ele>
        <time>2019-05-22T09:08:30Z</time>
      </trkpt>
      <trkpt lat="46.62608" lon="6.34507">
        <ele>1287</ele>
        <time>2019-05-22T09:08:59Z</time>
      </trkpt>
      <trkpt lat="46.62603" lon="6.34506">
        <ele>1287</ele>
        <time>2019-05-22T09:09:03Z</time>
      </trkpt>
      <trkpt lat="46.62593" lon="6.34503">
        <ele>1288</ele>
        <time>2019-05-22T09:09:12Z</time>
      </trkpt>
      <trkpt lat="46.62579" lon="6.34495">
        <ele>1288</ele>
        <time>2019-05-22T09:09:24Z</time>
      </trkpt>
      <trkpt lat="46.62565" lon="6.34484">
        <ele>1289</ele>
        <time>2019-05-22T09:09:38Z</time>
      </trkpt>
      <trkpt lat="46.62561" lon="6.34478">
        <ele>1289</ele>
        <time>2019-05-22T09:09:42Z</time>
      </trkpt>
      <trkpt lat="46.62559" lon="6.34471">
        <ele>1289</ele>
        <time>2019-05-22T09:09:46Z</time>
      </trkpt>
      <trkpt lat="46.62555" lon="6.34458">
        <ele>1290</ele>
        <time>2019-05-22T09:09:54Z</time>
      </trkpt>
      <trkpt lat="46.62553" lon="6.3445">
        <ele>1290</ele>
        <time>2019-05-22T09:09:58Z</time>
      </trkpt>
      <trkpt lat="46.62552" lon="6.34444">
        <ele>1291</ele>
        <time>2019-05-22T09:10:02Z</time>
      </trkpt>
      <trkpt lat="46.6255" lon="6.34437">
        <ele>1292</ele>
        <time>2019-05-22T09:10:06Z</time>
      </trkpt>
      <trkpt lat="46.62548" lon="6.34423">
        <ele>1291</ele>
        <time>2019-05-22T09:10:13Z</time>
      </trkpt>
      <trkpt lat="46.62547" lon="6.34416">
        <ele>1292</ele>
        <time>2019-05-22T09:10:17Z</time>
      </trkpt>
      <trkpt lat="46.62546" lon="6.34408">
        <ele>1292</ele>
        <time>2019-05-22T09:10:21Z</time>
      </trkpt>
      <trkpt lat="46.62545" lon="6.34401">
        <ele>1292</ele>
        <time>2019-05-22T09:10:25Z</time>
      </trkpt>
      <trkpt lat="46.62544" lon="6.34394">
        <ele>1292</ele>
        <time>2019-05-22T09:10:29Z</time>
      </trkpt>
      <trkpt lat="46.62542" lon="6.34378">
        <ele>1293</ele>
        <time>2019-05-22T09:10:38Z</time>
      </trkpt>
      <trkpt lat="46.62538" lon="6.34348">
        <ele>1292</ele>
        <time>2019-05-22T09:10:56Z</time>
      </trkpt>
      <trkpt lat="46.62536" lon="6.3434">
        <ele>1292</ele>
        <time>2019-05-22T09:11:01Z</time>
      </trkpt>
      <trkpt lat="46.62534" lon="6.34333">
        <ele>1292</ele>
        <time>2019-05-22T09:11:05Z</time>
      </trkpt>
      <trkpt lat="46.62531" lon="6.34319">
        <ele>1292</ele>
        <time>2019-05-22T09:11:14Z</time>
      </trkpt>
      <trkpt lat="46.62529" lon="6.34313">
        <ele>1292</ele>
        <time>2019-05-22T09:11:18Z</time>
      </trkpt>
      <trkpt lat="46.62527" lon="6.34306">
        <ele>1293</ele>
        <time>2019-05-22T09:11:22Z</time>
      </trkpt>
      <trkpt lat="46.62523" lon="6.34294">
        <ele>1292</ele>
        <time>2019-05-22T09:11:30Z</time>
      </trkpt>
      <trkpt lat="46.62518" lon="6.34278">
        <ele>1293</ele>
        <time>2019-05-22T09:11:39Z</time>
      </trkpt>
      <trkpt lat="46.62513" lon="6.34265">
        <ele>1294</ele>
        <time>2019-05-22T09:11:49Z</time>
      </trkpt>
      <trkpt lat="46.62511" lon="6.34259">
        <ele>1294</ele>
        <time>2019-05-22T09:11:53Z</time>
      </trkpt>
      <trkpt lat="46.62508" lon="6.34253">
        <ele>1293</ele>
        <time>2019-05-22T09:11:57Z</time>
      </trkpt>
      <trkpt lat="46.62502" lon="6.34232">
        <ele>1295</ele>
        <time>2019-05-22T09:12:11Z</time>
      </trkpt>
      <trkpt lat="46.62499" lon="6.34226">
        <ele>1295</ele>
        <time>2019-05-22T09:12:15Z</time>
      </trkpt>
      <trkpt lat="46.62497" lon="6.3422">
        <ele>1295</ele>
        <time>2019-05-22T09:12:20Z</time>
      </trkpt>
      <trkpt lat="46.62492" lon="6.34207">
        <ele>1295</ele>
        <time>2019-05-22T09:12:28Z</time>
      </trkpt>
      <trkpt lat="46.62486" lon="6.34196">
        <ele>1295</ele>
        <time>2019-05-22T09:12:38Z</time>
      </trkpt>
      <trkpt lat="46.62482" lon="6.34193">
        <ele>1295</ele>
        <time>2019-05-22T09:12:43Z</time>
      </trkpt>
      <trkpt lat="46.62463" lon="6.34175">
        <ele>1296</ele>
        <time>2019-05-22T09:13:02Z</time>
      </trkpt>
      <trkpt lat="46.62459" lon="6.3417">
        <ele>1296</ele>
        <time>2019-05-22T09:13:06Z</time>
      </trkpt>
      <trkpt lat="46.62453" lon="6.34158">
        <ele>1296</ele>
        <time>2019-05-22T09:13:15Z</time>
      </trkpt>
      <trkpt lat="46.62446" lon="6.34146">
        <ele>1297</ele>
        <time>2019-05-22T09:13:25Z</time>
      </trkpt>
      <trkpt lat="46.62443" lon="6.34131">
        <ele>1297</ele>
        <time>2019-05-22T09:13:33Z</time>
      </trkpt>
      <trkpt lat="46.62442" lon="6.34123">
        <ele>1298</ele>
        <time>2019-05-22T09:13:38Z</time>
      </trkpt>
      <trkpt lat="46.62437" lon="6.34115">
        <ele>1298</ele>
        <time>2019-05-22T09:13:45Z</time>
      </trkpt>
      <trkpt lat="46.62432" lon="6.34102">
        <ele>1299</ele>
        <time>2019-05-22T09:13:54Z</time>
      </trkpt>
      <trkpt lat="46.62427" lon="6.34098">
        <ele>1299</ele>
        <time>2019-05-22T09:14:00Z</time>
      </trkpt>
      <trkpt lat="46.62422" lon="6.34097">
        <ele>1299</ele>
        <time>2019-05-22T09:14:04Z</time>
      </trkpt>
      <trkpt lat="46.62418" lon="6.34094">
        <ele>1300</ele>
        <time>2019-05-22T09:14:09Z</time>
      </trkpt>
      <trkpt lat="46.62413" lon="6.34092">
        <ele>1300</ele>
        <time>2019-05-22T09:14:14Z</time>
      </trkpt>
      <trkpt lat="46.62409" lon="6.34089">
        <ele>1300</ele>
        <time>2019-05-22T09:14:19Z</time>
      </trkpt>
      <trkpt lat="46.62404" lon="6.34087">
        <ele>1301</ele>
        <time>2019-05-22T09:14:24Z</time>
      </trkpt>
      <trkpt lat="46.62399" lon="6.34089">
        <ele>1302</ele>
        <time>2019-05-22T09:14:44Z</time>
      </trkpt>
      <trkpt lat="46.62385" lon="6.3407">
        <ele>1309</ele>
        <time>2019-05-22T09:15:04Z</time>
      </trkpt>
      <trkpt lat="46.62379" lon="6.34063">
        <ele>1309</ele>
        <time>2019-05-22T09:15:12Z</time>
      </trkpt>
      <trkpt lat="46.62375" lon="6.34058">
        <ele>1311</ele>
        <time>2019-05-22T09:15:18Z</time>
      </trkpt>
      <trkpt lat="46.62371" lon="6.34054">
        <ele>1310</ele>
        <time>2019-05-22T09:15:23Z</time>
      </trkpt>
      <trkpt lat="46.6236" lon="6.3405">
        <ele>1309</ele>
        <time>2019-05-22T09:15:32Z</time>
      </trkpt>
      <trkpt lat="46.6235" lon="6.34049">
        <ele>1310</ele>
        <time>2019-05-22T09:15:39Z</time>
      </trkpt>
      <trkpt lat="46.62337" lon="6.34047">
        <ele>1310</ele>
        <time>2019-05-22T09:16:01Z</time>
      </trkpt>
      <trkpt lat="46.62329" lon="6.34049">
        <ele>1312</ele>
        <time>2019-05-22T09:16:09Z</time>
      </trkpt>
      <trkpt lat="46.62321" lon="6.34049">
        <ele>1310</ele>
        <time>2019-05-22T09:16:17Z</time>
      </trkpt>
      <trkpt lat="46.62317" lon="6.34047">
        <ele>1310</ele>
        <time>2019-05-22T09:16:21Z</time>
      </trkpt>
      <trkpt lat="46.62312" lon="6.34047">
        <ele>1310</ele>
        <time>2019-05-22T09:16:26Z</time>
      </trkpt>
      <trkpt lat="46.62308" lon="6.34049">
        <ele>1309</ele>
        <time>2019-05-22T09:16:31Z</time>
      </trkpt>
      <trkpt lat="46.62302" lon="6.34048">
        <ele>1310</ele>
        <time>2019-05-22T09:16:39Z</time>
      </trkpt>
      <trkpt lat="46.62297" lon="6.34045">
        <ele>1310</ele>
        <time>2019-05-22T09:16:45Z</time>
      </trkpt>
      <trkpt lat="46.6229" lon="6.34037">
        <ele>1310</ele>
        <time>2019-05-22T09:16:57Z</time>
      </trkpt>
      <trkpt lat="46.62286" lon="6.34035">
        <ele>1311</ele>
        <time>2019-05-22T09:17:01Z</time>
      </trkpt>
      <trkpt lat="46.62282" lon="6.34027">
        <ele>1312</ele>
        <time>2019-05-22T09:17:10Z</time>
      </trkpt>
      <trkpt lat="46.62277" lon="6.34019">
        <ele>1311</ele>
        <time>2019-05-22T09:17:20Z</time>
      </trkpt>
      <trkpt lat="46.62274" lon="6.34014">
        <ele>1312</ele>
        <time>2019-05-22T09:17:26Z</time>
      </trkpt>
      <trkpt lat="46.62271" lon="6.34008">
        <ele>1312</ele>
        <time>2019-05-22T09:17:30Z</time>
      </trkpt>
      <trkpt lat="46.62266" lon="6.33996">
        <ele>1313</ele>
        <time>2019-05-22T09:17:38Z</time>
      </trkpt>
      <trkpt lat="46.62266" lon="6.33989">
        <ele>1313</ele>
        <time>2019-05-22T09:17:43Z</time>
      </trkpt>
      <trkpt lat="46.62264" lon="6.33983">
        <ele>1313</ele>
        <time>2019-05-22T09:17:48Z</time>
      </trkpt>
      <trkpt lat="46.62251" lon="6.33952">
        <ele>1315</ele>
        <time>2019-05-22T09:18:09Z</time>
      </trkpt>
      <trkpt lat="46.62249" lon="6.33946">
        <ele>1315</ele>
        <time>2019-05-22T09:18:14Z</time>
      </trkpt>
      <trkpt lat="46.62247" lon="6.33932">
        <ele>1317</ele>
        <time>2019-05-22T09:18:24Z</time>
      </trkpt>
      <trkpt lat="46.62246" lon="6.33926">
        <ele>1318</ele>
        <time>2019-05-22T09:18:29Z</time>
      </trkpt>
      <trkpt lat="46.62242" lon="6.33915">
        <ele>1317</ele>
        <time>2019-05-22T09:18:39Z</time>
      </trkpt>
      <trkpt lat="46.62239" lon="6.33908">
        <ele>1318</ele>
        <time>2019-05-22T09:18:45Z</time>
      </trkpt>
      <trkpt lat="46.62224" lon="6.33883">
        <ele>1321</ele>
        <time>2019-05-22T09:19:06Z</time>
      </trkpt>
      <trkpt lat="46.6221" lon="6.33868">
        <ele>1321</ele>
        <time>2019-05-22T09:19:18Z</time>
      </trkpt>
      <trkpt lat="46.62205" lon="6.33861">
        <ele>1319</ele>
        <time>2019-05-22T09:19:26Z</time>
      </trkpt>
      <trkpt lat="46.62197" lon="6.33847">
        <ele>1320</ele>
        <time>2019-05-22T09:19:40Z</time>
      </trkpt>
      <trkpt lat="46.62186" lon="6.33833">
        <ele>1321</ele>
        <time>2019-05-22T09:19:55Z</time>
      </trkpt>
      <trkpt lat="46.62182" lon="6.33829">
        <ele>1321</ele>
        <time>2019-05-22T09:19:59Z</time>
      </trkpt>
      <trkpt lat="46.62178" lon="6.33822">
        <ele>1320</ele>
        <time>2019-05-22T09:20:07Z</time>
      </trkpt>
      <trkpt lat="46.62178" lon="6.33815">
        <ele>1321</ele>
        <time>2019-05-22T09:20:12Z</time>
      </trkpt>
      <trkpt lat="46.62174" lon="6.33809">
        <ele>1322</ele>
        <time>2019-05-22T09:20:17Z</time>
      </trkpt>
      <trkpt lat="46.62169" lon="6.33804">
        <ele>1324</ele>
        <time>2019-05-22T09:20:25Z</time>
      </trkpt>
      <trkpt lat="46.62165" lon="6.33796">
        <ele>1325</ele>
        <time>2019-05-22T09:20:32Z</time>
      </trkpt>
      <trkpt lat="46.62154" lon="6.33783">
        <ele>1326</ele>
        <time>2019-05-22T09:20:48Z</time>
      </trkpt>
      <trkpt lat="46.62132" lon="6.33759">
        <ele>1334</ele>
        <time>2019-05-22T09:21:21Z</time>
      </trkpt>
      <trkpt lat="46.62117" lon="6.33747">
        <ele>1334</ele>
        <time>2019-05-22T09:21:38Z</time>
      </trkpt>
      <trkpt lat="46.62089" lon="6.33719">
        <ele>1341</ele>
        <time>2019-05-22T09:22:12Z</time>
      </trkpt>
      <trkpt lat="46.62085" lon="6.33713">
        <ele>1342</ele>
        <time>2019-05-22T09:22:17Z</time>
      </trkpt>
      <trkpt lat="46.62082" lon="6.33704">
        <ele>1342</ele>
        <time>2019-05-22T09:22:24Z</time>
      </trkpt>
      <trkpt lat="46.62073" lon="6.3368">
        <ele>1342</ele>
        <time>2019-05-22T09:22:43Z</time>
      </trkpt>
      <trkpt lat="46.62068" lon="6.33665">
        <ele>1342</ele>
        <time>2019-05-22T09:22:54Z</time>
      </trkpt>
      <trkpt lat="46.62066" lon="6.3366">
        <ele>1343</ele>
        <time>2019-05-22T09:22:59Z</time>
      </trkpt>
      <trkpt lat="46.62066" lon="6.33645">
        <ele>1345</ele>
        <time>2019-05-22T09:23:09Z</time>
      </trkpt>
      <trkpt lat="46.62063" lon="6.33636">
        <ele>1345</ele>
        <time>2019-05-22T09:23:17Z</time>
      </trkpt>
      <trkpt lat="46.62059" lon="6.33623">
        <ele>1347</ele>
        <time>2019-05-22T09:23:30Z</time>
      </trkpt>
      <trkpt lat="46.62056" lon="6.33618">
        <ele>1347</ele>
        <time>2019-05-22T09:23:35Z</time>
      </trkpt>
      <trkpt lat="46.62053" lon="6.3361">
        <ele>1347</ele>
        <time>2019-05-22T09:23:43Z</time>
      </trkpt>
      <trkpt lat="46.62049" lon="6.33605">
        <ele>1348</ele>
        <time>2019-05-22T09:23:49Z</time>
      </trkpt>
      <trkpt lat="46.62045" lon="6.33603">
        <ele>1348</ele>
        <time>2019-05-22T09:23:54Z</time>
      </trkpt>
      <trkpt lat="46.6204" lon="6.33597">
        <ele>1349</ele>
        <time>2019-05-22T09:24:02Z</time>
      </trkpt>
      <trkpt lat="46.62037" lon="6.33591">
        <ele>1350</ele>
        <time>2019-05-22T09:24:08Z</time>
      </trkpt>
      <trkpt lat="46.62033" lon="6.33588">
        <ele>1350</ele>
        <time>2019-05-22T09:24:13Z</time>
      </trkpt>
      <trkpt lat="46.62027" lon="6.33581">
        <ele>1351</ele>
        <time>2019-05-22T09:24:22Z</time>
      </trkpt>
      <trkpt lat="46.62023" lon="6.33577">
        <ele>1353</ele>
        <time>2019-05-22T09:24:30Z</time>
      </trkpt>
      <trkpt lat="46.6201" lon="6.33546">
        <ele>1354</ele>
        <time>2019-05-22T09:24:53Z</time>
      </trkpt>
      <trkpt lat="46.62005" lon="6.3354">
        <ele>1355</ele>
        <time>2019-05-22T09:25:00Z</time>
      </trkpt>
      <trkpt lat="46.62" lon="6.33533">
        <ele>1355</ele>
        <time>2019-05-22T09:25:08Z</time>
      </trkpt>
      <trkpt lat="46.61988" lon="6.3351">
        <ele>1358</ele>
        <time>2019-05-22T09:25:28Z</time>
      </trkpt>
      <trkpt lat="46.61985" lon="6.33505">
        <ele>1358</ele>
        <time>2019-05-22T09:25:33Z</time>
      </trkpt>
      <trkpt lat="46.61981" lon="6.33502">
        <ele>1357</ele>
        <time>2019-05-22T09:25:41Z</time>
      </trkpt>
      <trkpt lat="46.6196" lon="6.33483">
        <ele>1361</ele>
        <time>2019-05-22T09:26:12Z</time>
      </trkpt>
      <trkpt lat="46.61957" lon="6.33479">
        <ele>1362</ele>
        <time>2019-05-22T09:26:17Z</time>
      </trkpt>
      <trkpt lat="46.61955" lon="6.33473">
        <ele>1362</ele>
        <time>2019-05-22T09:26:21Z</time>
      </trkpt>
      <trkpt lat="46.61953" lon="6.33464">
        <ele>1364</ele>
        <time>2019-05-22T09:26:25Z</time>
      </trkpt>
      <trkpt lat="46.61952" lon="6.33459">
        <ele>1365</ele>
        <time>2019-05-22T09:26:28Z</time>
      </trkpt>
      <trkpt lat="46.6195" lon="6.33452">
        <ele>1365</ele>
        <time>2019-05-22T09:26:32Z</time>
      </trkpt>
      <trkpt lat="46.61948" lon="6.33446">
        <ele>1364</ele>
        <time>2019-05-22T09:26:36Z</time>
      </trkpt>
      <trkpt lat="46.61946" lon="6.33441">
        <ele>1365</ele>
        <time>2019-05-22T09:26:41Z</time>
      </trkpt>
      <trkpt lat="46.61942" lon="6.33435">
        <ele>1365</ele>
        <time>2019-05-22T09:26:46Z</time>
      </trkpt>
      <trkpt lat="46.61937" lon="6.33435">
        <ele>1365</ele>
        <time>2019-05-22T09:26:51Z</time>
      </trkpt>
      <trkpt lat="46.61928" lon="6.33424">
        <ele>1365</ele>
        <time>2019-05-22T09:27:01Z</time>
      </trkpt>
      <trkpt lat="46.61924" lon="6.33419">
        <ele>1366</ele>
        <time>2019-05-22T09:27:06Z</time>
      </trkpt>
      <trkpt lat="46.61919" lon="6.33417">
        <ele>1366</ele>
        <time>2019-05-22T09:27:11Z</time>
      </trkpt>
      <trkpt lat="46.61919" lon="6.33422">
        <ele>1366</ele>
        <time>2019-05-22T09:28:26Z</time>
      </trkpt>
      <trkpt lat="46.61917" lon="6.3342">
        <ele>1366</ele>
        <time>2019-05-22T09:29:55Z</time>
      </trkpt>
      <trkpt lat="46.61913" lon="6.33414">
        <ele>1363</ele>
        <time>2019-05-22T09:30:03Z</time>
      </trkpt>
      <trkpt lat="46.61917" lon="6.3341">
        <ele>1364</ele>
        <time>2019-05-22T09:30:45Z</time>
      </trkpt>
      <trkpt lat="46.61921" lon="6.33417">
        <ele>1367</ele>
        <time>2019-05-22T09:31:57Z</time>
      </trkpt>
      <trkpt lat="46.61911" lon="6.33419">
        <ele>1364</ele>
        <time>2019-05-22T09:34:38Z</time>
      </trkpt>
      <trkpt lat="46.61913" lon="6.33411">
        <ele>1361</ele>
        <time>2019-05-22T09:35:38Z</time>
      </trkpt>
      <trkpt lat="46.61905" lon="6.33404">
        <ele>1362</ele>
        <time>2019-05-22T09:36:43Z</time>
      </trkpt>
      <trkpt lat="46.61898" lon="6.33403">
        <ele>1359</ele>
        <time>2019-05-22T09:37:38Z</time>
      </trkpt>
      <trkpt lat="46.6189" lon="6.33392">
        <ele>1361</ele>
        <time>2019-05-22T09:37:46Z</time>
      </trkpt>
      <trkpt lat="46.61884" lon="6.3338">
        <ele>1361</ele>
        <time>2019-05-22T09:37:58Z</time>
      </trkpt>
      <trkpt lat="46.61882" lon="6.33373">
        <ele>1362</ele>
        <time>2019-05-22T09:38:01Z</time>
      </trkpt>
      <trkpt lat="46.61878" lon="6.33341">
        <ele>1364</ele>
        <time>2019-05-22T09:38:19Z</time>
      </trkpt>
      <trkpt lat="46.61876" lon="6.33326">
        <ele>1364</ele>
        <time>2019-05-22T09:38:28Z</time>
      </trkpt>
      <trkpt lat="46.61869" lon="6.33306">
        <ele>1366</ele>
        <time>2019-05-22T09:38:43Z</time>
      </trkpt>
      <trkpt lat="46.61865" lon="6.333">
        <ele>1366</ele>
        <time>2019-05-22T09:38:48Z</time>
      </trkpt>
      <trkpt lat="46.61854" lon="6.33283">
        <ele>1366</ele>
        <time>2019-05-22T09:38:58Z</time>
      </trkpt>
      <trkpt lat="46.61849" lon="6.3328">
        <ele>1367</ele>
        <time>2019-05-22T09:39:03Z</time>
      </trkpt>
      <trkpt lat="46.61844" lon="6.33278">
        <ele>1368</ele>
        <time>2019-05-22T09:39:08Z</time>
      </trkpt>
      <trkpt lat="46.61838" lon="6.33267">
        <ele>1368</ele>
        <time>2019-05-22T09:39:17Z</time>
      </trkpt>
      <trkpt lat="46.61835" lon="6.3326">
        <ele>1369</ele>
        <time>2019-05-22T09:39:22Z</time>
      </trkpt>
      <trkpt lat="46.61832" lon="6.33246">
        <ele>1369</ele>
        <time>2019-05-22T09:39:30Z</time>
      </trkpt>
      <trkpt lat="46.61829" lon="6.3324">
        <ele>1369</ele>
        <time>2019-05-22T09:39:35Z</time>
      </trkpt>
      <trkpt lat="46.61825" lon="6.33235">
        <ele>1370</ele>
        <time>2019-05-22T09:39:39Z</time>
      </trkpt>
      <trkpt lat="46.61821" lon="6.33228">
        <ele>1370</ele>
        <time>2019-05-22T09:39:46Z</time>
      </trkpt>
      <trkpt lat="46.61817" lon="6.33223">
        <ele>1370</ele>
        <time>2019-05-22T09:39:51Z</time>
      </trkpt>
      <trkpt lat="46.61813" lon="6.33219">
        <ele>1371</ele>
        <time>2019-05-22T09:39:56Z</time>
      </trkpt>
      <trkpt lat="46.6181" lon="6.33215">
        <ele>1372</ele>
        <time>2019-05-22T09:40:01Z</time>
      </trkpt>
      <trkpt lat="46.61803" lon="6.33212">
        <ele>1372</ele>
        <time>2019-05-22T09:40:09Z</time>
      </trkpt>
      <trkpt lat="46.61798" lon="6.33211">
        <ele>1372</ele>
        <time>2019-05-22T09:40:14Z</time>
      </trkpt>
      <trkpt lat="46.61793" lon="6.33212">
        <ele>1372</ele>
        <time>2019-05-22T09:40:19Z</time>
      </trkpt>
      <trkpt lat="46.61782" lon="6.33211">
        <ele>1371</ele>
        <time>2019-05-22T09:40:27Z</time>
      </trkpt>
      <trkpt lat="46.61773" lon="6.33215">
        <ele>1371</ele>
        <time>2019-05-22T09:40:35Z</time>
      </trkpt>
      <trkpt lat="46.61759" lon="6.33219">
        <ele>1372</ele>
        <time>2019-05-22T09:40:47Z</time>
      </trkpt>
      <trkpt lat="46.61755" lon="6.33222">
        <ele>1371</ele>
        <time>2019-05-22T09:40:51Z</time>
      </trkpt>
      <trkpt lat="46.61751" lon="6.33225">
        <ele>1371</ele>
        <time>2019-05-22T09:40:55Z</time>
      </trkpt>
      <trkpt lat="46.61746" lon="6.33227">
        <ele>1372</ele>
        <time>2019-05-22T09:41:00Z</time>
      </trkpt>
      <trkpt lat="46.61741" lon="6.33231">
        <ele>1372</ele>
        <time>2019-05-22T09:41:05Z</time>
      </trkpt>
      <trkpt lat="46.61737" lon="6.33234">
        <ele>1372</ele>
        <time>2019-05-22T09:41:10Z</time>
      </trkpt>
      <trkpt lat="46.61732" lon="6.33238">
        <ele>1372</ele>
        <time>2019-05-22T09:41:15Z</time>
      </trkpt>
      <trkpt lat="46.61727" lon="6.3324">
        <ele>1372</ele>
        <time>2019-05-22T09:41:20Z</time>
      </trkpt>
      <trkpt lat="46.61722" lon="6.3324">
        <ele>1373</ele>
        <time>2019-05-22T09:41:25Z</time>
      </trkpt>
      <trkpt lat="46.61717" lon="6.33241">
        <ele>1373</ele>
        <time>2019-05-22T09:41:31Z</time>
      </trkpt>
      <trkpt lat="46.61712" lon="6.33243">
        <ele>1373</ele>
        <time>2019-05-22T09:41:35Z</time>
      </trkpt>
      <trkpt lat="46.61708" lon="6.33243">
        <ele>1374</ele>
        <time>2019-05-22T09:41:39Z</time>
      </trkpt>
      <trkpt lat="46.61688" lon="6.33238">
        <ele>1376</ele>
        <time>2019-05-22T09:41:57Z</time>
      </trkpt>
      <trkpt lat="46.61662" lon="6.33223">
        <ele>1377</ele>
        <time>2019-05-22T09:42:25Z</time>
      </trkpt>
      <trkpt lat="46.61652" lon="6.33212">
        <ele>1378</ele>
        <time>2019-05-22T09:42:38Z</time>
      </trkpt>
      <trkpt lat="46.61632" lon="6.33194">
        <ele>1380</ele>
        <time>2019-05-22T09:42:59Z</time>
      </trkpt>
      <trkpt lat="46.61621" lon="6.33192">
        <ele>1381</ele>
        <time>2019-05-22T09:43:09Z</time>
      </trkpt>
      <trkpt lat="46.61606" lon="6.33178">
        <ele>1384</ele>
        <time>2019-05-22T09:43:25Z</time>
      </trkpt>
      <trkpt lat="46.61602" lon="6.33174">
        <ele>1384</ele>
        <time>2019-05-22T09:43:29Z</time>
      </trkpt>
      <trkpt lat="46.61592" lon="6.33157">
        <ele>1386</ele>
        <time>2019-05-22T09:43:42Z</time>
      </trkpt>
      <trkpt lat="46.61585" lon="6.33152">
        <ele>1386</ele>
        <time>2019-05-22T09:43:53Z</time>
      </trkpt>
      <trkpt lat="46.61575" lon="6.33135">
        <ele>1387</ele>
        <time>2019-05-22T09:44:05Z</time>
      </trkpt>
      <trkpt lat="46.61565" lon="6.33117">
        <ele>1388</ele>
        <time>2019-05-22T09:44:17Z</time>
      </trkpt>
      <trkpt lat="46.61542" lon="6.33082">
        <ele>1391</ele>
        <time>2019-05-22T09:44:50Z</time>
      </trkpt>
      <trkpt lat="46.61534" lon="6.33064">
        <ele>1393</ele>
        <time>2019-05-22T09:45:02Z</time>
      </trkpt>
      <trkpt lat="46.61529" lon="6.33048">
        <ele>1395</ele>
        <time>2019-05-22T09:45:14Z</time>
      </trkpt>
      <trkpt lat="46.61525" lon="6.33035">
        <ele>1395</ele>
        <time>2019-05-22T09:45:23Z</time>
      </trkpt>
      <trkpt lat="46.61517" lon="6.3302">
        <ele>1396</ele>
        <time>2019-05-22T09:45:36Z</time>
      </trkpt>
      <trkpt lat="46.61505" lon="6.33005">
        <ele>1397</ele>
        <time>2019-05-22T09:45:50Z</time>
      </trkpt>
      <trkpt lat="46.61485" lon="6.32984">
        <ele>1399</ele>
        <time>2019-05-22T09:46:14Z</time>
      </trkpt>
      <trkpt lat="46.61478" lon="6.32969">
        <ele>1401</ele>
        <time>2019-05-22T09:46:33Z</time>
      </trkpt>
      <trkpt lat="46.61472" lon="6.32957">
        <ele>1402</ele>
        <time>2019-05-22T09:46:42Z</time>
      </trkpt>
      <trkpt lat="46.61468" lon="6.32952">
        <ele>1402</ele>
        <time>2019-05-22T09:46:47Z</time>
      </trkpt>
      <trkpt lat="46.61448" lon="6.32909">
        <ele>1405</ele>
        <time>2019-05-22T09:47:19Z</time>
      </trkpt>
      <trkpt lat="46.61432" lon="6.32883">
        <ele>1408</ele>
        <time>2019-05-22T09:47:45Z</time>
      </trkpt>
      <trkpt lat="46.61426" lon="6.32877">
        <ele>1408</ele>
        <time>2019-05-22T09:47:53Z</time>
      </trkpt>
      <trkpt lat="46.61422" lon="6.32873">
        <ele>1409</ele>
        <time>2019-05-22T09:47:59Z</time>
      </trkpt>
      <trkpt lat="46.61417" lon="6.32873">
        <ele>1410</ele>
        <time>2019-05-22T09:48:04Z</time>
      </trkpt>
      <trkpt lat="46.61413" lon="6.32869">
        <ele>1410</ele>
        <time>2019-05-22T09:48:09Z</time>
      </trkpt>
      <trkpt lat="46.6141" lon="6.32864">
        <ele>1410</ele>
        <time>2019-05-22T09:48:20Z</time>
      </trkpt>
      <trkpt lat="46.61405" lon="6.32867">
        <ele>1410</ele>
        <time>2019-05-22T09:48:26Z</time>
      </trkpt>
      <trkpt lat="46.61401" lon="6.32871">
        <ele>1411</ele>
        <time>2019-05-22T09:48:32Z</time>
      </trkpt>
      <trkpt lat="46.61393" lon="6.32876">
        <ele>1411</ele>
        <time>2019-05-22T09:48:44Z</time>
      </trkpt>
      <trkpt lat="46.61384" lon="6.3288">
        <ele>1411</ele>
        <time>2019-05-22T09:48:56Z</time>
      </trkpt>
      <trkpt lat="46.61367" lon="6.32884">
        <ele>1416</ele>
        <time>2019-05-22T09:49:15Z</time>
      </trkpt>
      <trkpt lat="46.61361" lon="6.32885">
        <ele>1416</ele>
        <time>2019-05-22T09:49:23Z</time>
      </trkpt>
      <trkpt lat="46.61355" lon="6.32892">
        <ele>1417</ele>
        <time>2019-05-22T09:49:35Z</time>
      </trkpt>
      <trkpt lat="46.61349" lon="6.32902">
        <ele>1419</ele>
        <time>2019-05-22T09:49:47Z</time>
      </trkpt>
      <trkpt lat="46.61336" lon="6.32913">
        <ele>1422</ele>
        <time>2019-05-22T09:50:10Z</time>
      </trkpt>
      <trkpt lat="46.61327" lon="6.32915">
        <ele>1424</ele>
        <time>2019-05-22T09:50:22Z</time>
      </trkpt>
      <trkpt lat="46.61322" lon="6.32913">
        <ele>1424</ele>
        <time>2019-05-22T09:50:34Z</time>
      </trkpt>
      <trkpt lat="46.61309" lon="6.3291">
        <ele>1428</ele>
        <time>2019-05-22T09:50:58Z</time>
      </trkpt>
      <trkpt lat="46.61301" lon="6.32913">
        <ele>1428</ele>
        <time>2019-05-22T09:51:10Z</time>
      </trkpt>
      <trkpt lat="46.61291" lon="6.32915">
        <ele>1428</ele>
        <time>2019-05-22T09:51:20Z</time>
      </trkpt>
      <trkpt lat="46.61277" lon="6.3292">
        <ele>1429</ele>
        <time>2019-05-22T09:51:38Z</time>
      </trkpt>
      <trkpt lat="46.61263" lon="6.32929">
        <ele>1431</ele>
        <time>2019-05-22T09:51:56Z</time>
      </trkpt>
      <trkpt lat="46.61258" lon="6.32931">
        <ele>1431</ele>
        <time>2019-05-22T09:52:04Z</time>
      </trkpt>
      <trkpt lat="46.61254" lon="6.32934">
        <ele>1433</ele>
        <time>2019-05-22T09:52:16Z</time>
      </trkpt>
      <trkpt lat="46.61251" lon="6.32941">
        <ele>1434</ele>
        <time>2019-05-22T09:52:28Z</time>
      </trkpt>
      <trkpt lat="46.61247" lon="6.32952">
        <ele>1435</ele>
        <time>2019-05-22T09:52:39Z</time>
      </trkpt>
      <trkpt lat="46.61246" lon="6.32961">
        <ele>1436</ele>
        <time>2019-05-22T09:52:51Z</time>
      </trkpt>
      <trkpt lat="46.61245" lon="6.3297">
        <ele>1438</ele>
        <time>2019-05-22T09:53:03Z</time>
      </trkpt>
      <trkpt lat="46.61239" lon="6.32972">
        <ele>1439</ele>
        <time>2019-05-22T09:53:10Z</time>
      </trkpt>
      <trkpt lat="46.61235" lon="6.32973">
        <ele>1439</ele>
        <time>2019-05-22T09:53:15Z</time>
      </trkpt>
      <trkpt lat="46.6123" lon="6.32976">
        <ele>1440</ele>
        <time>2019-05-22T09:53:23Z</time>
      </trkpt>
      <trkpt lat="46.61223" lon="6.3298">
        <ele>1440</ele>
        <time>2019-05-22T09:53:31Z</time>
      </trkpt>
      <trkpt lat="46.61218" lon="6.32982">
        <ele>1440</ele>
        <time>2019-05-22T09:53:37Z</time>
      </trkpt>
      <trkpt lat="46.61201" lon="6.32991">
        <ele>1446</ele>
        <time>2019-05-22T09:54:01Z</time>
      </trkpt>
      <trkpt lat="46.61197" lon="6.32994">
        <ele>1446</ele>
        <time>2019-05-22T09:54:07Z</time>
      </trkpt>
      <trkpt lat="46.6119" lon="6.32998">
        <ele>1449</ele>
        <time>2019-05-22T09:54:19Z</time>
      </trkpt>
      <trkpt lat="46.6118" lon="6.33005">
        <ele>1453</ele>
        <time>2019-05-22T09:54:37Z</time>
      </trkpt>
      <trkpt lat="46.61173" lon="6.33009">
        <ele>1456</ele>
        <time>2019-05-22T09:54:49Z</time>
      </trkpt>
      <trkpt lat="46.61167" lon="6.33014">
        <ele>1455</ele>
        <time>2019-05-22T09:55:01Z</time>
      </trkpt>
      <trkpt lat="46.61148" lon="6.3302">
        <ele>1460</ele>
        <time>2019-05-22T09:55:37Z</time>
      </trkpt>
      <trkpt lat="46.61142" lon="6.3302">
        <ele>1460</ele>
        <time>2019-05-22T09:55:49Z</time>
      </trkpt>
      <trkpt lat="46.61136" lon="6.3302">
        <ele>1463</ele>
        <time>2019-05-22T09:56:01Z</time>
      </trkpt>
      <trkpt lat="46.61132" lon="6.33015">
        <ele>1463</ele>
        <time>2019-05-22T09:56:13Z</time>
      </trkpt>
      <trkpt lat="46.61131" lon="6.33007">
        <ele>1463</ele>
        <time>2019-05-22T10:00:30Z</time>
      </trkpt>
      <trkpt lat="46.61127" lon="6.33005">
        <ele>1464</ele>
        <time>2019-05-22T10:00:35Z</time>
      </trkpt>
      <trkpt lat="46.61121" lon="6.33004">
        <ele>1465</ele>
        <time>2019-05-22T10:00:46Z</time>
      </trkpt>
      <trkpt lat="46.61113" lon="6.32999">
        <ele>1465</ele>
        <time>2019-05-22T10:00:57Z</time>
      </trkpt>
      <trkpt lat="46.61107" lon="6.32991">
        <ele>1469</ele>
        <time>2019-05-22T10:01:11Z</time>
      </trkpt>
      <trkpt lat="46.61105" lon="6.32985">
        <ele>1469</ele>
        <time>2019-05-22T10:01:17Z</time>
      </trkpt>
      <trkpt lat="46.61095" lon="6.32982">
        <ele>1468</ele>
        <time>2019-05-22T10:01:29Z</time>
      </trkpt>
      <trkpt lat="46.61091" lon="6.32976">
        <ele>1468</ele>
        <time>2019-05-22T10:01:37Z</time>
      </trkpt>
      <trkpt lat="46.61088" lon="6.3297">
        <ele>1469</ele>
        <time>2019-05-22T10:01:43Z</time>
      </trkpt>
      <trkpt lat="46.61085" lon="6.32964">
        <ele>1470</ele>
        <time>2019-05-22T10:01:48Z</time>
      </trkpt>
      <trkpt lat="46.61082" lon="6.32957">
        <ele>1473</ele>
        <time>2019-05-22T10:01:59Z</time>
      </trkpt>
      <trkpt lat="46.61074" lon="6.3295">
        <ele>1473</ele>
        <time>2019-05-22T10:02:28Z</time>
      </trkpt>
      <trkpt lat="46.6107" lon="6.32945">
        <ele>1472</ele>
        <time>2019-05-22T10:02:32Z</time>
      </trkpt>
      <trkpt lat="46.61061" lon="6.3294">
        <ele>1474</ele>
        <time>2019-05-22T10:02:41Z</time>
      </trkpt>
      <trkpt lat="46.61055" lon="6.32941">
        <ele>1475</ele>
        <time>2019-05-22T10:02:47Z</time>
      </trkpt>
      <trkpt lat="46.61051" lon="6.32934">
        <ele>1474</ele>
        <time>2019-05-22T10:02:52Z</time>
      </trkpt>
      <trkpt lat="46.6105" lon="6.32927">
        <ele>1476</ele>
        <time>2019-05-22T10:02:57Z</time>
      </trkpt>
      <trkpt lat="46.61047" lon="6.32918">
        <ele>1476</ele>
        <time>2019-05-22T10:03:05Z</time>
      </trkpt>
      <trkpt lat="46.61043" lon="6.32913">
        <ele>1477</ele>
        <time>2019-05-22T10:03:17Z</time>
      </trkpt>
      <trkpt lat="46.61039" lon="6.32908">
        <ele>1478</ele>
        <time>2019-05-22T10:03:22Z</time>
      </trkpt>
      <trkpt lat="46.61037" lon="6.32903">
        <ele>1478</ele>
        <time>2019-05-22T10:03:27Z</time>
      </trkpt>
      <trkpt lat="46.61032" lon="6.32899">
        <ele>1478</ele>
        <time>2019-05-22T10:03:32Z</time>
      </trkpt>
      <trkpt lat="46.61025" lon="6.32889">
        <ele>1479</ele>
        <time>2019-05-22T10:03:41Z</time>
      </trkpt>
      <trkpt lat="46.61011" lon="6.32868">
        <ele>1481</ele>
        <time>2019-05-22T10:04:01Z</time>
      </trkpt>
      <trkpt lat="46.61006" lon="6.32865">
        <ele>1482</ele>
        <time>2019-05-22T10:04:06Z</time>
      </trkpt>
      <trkpt lat="46.61002" lon="6.32857">
        <ele>1481</ele>
        <time>2019-05-22T10:04:26Z</time>
      </trkpt>
      <trkpt lat="46.60999" lon="6.3285">
        <ele>1481</ele>
        <time>2019-05-22T10:04:32Z</time>
      </trkpt>
      <trkpt lat="46.60995" lon="6.32845">
        <ele>1481</ele>
        <time>2019-05-22T10:04:37Z</time>
      </trkpt>
      <trkpt lat="46.60992" lon="6.32839">
        <ele>1481</ele>
        <time>2019-05-22T10:04:41Z</time>
      </trkpt>
      <trkpt lat="46.6099" lon="6.32833">
        <ele>1480</ele>
        <time>2019-05-22T10:04:45Z</time>
      </trkpt>
      <trkpt lat="46.6098" lon="6.32812">
        <ele>1482</ele>
        <time>2019-05-22T10:05:02Z</time>
      </trkpt>
      <trkpt lat="46.60974" lon="6.32801">
        <ele>1482</ele>
        <time>2019-05-22T10:05:13Z</time>
      </trkpt>
      <trkpt lat="46.60965" lon="6.32793">
        <ele>1483</ele>
        <time>2019-05-22T10:05:23Z</time>
      </trkpt>
      <trkpt lat="46.60952" lon="6.32779">
        <ele>1483</ele>
        <time>2019-05-22T10:05:35Z</time>
      </trkpt>
      <trkpt lat="46.60949" lon="6.32774">
        <ele>1483</ele>
        <time>2019-05-22T10:05:40Z</time>
      </trkpt>
      <trkpt lat="46.60941" lon="6.32754">
        <ele>1484</ele>
        <time>2019-05-22T10:05:57Z</time>
      </trkpt>
      <trkpt lat="46.60939" lon="6.32747">
        <ele>1483</ele>
        <time>2019-05-22T10:06:03Z</time>
      </trkpt>
      <trkpt lat="46.60935" lon="6.3274">
        <ele>1483</ele>
        <time>2019-05-22T10:06:10Z</time>
      </trkpt>
      <trkpt lat="46.60931" lon="6.32735">
        <ele>1483</ele>
        <time>2019-05-22T10:06:14Z</time>
      </trkpt>
      <trkpt lat="46.60928" lon="6.3273">
        <ele>1483</ele>
        <time>2019-05-22T10:06:19Z</time>
      </trkpt>
      <trkpt lat="46.60925" lon="6.32724">
        <ele>1483</ele>
        <time>2019-05-22T10:06:24Z</time>
      </trkpt>
      <trkpt lat="46.60925" lon="6.32714">
        <ele>1484</ele>
        <time>2019-05-22T10:06:31Z</time>
      </trkpt>
      <trkpt lat="46.60921" lon="6.32707">
        <ele>1484</ele>
        <time>2019-05-22T10:06:38Z</time>
      </trkpt>
      <trkpt lat="46.60917" lon="6.32703">
        <ele>1484</ele>
        <time>2019-05-22T10:06:43Z</time>
      </trkpt>
      <trkpt lat="46.60909" lon="6.32693">
        <ele>1483</ele>
        <time>2019-05-22T10:06:53Z</time>
      </trkpt>
      <trkpt lat="46.60906" lon="6.32689">
        <ele>1483</ele>
        <time>2019-05-22T10:06:58Z</time>
      </trkpt>
      <trkpt lat="46.60898" lon="6.32677">
        <ele>1484</ele>
        <time>2019-05-22T10:07:10Z</time>
      </trkpt>
      <trkpt lat="46.60894" lon="6.32671">
        <ele>1484</ele>
        <time>2019-05-22T10:07:15Z</time>
      </trkpt>
      <trkpt lat="46.60891" lon="6.32666">
        <ele>1484</ele>
        <time>2019-05-22T10:07:20Z</time>
      </trkpt>
      <trkpt lat="46.60888" lon="6.3266">
        <ele>1485</ele>
        <time>2019-05-22T10:07:25Z</time>
      </trkpt>
      <trkpt lat="46.60884" lon="6.32653">
        <ele>1486</ele>
        <time>2019-05-22T10:07:32Z</time>
      </trkpt>
      <trkpt lat="46.60883" lon="6.32645">
        <ele>1486</ele>
        <time>2019-05-22T10:07:39Z</time>
      </trkpt>
      <trkpt lat="46.60873" lon="6.32627">
        <ele>1487</ele>
        <time>2019-05-22T10:07:52Z</time>
      </trkpt>
      <trkpt lat="46.60867" lon="6.32618">
        <ele>1489</ele>
        <time>2019-05-22T10:08:03Z</time>
      </trkpt>
      <trkpt lat="46.60862" lon="6.32607">
        <ele>1488</ele>
        <time>2019-05-22T10:08:12Z</time>
      </trkpt>
      <trkpt lat="46.60857" lon="6.32603">
        <ele>1489</ele>
        <time>2019-05-22T10:08:17Z</time>
      </trkpt>
      <trkpt lat="46.60851" lon="6.32602">
        <ele>1489</ele>
        <time>2019-05-22T10:08:24Z</time>
      </trkpt>
      <trkpt lat="46.60844" lon="6.32593">
        <ele>1491</ele>
        <time>2019-05-22T10:08:34Z</time>
      </trkpt>
      <trkpt lat="46.6084" lon="6.3259">
        <ele>1491</ele>
        <time>2019-05-22T10:08:39Z</time>
      </trkpt>
      <trkpt lat="46.60836" lon="6.32586">
        <ele>1491</ele>
        <time>2019-05-22T10:08:44Z</time>
      </trkpt>
      <trkpt lat="46.60833" lon="6.32579">
        <ele>1490</ele>
        <time>2019-05-22T10:08:49Z</time>
      </trkpt>
      <trkpt lat="46.60831" lon="6.32573">
        <ele>1491</ele>
        <time>2019-05-22T10:08:53Z</time>
      </trkpt>
      <trkpt lat="46.60819" lon="6.32552">
        <ele>1494</ele>
        <time>2019-05-22T10:09:18Z</time>
      </trkpt>
      <trkpt lat="46.60817" lon="6.32546">
        <ele>1494</ele>
        <time>2019-05-22T10:09:23Z</time>
      </trkpt>
      <trkpt lat="46.60814" lon="6.32539">
        <ele>1493</ele>
        <time>2019-05-22T10:09:31Z</time>
      </trkpt>
      <trkpt lat="46.60812" lon="6.32533">
        <ele>1494</ele>
        <time>2019-05-22T10:09:37Z</time>
      </trkpt>
      <trkpt lat="46.60804" lon="6.32522">
        <ele>1493</ele>
        <time>2019-05-22T10:09:49Z</time>
      </trkpt>
      <trkpt lat="46.60784" lon="6.32495">
        <ele>1494</ele>
        <time>2019-05-22T10:10:18Z</time>
      </trkpt>
      <trkpt lat="46.6078" lon="6.32492">
        <ele>1494</ele>
        <time>2019-05-22T10:10:22Z</time>
      </trkpt>
      <trkpt lat="46.60775" lon="6.32488">
        <ele>1494</ele>
        <time>2019-05-22T10:10:27Z</time>
      </trkpt>
      <trkpt lat="46.60769" lon="6.32474">
        <ele>1495</ele>
        <time>2019-05-22T10:10:41Z</time>
      </trkpt>
      <trkpt lat="46.60767" lon="6.32468">
        <ele>1496</ele>
        <time>2019-05-22T10:10:49Z</time>
      </trkpt>
      <trkpt lat="46.6076" lon="6.32449">
        <ele>1496</ele>
        <time>2019-05-22T10:11:08Z</time>
      </trkpt>
      <trkpt lat="46.60754" lon="6.32435">
        <ele>1496</ele>
        <time>2019-05-22T10:11:23Z</time>
      </trkpt>
      <trkpt lat="46.60752" lon="6.32428">
        <ele>1494</ele>
        <time>2019-05-22T10:11:29Z</time>
      </trkpt>
      <trkpt lat="46.60749" lon="6.32423">
        <ele>1494</ele>
        <time>2019-05-22T10:11:35Z</time>
      </trkpt>
      <trkpt lat="46.60746" lon="6.32418">
        <ele>1495</ele>
        <time>2019-05-22T10:11:39Z</time>
      </trkpt>
      <trkpt lat="46.60742" lon="6.32413">
        <ele>1495</ele>
        <time>2019-05-22T10:11:43Z</time>
      </trkpt>
      <trkpt lat="46.60738" lon="6.32407">
        <ele>1495</ele>
        <time>2019-05-22T10:11:51Z</time>
      </trkpt>
      <trkpt lat="46.60734" lon="6.32402">
        <ele>1496</ele>
        <time>2019-05-22T10:11:57Z</time>
      </trkpt>
      <trkpt lat="46.6073" lon="6.32398">
        <ele>1496</ele>
        <time>2019-05-22T10:12:03Z</time>
      </trkpt>
      <trkpt lat="46.60731" lon="6.32391">
        <ele>1497</ele>
        <time>2019-05-22T10:12:56Z</time>
      </trkpt>
      <trkpt lat="46.60725" lon="6.32381">
        <ele>1498</ele>
        <time>2019-05-22T10:13:08Z</time>
      </trkpt>
      <trkpt lat="46.60715" lon="6.32368">
        <ele>1500</ele>
        <time>2019-05-22T10:13:24Z</time>
      </trkpt>
      <trkpt lat="46.60712" lon="6.3236">
        <ele>1502</ele>
        <time>2019-05-22T10:14:00Z</time>
      </trkpt>
      <trkpt lat="46.60708" lon="6.32358">
        <ele>1502</ele>
        <time>2019-05-22T10:14:12Z</time>
      </trkpt>
      <trkpt lat="46.60705" lon="6.32353">
        <ele>1503</ele>
        <time>2019-05-22T10:14:17Z</time>
      </trkpt>
      <trkpt lat="46.60698" lon="6.32348">
        <ele>1504</ele>
        <time>2019-05-22T10:14:28Z</time>
      </trkpt>
      <trkpt lat="46.60692" lon="6.32342">
        <ele>1505</ele>
        <time>2019-05-22T10:14:40Z</time>
      </trkpt>
      <trkpt lat="46.60685" lon="6.32338">
        <ele>1506</ele>
        <time>2019-05-22T10:14:52Z</time>
      </trkpt>
      <trkpt lat="46.60679" lon="6.32331">
        <ele>1508</ele>
        <time>2019-05-22T10:15:16Z</time>
      </trkpt>
      <trkpt lat="46.60674" lon="6.32326">
        <ele>1506</ele>
        <time>2019-05-22T10:15:28Z</time>
      </trkpt>
      <trkpt lat="46.6067" lon="6.32319">
        <ele>1513</ele>
        <time>2019-05-22T10:16:39Z</time>
      </trkpt>
      <trkpt lat="46.60666" lon="6.32315">
        <ele>1513</ele>
        <time>2019-05-22T10:16:44Z</time>
      </trkpt>
      <trkpt lat="46.60662" lon="6.323">
        <ele>1516</ele>
        <time>2019-05-22T10:16:57Z</time>
      </trkpt>
      <trkpt lat="46.60659" lon="6.32291">
        <ele>1516</ele>
        <time>2019-05-22T10:17:05Z</time>
      </trkpt>
      <trkpt lat="46.60648" lon="6.32268">
        <ele>1519</ele>
        <time>2019-05-22T10:17:31Z</time>
      </trkpt>
      <trkpt lat="46.60644" lon="6.32263">
        <ele>1520</ele>
        <time>2019-05-22T10:17:37Z</time>
      </trkpt>
      <trkpt lat="46.60641" lon="6.32254">
        <ele>1519</ele>
        <time>2019-05-22T10:17:49Z</time>
      </trkpt>
      <trkpt lat="46.6064" lon="6.32247">
        <ele>1519</ele>
        <time>2019-05-22T10:17:55Z</time>
      </trkpt>
      <trkpt lat="46.6064" lon="6.3224">
        <ele>1519</ele>
        <time>2019-05-22T10:18:00Z</time>
      </trkpt>
      <trkpt lat="46.60638" lon="6.32233">
        <ele>1519</ele>
        <time>2019-05-22T10:18:05Z</time>
      </trkpt>
      <trkpt lat="46.60626" lon="6.32202">
        <ele>1519</ele>
        <time>2019-05-22T10:18:37Z</time>
      </trkpt>
      <trkpt lat="46.60621" lon="6.32193">
        <ele>1521</ele>
        <time>2019-05-22T10:18:49Z</time>
      </trkpt>
      <trkpt lat="46.60616" lon="6.32183">
        <ele>1522</ele>
        <time>2019-05-22T10:19:01Z</time>
      </trkpt>
      <trkpt lat="46.60612" lon="6.32174">
        <ele>1522</ele>
        <time>2019-05-22T10:19:12Z</time>
      </trkpt>
      <trkpt lat="46.60609" lon="6.32164">
        <ele>1524</ele>
        <time>2019-05-22T10:19:24Z</time>
      </trkpt>
      <trkpt lat="46.60605" lon="6.32154">
        <ele>1524</ele>
        <time>2019-05-22T10:19:36Z</time>
      </trkpt>
      <trkpt lat="46.60601" lon="6.32148">
        <ele>1524</ele>
        <time>2019-05-22T10:19:42Z</time>
      </trkpt>
      <trkpt lat="46.60598" lon="6.32143">
        <ele>1524</ele>
        <time>2019-05-22T10:19:47Z</time>
      </trkpt>
      <trkpt lat="46.60594" lon="6.32138">
        <ele>1524</ele>
        <time>2019-05-22T10:19:55Z</time>
      </trkpt>
      <trkpt lat="46.60591" lon="6.32131">
        <ele>1525</ele>
        <time>2019-05-22T10:20:07Z</time>
      </trkpt>
      <trkpt lat="46.60587" lon="6.32125">
        <ele>1525</ele>
        <time>2019-05-22T10:20:19Z</time>
      </trkpt>
      <trkpt lat="46.60585" lon="6.32119">
        <ele>1525</ele>
        <time>2019-05-22T10:20:25Z</time>
      </trkpt>
      <trkpt lat="46.60581" lon="6.32108">
        <ele>1526</ele>
        <time>2019-05-22T10:20:37Z</time>
      </trkpt>
      <trkpt lat="46.60578" lon="6.32102">
        <ele>1527</ele>
        <time>2019-05-22T10:20:45Z</time>
      </trkpt>
      <trkpt lat="46.60575" lon="6.32096">
        <ele>1527</ele>
        <time>2019-05-22T10:20:50Z</time>
      </trkpt>
      <trkpt lat="46.60569" lon="6.32091">
        <ele>1528</ele>
        <time>2019-05-22T10:20:58Z</time>
      </trkpt>
      <trkpt lat="46.60565" lon="6.32078">
        <ele>1530</ele>
        <time>2019-05-22T10:21:10Z</time>
      </trkpt>
      <trkpt lat="46.60557" lon="6.32065">
        <ele>1531</ele>
        <time>2019-05-22T10:21:30Z</time>
      </trkpt>
      <trkpt lat="46.60552" lon="6.32061">
        <ele>1531</ele>
        <time>2019-05-22T10:21:35Z</time>
      </trkpt>
      <trkpt lat="46.6055" lon="6.32056">
        <ele>1531</ele>
        <time>2019-05-22T10:21:39Z</time>
      </trkpt>
      <trkpt lat="46.60546" lon="6.3205">
        <ele>1531</ele>
        <time>2019-05-22T10:21:47Z</time>
      </trkpt>
      <trkpt lat="46.60542" lon="6.3204">
        <ele>1531</ele>
        <time>2019-05-22T10:21:59Z</time>
      </trkpt>
      <trkpt lat="46.60536" lon="6.32033">
        <ele>1532</ele>
        <time>2019-05-22T10:22:11Z</time>
      </trkpt>
      <trkpt lat="46.60532" lon="6.3203">
        <ele>1533</ele>
        <time>2019-05-22T10:22:17Z</time>
      </trkpt>
      <trkpt lat="46.60526" lon="6.3202">
        <ele>1533</ele>
        <time>2019-05-22T10:22:32Z</time>
      </trkpt>
      <trkpt lat="46.6052" lon="6.32014">
        <ele>1535</ele>
        <time>2019-05-22T10:22:41Z</time>
      </trkpt>
      <trkpt lat="46.60513" lon="6.32011">
        <ele>1535</ele>
        <time>2019-05-22T10:22:53Z</time>
      </trkpt>
      <trkpt lat="46.60509" lon="6.32004">
        <ele>1536</ele>
        <time>2019-05-22T10:23:05Z</time>
      </trkpt>
      <trkpt lat="46.60502" lon="6.31999">
        <ele>1537</ele>
        <time>2019-05-22T10:23:17Z</time>
      </trkpt>
      <trkpt lat="46.60496" lon="6.31996">
        <ele>1536</ele>
        <time>2019-05-22T10:23:29Z</time>
      </trkpt>
      <trkpt lat="46.6049" lon="6.31992">
        <ele>1538</ele>
        <time>2019-05-22T10:23:41Z</time>
      </trkpt>
      <trkpt lat="46.60484" lon="6.31987">
        <ele>1540</ele>
        <time>2019-05-22T10:23:53Z</time>
      </trkpt>
      <trkpt lat="46.60478" lon="6.31979">
        <ele>1541</ele>
        <time>2019-05-22T10:24:05Z</time>
      </trkpt>
      <trkpt lat="46.60473" lon="6.31976">
        <ele>1543</ele>
        <time>2019-05-22T10:24:17Z</time>
      </trkpt>
      <trkpt lat="46.60469" lon="6.31974">
        <ele>1543</ele>
        <time>2019-05-22T10:24:35Z</time>
      </trkpt>
      <trkpt lat="46.60463" lon="6.31972">
        <ele>1546</ele>
        <time>2019-05-22T10:24:53Z</time>
      </trkpt>
      <trkpt lat="46.60457" lon="6.31972">
        <ele>1551</ele>
        <time>2019-05-22T10:27:22Z</time>
      </trkpt>
      <trkpt lat="46.60452" lon="6.31973">
        <ele>1551</ele>
        <time>2019-05-22T10:27:34Z</time>
      </trkpt>
      <trkpt lat="46.60454" lon="6.31972">
        <ele>1553</ele>
        <time>2019-05-22T10:28:28Z</time>
      </trkpt>
      <trkpt lat="46.60466" lon="6.31971">
        <ele>1555</ele>
        <time>2019-05-22T10:28:42Z</time>
      </trkpt>
      <trkpt lat="46.60459" lon="6.31965">
        <ele>1554</ele>
        <time>2019-05-22T10:31:09Z</time>
      </trkpt>
      <trkpt lat="46.60435" lon="6.3194">
        <ele>1552</ele>
        <time>2019-05-22T10:31:39Z</time>
      </trkpt>
      <trkpt lat="46.60431" lon="6.31935">
        <ele>1552</ele>
        <time>2019-05-22T10:31:44Z</time>
      </trkpt>
      <trkpt lat="46.60426" lon="6.31929">
        <ele>1551</ele>
        <time>2019-05-22T10:31:51Z</time>
      </trkpt>
      <trkpt lat="46.60422" lon="6.31923">
        <ele>1551</ele>
        <time>2019-05-22T10:31:56Z</time>
      </trkpt>
      <trkpt lat="46.60419" lon="6.31918">
        <ele>1550</ele>
        <time>2019-05-22T10:32:00Z</time>
      </trkpt>
      <trkpt lat="46.60413" lon="6.31907">
        <ele>1550</ele>
        <time>2019-05-22T10:32:09Z</time>
      </trkpt>
      <trkpt lat="46.60407" lon="6.31901">
        <ele>1551</ele>
        <time>2019-05-22T10:32:16Z</time>
      </trkpt>
      <trkpt lat="46.60404" lon="6.31895">
        <ele>1550</ele>
        <time>2019-05-22T10:32:21Z</time>
      </trkpt>
      <trkpt lat="46.60389" lon="6.31876">
        <ele>1551</ele>
        <time>2019-05-22T10:32:40Z</time>
      </trkpt>
      <trkpt lat="46.60384" lon="6.31865">
        <ele>1551</ele>
        <time>2019-05-22T10:32:51Z</time>
      </trkpt>
      <trkpt lat="46.6038" lon="6.3186">
        <ele>1552</ele>
        <time>2019-05-22T10:32:56Z</time>
      </trkpt>
      <trkpt lat="46.60376" lon="6.31851">
        <ele>1552</ele>
        <time>2019-05-22T10:33:04Z</time>
      </trkpt>
      <trkpt lat="46.60374" lon="6.31847">
        <ele>1552</ele>
        <time>2019-05-22T10:33:08Z</time>
      </trkpt>
      <trkpt lat="46.6037" lon="6.31842">
        <ele>1551</ele>
        <time>2019-05-22T10:33:12Z</time>
      </trkpt>
      <trkpt lat="46.60367" lon="6.31836">
        <ele>1551</ele>
        <time>2019-05-22T10:33:17Z</time>
      </trkpt>
      <trkpt lat="46.60363" lon="6.31832">
        <ele>1552</ele>
        <time>2019-05-22T10:33:22Z</time>
      </trkpt>
      <trkpt lat="46.60359" lon="6.31827">
        <ele>1552</ele>
        <time>2019-05-22T10:33:26Z</time>
      </trkpt>
      <trkpt lat="46.60356" lon="6.31823">
        <ele>1551</ele>
        <time>2019-05-22T10:33:31Z</time>
      </trkpt>
      <trkpt lat="46.6035" lon="6.31811">
        <ele>1551</ele>
        <time>2019-05-22T10:33:41Z</time>
      </trkpt>
      <trkpt lat="46.6034" lon="6.31791">
        <ele>1549</ele>
        <time>2019-05-22T10:33:56Z</time>
      </trkpt>
      <trkpt lat="46.60332" lon="6.31774">
        <ele>1549</ele>
        <time>2019-05-22T10:34:10Z</time>
      </trkpt>
      <trkpt lat="46.6033" lon="6.31768">
        <ele>1549</ele>
        <time>2019-05-22T10:34:15Z</time>
      </trkpt>
      <trkpt lat="46.60321" lon="6.31749">
        <ele>1550</ele>
        <time>2019-05-22T10:34:30Z</time>
      </trkpt>
      <trkpt lat="46.60315" lon="6.31738">
        <ele>1549</ele>
        <time>2019-05-22T10:34:39Z</time>
      </trkpt>
      <trkpt lat="46.60312" lon="6.31732">
        <ele>1550</ele>
        <time>2019-05-22T10:34:44Z</time>
      </trkpt>
      <trkpt lat="46.60309" lon="6.31726">
        <ele>1549</ele>
        <time>2019-05-22T10:34:49Z</time>
      </trkpt>
      <trkpt lat="46.60304" lon="6.31718">
        <ele>1551</ele>
        <time>2019-05-22T10:34:57Z</time>
      </trkpt>
      <trkpt lat="46.60303" lon="6.31712">
        <ele>1551</ele>
        <time>2019-05-22T10:35:02Z</time>
      </trkpt>
      <trkpt lat="46.60301" lon="6.31704">
        <ele>1552</ele>
        <time>2019-05-22T10:35:07Z</time>
      </trkpt>
      <trkpt lat="46.60298" lon="6.31696">
        <ele>1552</ele>
        <time>2019-05-22T10:35:15Z</time>
      </trkpt>
      <trkpt lat="46.60296" lon="6.3169">
        <ele>1552</ele>
        <time>2019-05-22T10:35:19Z</time>
      </trkpt>
      <trkpt lat="46.60293" lon="6.31685">
        <ele>1553</ele>
        <time>2019-05-22T10:35:24Z</time>
      </trkpt>
      <trkpt lat="46.60291" lon="6.31679">
        <ele>1553</ele>
        <time>2019-05-22T10:35:29Z</time>
      </trkpt>
      <trkpt lat="46.60285" lon="6.31671">
        <ele>1554</ele>
        <time>2019-05-22T10:35:38Z</time>
      </trkpt>
      <trkpt lat="46.60282" lon="6.31666">
        <ele>1554</ele>
        <time>2019-05-22T10:35:43Z</time>
      </trkpt>
      <trkpt lat="46.60274" lon="6.31653">
        <ele>1555</ele>
        <time>2019-05-22T10:35:59Z</time>
      </trkpt>
      <trkpt lat="46.6027" lon="6.31649">
        <ele>1555</ele>
        <time>2019-05-22T10:36:05Z</time>
      </trkpt>
      <trkpt lat="46.60266" lon="6.31644">
        <ele>1555</ele>
        <time>2019-05-22T10:36:11Z</time>
      </trkpt>
      <trkpt lat="46.60262" lon="6.31637">
        <ele>1554</ele>
        <time>2019-05-22T10:36:19Z</time>
      </trkpt>
      <trkpt lat="46.60259" lon="6.31629">
        <ele>1554</ele>
        <time>2019-05-22T10:36:26Z</time>
      </trkpt>
      <trkpt lat="46.60254" lon="6.31613">
        <ele>1554</ele>
        <time>2019-05-22T10:36:39Z</time>
      </trkpt>
      <trkpt lat="46.60252" lon="6.31605">
        <ele>1554</ele>
        <time>2019-05-22T10:36:47Z</time>
      </trkpt>
      <trkpt lat="46.60247" lon="6.31602">
        <ele>1555</ele>
        <time>2019-05-22T10:36:53Z</time>
      </trkpt>
      <trkpt lat="46.60241" lon="6.31599">
        <ele>1556</ele>
        <time>2019-05-22T10:37:01Z</time>
      </trkpt>
      <trkpt lat="46.60236" lon="6.31595">
        <ele>1556</ele>
        <time>2019-05-22T10:37:07Z</time>
      </trkpt>
      <trkpt lat="46.6023" lon="6.31596">
        <ele>1556</ele>
        <time>2019-05-22T10:37:14Z</time>
      </trkpt>
      <trkpt lat="46.60225" lon="6.31597">
        <ele>1556</ele>
        <time>2019-05-22T10:37:19Z</time>
      </trkpt>
      <trkpt lat="46.6022" lon="6.31599">
        <ele>1557</ele>
        <time>2019-05-22T10:37:27Z</time>
      </trkpt>
      <trkpt lat="46.60222" lon="6.31604">
        <ele>1565</ele>
        <time>2019-05-22T10:41:08Z</time>
      </trkpt>
      <trkpt lat="46.60221" lon="6.31613">
        <ele>1563</ele>
        <time>2019-05-22T10:41:26Z</time>
      </trkpt>
      <trkpt lat="46.60222" lon="6.31619">
        <ele>1562</ele>
        <time>2019-05-22T10:41:31Z</time>
      </trkpt>
      <trkpt lat="46.60223" lon="6.31628">
        <ele>1564</ele>
        <time>2019-05-22T10:41:39Z</time>
      </trkpt>
      <trkpt lat="46.60224" lon="6.31634">
        <ele>1565</ele>
        <time>2019-05-22T10:41:45Z</time>
      </trkpt>
      <trkpt lat="46.60224" lon="6.31642">
        <ele>1565</ele>
        <time>2019-05-22T10:41:50Z</time>
      </trkpt>
      <trkpt lat="46.60223" lon="6.3165">
        <ele>1564</ele>
        <time>2019-05-22T10:41:54Z</time>
      </trkpt>
      <trkpt lat="46.60229" lon="6.31677">
        <ele>1563</ele>
        <time>2019-05-22T10:42:16Z</time>
      </trkpt>
      <trkpt lat="46.60231" lon="6.31686">
        <ele>1563</ele>
        <time>2019-05-22T10:42:24Z</time>
      </trkpt>
      <trkpt lat="46.60233" lon="6.31692">
        <ele>1563</ele>
        <time>2019-05-22T10:42:30Z</time>
      </trkpt>
      <trkpt lat="46.60235" lon="6.31706">
        <ele>1565</ele>
        <time>2019-05-22T10:42:42Z</time>
      </trkpt>
      <trkpt lat="46.60233" lon="6.31715">
        <ele>1565</ele>
        <time>2019-05-22T10:42:49Z</time>
      </trkpt>
      <trkpt lat="46.60236" lon="6.31722">
        <ele>1567</ele>
        <time>2019-05-22T10:42:57Z</time>
      </trkpt>
      <trkpt lat="46.60237" lon="6.31734">
        <ele>1567</ele>
        <time>2019-05-22T10:43:09Z</time>
      </trkpt>
      <trkpt lat="46.60243" lon="6.3176">
        <ele>1569</ele>
        <time>2019-05-22T10:43:33Z</time>
      </trkpt>
      <trkpt lat="46.60246" lon="6.31769">
        <ele>1569</ele>
        <time>2019-05-22T10:43:42Z</time>
      </trkpt>
      <trkpt lat="46.60249" lon="6.31781">
        <ele>1570</ele>
        <time>2019-05-22T10:43:53Z</time>
      </trkpt>
      <trkpt lat="46.60252" lon="6.31789">
        <ele>1570</ele>
        <time>2019-05-22T10:44:00Z</time>
      </trkpt>
      <trkpt lat="46.60257" lon="6.318">
        <ele>1571</ele>
        <time>2019-05-22T10:44:11Z</time>
      </trkpt>
      <trkpt lat="46.60259" lon="6.31812">
        <ele>1572</ele>
        <time>2019-05-22T10:44:22Z</time>
      </trkpt>
      <trkpt lat="46.60262" lon="6.31818">
        <ele>1573</ele>
        <time>2019-05-22T10:44:27Z</time>
      </trkpt>
      <trkpt lat="46.60266" lon="6.31822">
        <ele>1573</ele>
        <time>2019-05-22T10:44:32Z</time>
      </trkpt>
      <trkpt lat="46.60269" lon="6.31828">
        <ele>1573</ele>
        <time>2019-05-22T10:44:37Z</time>
      </trkpt>
      <trkpt lat="46.6027" lon="6.31836">
        <ele>1573</ele>
        <time>2019-05-22T10:44:42Z</time>
      </trkpt>
      <trkpt lat="46.60273" lon="6.31848">
        <ele>1574</ele>
        <time>2019-05-22T10:44:52Z</time>
      </trkpt>
      <trkpt lat="46.60282" lon="6.31858">
        <ele>1575</ele>
        <time>2019-05-22T10:45:05Z</time>
      </trkpt>
      <trkpt lat="46.6029" lon="6.31876">
        <ele>1576</ele>
        <time>2019-05-22T10:45:21Z</time>
      </trkpt>
      <trkpt lat="46.60298" lon="6.31886">
        <ele>1577</ele>
        <time>2019-05-22T10:45:35Z</time>
      </trkpt>
      <trkpt lat="46.603" lon="6.31894">
        <ele>1576</ele>
        <time>2019-05-22T10:45:41Z</time>
      </trkpt>
      <trkpt lat="46.60306" lon="6.31903">
        <ele>1577</ele>
        <time>2019-05-22T10:45:52Z</time>
      </trkpt>
      <trkpt lat="46.6031" lon="6.31908">
        <ele>1577</ele>
        <time>2019-05-22T10:45:58Z</time>
      </trkpt>
      <trkpt lat="46.60312" lon="6.31914">
        <ele>1578</ele>
        <time>2019-05-22T10:46:03Z</time>
      </trkpt>
      <trkpt lat="46.60315" lon="6.3192">
        <ele>1578</ele>
        <time>2019-05-22T10:46:08Z</time>
      </trkpt>
      <trkpt lat="46.60319" lon="6.31925">
        <ele>1578</ele>
        <time>2019-05-22T10:46:13Z</time>
      </trkpt>
      <trkpt lat="46.60324" lon="6.31927">
        <ele>1578</ele>
        <time>2019-05-22T10:46:17Z</time>
      </trkpt>
      <trkpt lat="46.60328" lon="6.31932">
        <ele>1578</ele>
        <time>2019-05-22T10:46:22Z</time>
      </trkpt>
      <trkpt lat="46.60344" lon="6.31962">
        <ele>1582</ele>
        <time>2019-05-22T10:46:52Z</time>
      </trkpt>
      <trkpt lat="46.60352" lon="6.3197">
        <ele>1581</ele>
        <time>2019-05-22T10:47:02Z</time>
      </trkpt>
      <trkpt lat="46.60355" lon="6.31977">
        <ele>1581</ele>
        <time>2019-05-22T10:47:10Z</time>
      </trkpt>
      <trkpt lat="46.60353" lon="6.31984">
        <ele>1584</ele>
        <time>2019-05-22T10:47:15Z</time>
      </trkpt>
      <trkpt lat="46.60348" lon="6.31986">
        <ele>1586</ele>
        <time>2019-05-22T10:47:19Z</time>
      </trkpt>
      <trkpt lat="46.60342" lon="6.31984">
        <ele>1589</ele>
        <time>2019-05-22T10:47:27Z</time>
      </trkpt>
      <trkpt lat="46.60331" lon="6.31977">
        <ele>1589</ele>
        <time>2019-05-22T10:47:45Z</time>
      </trkpt>
      <trkpt lat="46.60326" lon="6.31975">
        <ele>1589</ele>
        <time>2019-05-22T10:47:51Z</time>
      </trkpt>
      <trkpt lat="46.60312" lon="6.3197">
        <ele>1589</ele>
        <time>2019-05-22T10:48:08Z</time>
      </trkpt>
      <trkpt lat="46.60296" lon="6.31962">
        <ele>1591</ele>
        <time>2019-05-22T10:48:25Z</time>
      </trkpt>
      <trkpt lat="46.60286" lon="6.31954">
        <ele>1594</ele>
        <time>2019-05-22T10:48:37Z</time>
      </trkpt>
      <trkpt lat="46.60282" lon="6.3195">
        <ele>1595</ele>
        <time>2019-05-22T10:48:42Z</time>
      </trkpt>
      <trkpt lat="46.60277" lon="6.31948">
        <ele>1595</ele>
        <time>2019-05-22T10:48:47Z</time>
      </trkpt>
      <trkpt lat="46.60266" lon="6.31945">
        <ele>1596</ele>
        <time>2019-05-22T10:48:59Z</time>
      </trkpt>
      <trkpt lat="46.60262" lon="6.31945">
        <ele>1597</ele>
        <time>2019-05-22T10:49:04Z</time>
      </trkpt>
      <trkpt lat="46.60232" lon="6.31955">
        <ele>1602</ele>
        <time>2019-05-22T10:49:38Z</time>
      </trkpt>
      <trkpt lat="46.60215" lon="6.31957">
        <ele>1605</ele>
        <time>2019-05-22T10:49:57Z</time>
      </trkpt>
      <trkpt lat="46.60207" lon="6.3196">
        <ele>1606</ele>
        <time>2019-05-22T10:50:07Z</time>
      </trkpt>
      <trkpt lat="46.60196" lon="6.31961">
        <ele>1606</ele>
        <time>2019-05-22T10:50:17Z</time>
      </trkpt>
      <trkpt lat="46.6019" lon="6.31958">
        <ele>1607</ele>
        <time>2019-05-22T10:50:24Z</time>
      </trkpt>
      <trkpt lat="46.60181" lon="6.31953">
        <ele>1607</ele>
        <time>2019-05-22T10:50:33Z</time>
      </trkpt>
      <trkpt lat="46.60176" lon="6.3195">
        <ele>1608</ele>
        <time>2019-05-22T10:50:37Z</time>
      </trkpt>
      <trkpt lat="46.60162" lon="6.31941">
        <ele>1608</ele>
        <time>2019-05-22T10:50:51Z</time>
      </trkpt>
      <trkpt lat="46.60157" lon="6.3194">
        <ele>1608</ele>
        <time>2019-05-22T10:50:56Z</time>
      </trkpt>
      <trkpt lat="46.60151" lon="6.3194">
        <ele>1609</ele>
        <time>2019-05-22T10:51:01Z</time>
      </trkpt>
      <trkpt lat="46.60146" lon="6.31942">
        <ele>1609</ele>
        <time>2019-05-22T10:51:06Z</time>
      </trkpt>
      <trkpt lat="46.60135" lon="6.31944">
        <ele>1608</ele>
        <time>2019-05-22T10:51:16Z</time>
      </trkpt>
      <trkpt lat="46.60131" lon="6.31944">
        <ele>1608</ele>
        <time>2019-05-22T10:51:20Z</time>
      </trkpt>
      <trkpt lat="46.60125" lon="6.31943">
        <ele>1608</ele>
        <time>2019-05-22T10:51:25Z</time>
      </trkpt>
      <trkpt lat="46.6012" lon="6.31942">
        <ele>1609</ele>
        <time>2019-05-22T10:51:29Z</time>
      </trkpt>
      <trkpt lat="46.6009" lon="6.31915">
        <ele>1610</ele>
        <time>2019-05-22T10:52:00Z</time>
      </trkpt>
      <trkpt lat="46.60086" lon="6.31915">
        <ele>1609</ele>
        <time>2019-05-22T10:52:04Z</time>
      </trkpt>
      <trkpt lat="46.60081" lon="6.31915">
        <ele>1610</ele>
        <time>2019-05-22T10:52:09Z</time>
      </trkpt>
      <trkpt lat="46.60067" lon="6.31923">
        <ele>1611</ele>
        <time>2019-05-22T10:52:23Z</time>
      </trkpt>
      <trkpt lat="46.60057" lon="6.31925">
        <ele>1611</ele>
        <time>2019-05-22T10:52:32Z</time>
      </trkpt>
      <trkpt lat="46.60052" lon="6.31926">
        <ele>1611</ele>
        <time>2019-05-22T10:52:37Z</time>
      </trkpt>
      <trkpt lat="46.60047" lon="6.31928">
        <ele>1611</ele>
        <time>2019-05-22T10:52:42Z</time>
      </trkpt>
      <trkpt lat="46.60039" lon="6.31924">
        <ele>1611</ele>
        <time>2019-05-22T10:52:52Z</time>
      </trkpt>
      <trkpt lat="46.60032" lon="6.31924">
        <ele>1611</ele>
        <time>2019-05-22T10:53:00Z</time>
      </trkpt>
      <trkpt lat="46.60017" lon="6.31924">
        <ele>1611</ele>
        <time>2019-05-22T10:53:16Z</time>
      </trkpt>
      <trkpt lat="46.60004" lon="6.31917">
        <ele>1613</ele>
        <time>2019-05-22T10:53:29Z</time>
      </trkpt>
      <trkpt lat="46.59995" lon="6.31909">
        <ele>1613</ele>
        <time>2019-05-22T10:53:38Z</time>
      </trkpt>
      <trkpt lat="46.59988" lon="6.31898">
        <ele>1615</ele>
        <time>2019-05-22T10:53:47Z</time>
      </trkpt>
      <trkpt lat="46.59971" lon="6.31872">
        <ele>1615</ele>
        <time>2019-05-22T10:54:12Z</time>
      </trkpt>
      <trkpt lat="46.59956" lon="6.3185">
        <ele>1613</ele>
        <time>2019-05-22T10:54:32Z</time>
      </trkpt>
      <trkpt lat="46.59952" lon="6.31845">
        <ele>1613</ele>
        <time>2019-05-22T10:54:36Z</time>
      </trkpt>
      <trkpt lat="46.59948" lon="6.3184">
        <ele>1614</ele>
        <time>2019-05-22T10:54:41Z</time>
      </trkpt>
      <trkpt lat="46.59944" lon="6.31835">
        <ele>1613</ele>
        <time>2019-05-22T10:54:46Z</time>
      </trkpt>
      <trkpt lat="46.59934" lon="6.31821">
        <ele>1611</ele>
        <time>2019-05-22T10:55:01Z</time>
      </trkpt>
      <trkpt lat="46.59926" lon="6.31813">
        <ele>1611</ele>
        <time>2019-05-22T10:55:11Z</time>
      </trkpt>
      <trkpt lat="46.59919" lon="6.31807">
        <ele>1612</ele>
        <time>2019-05-22T10:55:19Z</time>
      </trkpt>
      <trkpt lat="46.59914" lon="6.31804">
        <ele>1612</ele>
        <time>2019-05-22T10:55:24Z</time>
      </trkpt>
      <trkpt lat="46.59904" lon="6.31786">
        <ele>1611</ele>
        <time>2019-05-22T10:55:39Z</time>
      </trkpt>
      <trkpt lat="46.59902" lon="6.3178">
        <ele>1612</ele>
        <time>2019-05-22T10:55:43Z</time>
      </trkpt>
      <trkpt lat="46.59897" lon="6.31767">
        <ele>1612</ele>
        <time>2019-05-22T10:55:51Z</time>
      </trkpt>
      <trkpt lat="46.59895" lon="6.3176">
        <ele>1612</ele>
        <time>2019-05-22T10:55:56Z</time>
      </trkpt>
      <trkpt lat="46.59887" lon="6.3175">
        <ele>1614</ele>
        <time>2019-05-22T10:56:05Z</time>
      </trkpt>
      <trkpt lat="46.59884" lon="6.31744">
        <ele>1615</ele>
        <time>2019-05-22T10:56:09Z</time>
      </trkpt>
      <trkpt lat="46.59879" lon="6.31712">
        <ele>1619</ele>
        <time>2019-05-22T10:56:34Z</time>
      </trkpt>
      <trkpt lat="46.59868" lon="6.31689">
        <ele>1620</ele>
        <time>2019-05-22T10:56:53Z</time>
      </trkpt>
      <trkpt lat="46.59865" lon="6.31681">
        <ele>1619</ele>
        <time>2019-05-22T10:57:00Z</time>
      </trkpt>
      <trkpt lat="46.59864" lon="6.31674">
        <ele>1620</ele>
        <time>2019-05-22T10:57:05Z</time>
      </trkpt>
      <trkpt lat="46.59863" lon="6.31667">
        <ele>1620</ele>
        <time>2019-05-22T10:57:10Z</time>
      </trkpt>
      <trkpt lat="46.59864" lon="6.3166">
        <ele>1620</ele>
        <time>2019-05-22T10:57:14Z</time>
      </trkpt>
      <trkpt lat="46.59865" lon="6.31653">
        <ele>1621</ele>
        <time>2019-05-22T10:57:18Z</time>
      </trkpt>
      <trkpt lat="46.59864" lon="6.31646">
        <ele>1620</ele>
        <time>2019-05-22T10:57:22Z</time>
      </trkpt>
      <trkpt lat="46.59861" lon="6.3164">
        <ele>1620</ele>
        <time>2019-05-22T10:57:27Z</time>
      </trkpt>
      <trkpt lat="46.59855" lon="6.31628">
        <ele>1620</ele>
        <time>2019-05-22T10:57:36Z</time>
      </trkpt>
      <trkpt lat="46.59845" lon="6.31608">
        <ele>1621</ele>
        <time>2019-05-22T10:57:53Z</time>
      </trkpt>
      <trkpt lat="46.59843" lon="6.31602">
        <ele>1621</ele>
        <time>2019-05-22T10:57:57Z</time>
      </trkpt>
      <trkpt lat="46.59842" lon="6.31595">
        <ele>1621</ele>
        <time>2019-05-22T10:58:01Z</time>
      </trkpt>
      <trkpt lat="46.59841" lon="6.31588">
        <ele>1621</ele>
        <time>2019-05-22T10:58:05Z</time>
      </trkpt>
      <trkpt lat="46.59841" lon="6.31574">
        <ele>1622</ele>
        <time>2019-05-22T10:58:14Z</time>
      </trkpt>
      <trkpt lat="46.59842" lon="6.31566">
        <ele>1622</ele>
        <time>2019-05-22T10:58:19Z</time>
      </trkpt>
      <trkpt lat="46.59842" lon="6.31558">
        <ele>1623</ele>
        <time>2019-05-22T10:58:24Z</time>
      </trkpt>
      <trkpt lat="46.5984" lon="6.31544">
        <ele>1622</ele>
        <time>2019-05-22T10:58:33Z</time>
      </trkpt>
      <trkpt lat="46.59837" lon="6.31538">
        <ele>1623</ele>
        <time>2019-05-22T10:58:37Z</time>
      </trkpt>
      <trkpt lat="46.59833" lon="6.31533">
        <ele>1623</ele>
        <time>2019-05-22T10:58:42Z</time>
      </trkpt>
      <trkpt lat="46.5982" lon="6.31512">
        <ele>1624</ele>
        <time>2019-05-22T10:59:00Z</time>
      </trkpt>
      <trkpt lat="46.59807" lon="6.31494">
        <ele>1625</ele>
        <time>2019-05-22T10:59:18Z</time>
      </trkpt>
      <trkpt lat="46.59804" lon="6.31489">
        <ele>1625</ele>
        <time>2019-05-22T10:59:22Z</time>
      </trkpt>
      <trkpt lat="46.59801" lon="6.31484">
        <ele>1626</ele>
        <time>2019-05-22T10:59:26Z</time>
      </trkpt>
      <trkpt lat="46.59799" lon="6.31477">
        <ele>1626</ele>
        <time>2019-05-22T10:59:31Z</time>
      </trkpt>
      <trkpt lat="46.59798" lon="6.3147">
        <ele>1626</ele>
        <time>2019-05-22T10:59:36Z</time>
      </trkpt>
      <trkpt lat="46.59796" lon="6.31455">
        <ele>1626</ele>
        <time>2019-05-22T10:59:45Z</time>
      </trkpt>
      <trkpt lat="46.59796" lon="6.31448">
        <ele>1627</ele>
        <time>2019-05-22T10:59:50Z</time>
      </trkpt>
      <trkpt lat="46.59796" lon="6.31438">
        <ele>1627</ele>
        <time>2019-05-22T11:00:04Z</time>
      </trkpt>
      <trkpt lat="46.59794" lon="6.31423">
        <ele>1628</ele>
        <time>2019-05-22T11:00:15Z</time>
      </trkpt>
      <trkpt lat="46.59793" lon="6.31413">
        <ele>1629</ele>
        <time>2019-05-22T11:00:23Z</time>
      </trkpt>
      <trkpt lat="46.59791" lon="6.31405">
        <ele>1630</ele>
        <time>2019-05-22T11:00:30Z</time>
      </trkpt>
      <trkpt lat="46.59777" lon="6.31384">
        <ele>1631</ele>
        <time>2019-05-22T11:00:53Z</time>
      </trkpt>
      <trkpt lat="46.59773" lon="6.31379">
        <ele>1631</ele>
        <time>2019-05-22T11:01:01Z</time>
      </trkpt>
      <trkpt lat="46.59769" lon="6.31373">
        <ele>1632</ele>
        <time>2019-05-22T11:01:06Z</time>
      </trkpt>
      <trkpt lat="46.59764" lon="6.31363">
        <ele>1631</ele>
        <time>2019-05-22T11:01:15Z</time>
      </trkpt>
      <trkpt lat="46.59755" lon="6.31351">
        <ele>1633</ele>
        <time>2019-05-22T11:01:28Z</time>
      </trkpt>
      <trkpt lat="46.59752" lon="6.31345">
        <ele>1633</ele>
        <time>2019-05-22T11:01:33Z</time>
      </trkpt>
      <trkpt lat="46.59749" lon="6.31338">
        <ele>1633</ele>
        <time>2019-05-22T11:01:41Z</time>
      </trkpt>
      <trkpt lat="46.59741" lon="6.31333">
        <ele>1634</ele>
        <time>2019-05-22T11:01:53Z</time>
      </trkpt>
      <trkpt lat="46.59738" lon="6.31327">
        <ele>1636</ele>
        <time>2019-05-22T11:01:59Z</time>
      </trkpt>
      <trkpt lat="46.59735" lon="6.31322">
        <ele>1637</ele>
        <time>2019-05-22T11:02:03Z</time>
      </trkpt>
      <trkpt lat="46.59719" lon="6.31318">
        <ele>1638</ele>
        <time>2019-05-22T11:02:23Z</time>
      </trkpt>
      <trkpt lat="46.59704" lon="6.3131">
        <ele>1640</ele>
        <time>2019-05-22T11:02:40Z</time>
      </trkpt>
      <trkpt lat="46.59693" lon="6.31304">
        <ele>1641</ele>
        <time>2019-05-22T11:02:52Z</time>
      </trkpt>
      <trkpt lat="46.59686" lon="6.31301">
        <ele>1640</ele>
        <time>2019-05-22T11:03:00Z</time>
      </trkpt>
      <trkpt lat="46.59679" lon="6.313">
        <ele>1641</ele>
        <time>2019-05-22T11:03:07Z</time>
      </trkpt>
      <trkpt lat="46.59674" lon="6.31299">
        <ele>1640</ele>
        <time>2019-05-22T11:03:12Z</time>
      </trkpt>
      <trkpt lat="46.5967" lon="6.31295">
        <ele>1640</ele>
        <time>2019-05-22T11:03:17Z</time>
      </trkpt>
      <trkpt lat="46.59659" lon="6.31275">
        <ele>1640</ele>
        <time>2019-05-22T11:03:34Z</time>
      </trkpt>
      <trkpt lat="46.59656" lon="6.3127">
        <ele>1641</ele>
        <time>2019-05-22T11:03:38Z</time>
      </trkpt>
      <trkpt lat="46.59651" lon="6.31267">
        <ele>1641</ele>
        <time>2019-05-22T11:03:43Z</time>
      </trkpt>
      <trkpt lat="46.59647" lon="6.31263">
        <ele>1641</ele>
        <time>2019-05-22T11:03:48Z</time>
      </trkpt>
      <trkpt lat="46.59644" lon="6.31258">
        <ele>1641</ele>
        <time>2019-05-22T11:03:56Z</time>
      </trkpt>
      <trkpt lat="46.59634" lon="6.31247">
        <ele>1646</ele>
        <time>2019-05-22T11:04:14Z</time>
      </trkpt>
      <trkpt lat="46.59629" lon="6.31244">
        <ele>1645</ele>
        <time>2019-05-22T11:04:20Z</time>
      </trkpt>
      <trkpt lat="46.59619" lon="6.31238">
        <ele>1650</ele>
        <time>2019-05-22T11:04:44Z</time>
      </trkpt>
      <trkpt lat="46.59615" lon="6.31226">
        <ele>1657</ele>
        <time>2019-05-22T11:05:38Z</time>
      </trkpt>
      <trkpt lat="46.59613" lon="6.31217">
        <ele>1657</ele>
        <time>2019-05-22T11:05:50Z</time>
      </trkpt>
      <trkpt lat="46.5961" lon="6.3121">
        <ele>1659</ele>
        <time>2019-05-22T11:05:55Z</time>
      </trkpt>
      <trkpt lat="46.59604" lon="6.312">
        <ele>1660</ele>
        <time>2019-05-22T11:06:15Z</time>
      </trkpt>
      <trkpt lat="46.59594" lon="6.31188">
        <ele>1659</ele>
        <time>2019-05-22T11:06:40Z</time>
      </trkpt>
      <trkpt lat="46.59589" lon="6.31181">
        <ele>1660</ele>
        <time>2019-05-22T11:06:47Z</time>
      </trkpt>
      <trkpt lat="46.59583" lon="6.31176">
        <ele>1659</ele>
        <time>2019-05-22T11:06:54Z</time>
      </trkpt>
      <trkpt lat="46.59581" lon="6.3117">
        <ele>1660</ele>
        <time>2019-05-22T11:06:59Z</time>
      </trkpt>
      <trkpt lat="46.59577" lon="6.31165">
        <ele>1660</ele>
        <time>2019-05-22T11:07:04Z</time>
      </trkpt>
      <trkpt lat="46.59573" lon="6.31159">
        <ele>1661</ele>
        <time>2019-05-22T11:07:09Z</time>
      </trkpt>
      <trkpt lat="46.59568" lon="6.31152">
        <ele>1662</ele>
        <time>2019-05-22T11:07:18Z</time>
      </trkpt>
      <trkpt lat="46.59561" lon="6.31146">
        <ele>1663</ele>
        <time>2019-05-22T11:07:31Z</time>
      </trkpt>
      <trkpt lat="46.59555" lon="6.31139">
        <ele>1666</ele>
        <time>2019-05-22T11:07:43Z</time>
      </trkpt>
      <trkpt lat="46.59549" lon="6.31133">
        <ele>1666</ele>
        <time>2019-05-22T11:07:55Z</time>
      </trkpt>
      <trkpt lat="46.59546" lon="6.31127">
        <ele>1667</ele>
        <time>2019-05-22T11:08:14Z</time>
      </trkpt>
      <trkpt lat="46.59538" lon="6.31118">
        <ele>1666</ele>
        <time>2019-05-22T11:08:26Z</time>
      </trkpt>
      <trkpt lat="46.59519" lon="6.31091">
        <ele>1664</ele>
        <time>2019-05-22T11:08:58Z</time>
      </trkpt>
      <trkpt lat="46.59514" lon="6.31085">
        <ele>1664</ele>
        <time>2019-05-22T11:09:06Z</time>
      </trkpt>
      <trkpt lat="46.59511" lon="6.3108">
        <ele>1666</ele>
        <time>2019-05-22T11:09:12Z</time>
      </trkpt>
      <trkpt lat="46.59506" lon="6.31075">
        <ele>1665</ele>
        <time>2019-05-22T11:09:24Z</time>
      </trkpt>
      <trkpt lat="46.59503" lon="6.31065">
        <ele>1666</ele>
        <time>2019-05-22T11:09:36Z</time>
      </trkpt>
      <trkpt lat="46.59489" lon="6.31043">
        <ele>1669</ele>
        <time>2019-05-22T11:10:05Z</time>
      </trkpt>
      <trkpt lat="46.59485" lon="6.31034">
        <ele>1672</ele>
        <time>2019-05-22T11:10:17Z</time>
      </trkpt>
      <trkpt lat="46.59483" lon="6.31026">
        <ele>1673</ele>
        <time>2019-05-22T11:10:29Z</time>
      </trkpt>
      <trkpt lat="46.59483" lon="6.3102">
        <ele>1675</ele>
        <time>2019-05-22T11:10:41Z</time>
      </trkpt>
      <trkpt lat="46.59478" lon="6.31012">
        <ele>1677</ele>
        <time>2019-05-22T11:11:41Z</time>
      </trkpt>
      <trkpt lat="46.59474" lon="6.31007">
        <ele>1679</ele>
        <time>2019-05-22T11:12:29Z</time>
      </trkpt>
      <trkpt lat="46.59478" lon="6.31003">
        <ele>1682</ele>
        <time>2019-05-22T11:12:47Z</time>
      </trkpt>
      <trkpt lat="46.59478" lon="6.31006">
        <ele>1677</ele>
        <time>2019-05-22T11:15:24Z</time>
      </trkpt>
      <trkpt lat="46.5948" lon="6.31008">
        <ele>1680</ele>
        <time>2019-05-22T11:21:26Z</time>
      </trkpt>
      <trkpt lat="46.59485" lon="6.31013">
        <ele>1679</ele>
        <time>2019-05-22T11:22:20Z</time>
      </trkpt>
      <trkpt lat="46.59495" lon="6.31026">
        <ele>1676</ele>
        <time>2019-05-22T11:22:46Z</time>
      </trkpt>
      <trkpt lat="46.595" lon="6.31033">
        <ele>1676</ele>
        <time>2019-05-22T11:22:59Z</time>
      </trkpt>
      <trkpt lat="46.59497" lon="6.31044">
        <ele>1674</ele>
        <time>2019-05-22T11:23:11Z</time>
      </trkpt>
      <trkpt lat="46.59494" lon="6.31055">
        <ele>1673</ele>
        <time>2019-05-22T11:23:23Z</time>
      </trkpt>
      <trkpt lat="46.595" lon="6.31062">
        <ele>1671</ele>
        <time>2019-05-22T11:23:35Z</time>
      </trkpt>
      <trkpt lat="46.59503" lon="6.31068">
        <ele>1670</ele>
        <time>2019-05-22T11:23:40Z</time>
      </trkpt>
      <trkpt lat="46.59505" lon="6.31077">
        <ele>1670</ele>
        <time>2019-05-22T11:23:48Z</time>
      </trkpt>
      <trkpt lat="46.59518" lon="6.31085">
        <ele>1668</ele>
        <time>2019-05-22T11:24:02Z</time>
      </trkpt>
      <trkpt lat="46.59524" lon="6.31096">
        <ele>1667</ele>
        <time>2019-05-22T11:24:10Z</time>
      </trkpt>
      <trkpt lat="46.59527" lon="6.31102">
        <ele>1666</ele>
        <time>2019-05-22T11:24:15Z</time>
      </trkpt>
      <trkpt lat="46.59539" lon="6.31115">
        <ele>1666</ele>
        <time>2019-05-22T11:24:28Z</time>
      </trkpt>
      <trkpt lat="46.59543" lon="6.31121">
        <ele>1666</ele>
        <time>2019-05-22T11:24:33Z</time>
      </trkpt>
      <trkpt lat="46.59548" lon="6.31126">
        <ele>1666</ele>
        <time>2019-05-22T11:24:40Z</time>
      </trkpt>
      <trkpt lat="46.59551" lon="6.31131">
        <ele>1665</ele>
        <time>2019-05-22T11:24:44Z</time>
      </trkpt>
      <trkpt lat="46.59556" lon="6.31138">
        <ele>1663</ele>
        <time>2019-05-22T11:24:52Z</time>
      </trkpt>
      <trkpt lat="46.59559" lon="6.31143">
        <ele>1664</ele>
        <time>2019-05-22T11:24:58Z</time>
      </trkpt>
      <trkpt lat="46.59584" lon="6.31177">
        <ele>1661</ele>
        <time>2019-05-22T11:25:35Z</time>
      </trkpt>
      <trkpt lat="46.59592" lon="6.31186">
        <ele>1660</ele>
        <time>2019-05-22T11:25:43Z</time>
      </trkpt>
      <trkpt lat="46.59595" lon="6.31192">
        <ele>1659</ele>
        <time>2019-05-22T11:25:48Z</time>
      </trkpt>
      <trkpt lat="46.59605" lon="6.31208">
        <ele>1659</ele>
        <time>2019-05-22T11:26:02Z</time>
      </trkpt>
      <trkpt lat="46.59613" lon="6.31218">
        <ele>1658</ele>
        <time>2019-05-22T11:26:12Z</time>
      </trkpt>
      <trkpt lat="46.59613" lon="6.31227">
        <ele>1657</ele>
        <time>2019-05-22T11:26:20Z</time>
      </trkpt>
      <trkpt lat="46.59615" lon="6.31233">
        <ele>1655</ele>
        <time>2019-05-22T11:26:25Z</time>
      </trkpt>
      <trkpt lat="46.5962" lon="6.31241">
        <ele>1654</ele>
        <time>2019-05-22T11:26:33Z</time>
      </trkpt>
      <trkpt lat="46.59646" lon="6.31261">
        <ele>1649</ele>
        <time>2019-05-22T11:27:05Z</time>
      </trkpt>
      <trkpt lat="46.59664" lon="6.31283">
        <ele>1646</ele>
        <time>2019-05-22T11:27:26Z</time>
      </trkpt>
      <trkpt lat="46.59671" lon="6.31292">
        <ele>1646</ele>
        <time>2019-05-22T11:27:34Z</time>
      </trkpt>
      <trkpt lat="46.59676" lon="6.31296">
        <ele>1645</ele>
        <time>2019-05-22T11:27:38Z</time>
      </trkpt>
      <trkpt lat="46.59686" lon="6.313">
        <ele>1644</ele>
        <time>2019-05-22T11:27:46Z</time>
      </trkpt>
      <trkpt lat="46.59692" lon="6.31301">
        <ele>1643</ele>
        <time>2019-05-22T11:27:51Z</time>
      </trkpt>
      <trkpt lat="46.59697" lon="6.31303">
        <ele>1643</ele>
        <time>2019-05-22T11:27:55Z</time>
      </trkpt>
      <trkpt lat="46.59706" lon="6.31307">
        <ele>1643</ele>
        <time>2019-05-22T11:28:04Z</time>
      </trkpt>
      <trkpt lat="46.59716" lon="6.31311">
        <ele>1643</ele>
        <time>2019-05-22T11:28:14Z</time>
      </trkpt>
      <trkpt lat="46.5973" lon="6.31314">
        <ele>1641</ele>
        <time>2019-05-22T11:28:26Z</time>
      </trkpt>
      <trkpt lat="46.59734" lon="6.31318">
        <ele>1641</ele>
        <time>2019-05-22T11:28:31Z</time>
      </trkpt>
      <trkpt lat="46.5974" lon="6.31331">
        <ele>1641</ele>
        <time>2019-05-22T11:28:41Z</time>
      </trkpt>
      <trkpt lat="46.59755" lon="6.31351">
        <ele>1640</ele>
        <time>2019-05-22T11:29:04Z</time>
      </trkpt>
      <trkpt lat="46.59764" lon="6.31359">
        <ele>1638</ele>
        <time>2019-05-22T11:29:14Z</time>
      </trkpt>
      <trkpt lat="46.59766" lon="6.31366">
        <ele>1637</ele>
        <time>2019-05-22T11:29:19Z</time>
      </trkpt>
      <trkpt lat="46.59773" lon="6.31376">
        <ele>1637</ele>
        <time>2019-05-22T11:29:28Z</time>
      </trkpt>
      <trkpt lat="46.59778" lon="6.3138">
        <ele>1637</ele>
        <time>2019-05-22T11:29:32Z</time>
      </trkpt>
      <trkpt lat="46.59781" lon="6.31385">
        <ele>1637</ele>
        <time>2019-05-22T11:29:36Z</time>
      </trkpt>
      <trkpt lat="46.59791" lon="6.31411">
        <ele>1635</ele>
        <time>2019-05-22T11:29:56Z</time>
      </trkpt>
      <trkpt lat="46.59792" lon="6.31419">
        <ele>1634</ele>
        <time>2019-05-22T11:30:01Z</time>
      </trkpt>
      <trkpt lat="46.59796" lon="6.31447">
        <ele>1634</ele>
        <time>2019-05-22T11:30:18Z</time>
      </trkpt>
      <trkpt lat="46.59796" lon="6.31476">
        <ele>1632</ele>
        <time>2019-05-22T11:30:35Z</time>
      </trkpt>
      <trkpt lat="46.59798" lon="6.31483">
        <ele>1632</ele>
        <time>2019-05-22T11:30:39Z</time>
      </trkpt>
      <trkpt lat="46.59802" lon="6.31488">
        <ele>1631</ele>
        <time>2019-05-22T11:30:43Z</time>
      </trkpt>
      <trkpt lat="46.59806" lon="6.31493">
        <ele>1631</ele>
        <time>2019-05-22T11:30:48Z</time>
      </trkpt>
      <trkpt lat="46.59816" lon="6.31505">
        <ele>1629</ele>
        <time>2019-05-22T11:31:12Z</time>
      </trkpt>
      <trkpt lat="46.59819" lon="6.31511">
        <ele>1629</ele>
        <time>2019-05-22T11:31:16Z</time>
      </trkpt>
      <trkpt lat="46.59825" lon="6.31523">
        <ele>1628</ele>
        <time>2019-05-22T11:31:25Z</time>
      </trkpt>
      <trkpt lat="46.59828" lon="6.31529">
        <ele>1627</ele>
        <time>2019-05-22T11:31:29Z</time>
      </trkpt>
      <trkpt lat="46.59834" lon="6.3154">
        <ele>1627</ele>
        <time>2019-05-22T11:31:37Z</time>
      </trkpt>
      <trkpt lat="46.59837" lon="6.31547">
        <ele>1627</ele>
        <time>2019-05-22T11:31:42Z</time>
      </trkpt>
      <trkpt lat="46.59838" lon="6.31554">
        <ele>1627</ele>
        <time>2019-05-22T11:31:46Z</time>
      </trkpt>
      <trkpt lat="46.59838" lon="6.31561">
        <ele>1626</ele>
        <time>2019-05-22T11:31:51Z</time>
      </trkpt>
      <trkpt lat="46.59837" lon="6.31577">
        <ele>1626</ele>
        <time>2019-05-22T11:32:00Z</time>
      </trkpt>
      <trkpt lat="46.59838" lon="6.31597">
        <ele>1625</ele>
        <time>2019-05-22T11:32:12Z</time>
      </trkpt>
      <trkpt lat="46.59842" lon="6.3161">
        <ele>1624</ele>
        <time>2019-05-22T11:32:20Z</time>
      </trkpt>
      <trkpt lat="46.59845" lon="6.31615">
        <ele>1624</ele>
        <time>2019-05-22T11:32:24Z</time>
      </trkpt>
      <trkpt lat="46.59848" lon="6.31621">
        <ele>1624</ele>
        <time>2019-05-22T11:32:28Z</time>
      </trkpt>
      <trkpt lat="46.59851" lon="6.31627">
        <ele>1624</ele>
        <time>2019-05-22T11:32:32Z</time>
      </trkpt>
      <trkpt lat="46.59857" lon="6.31638">
        <ele>1624</ele>
        <time>2019-05-22T11:32:41Z</time>
      </trkpt>
      <trkpt lat="46.59862" lon="6.31644">
        <ele>1623</ele>
        <time>2019-05-22T11:32:49Z</time>
      </trkpt>
      <trkpt lat="46.59864" lon="6.3165">
        <ele>1623</ele>
        <time>2019-05-22T11:32:53Z</time>
      </trkpt>
      <trkpt lat="46.59862" lon="6.31664">
        <ele>1622</ele>
        <time>2019-05-22T11:33:01Z</time>
      </trkpt>
      <trkpt lat="46.59863" lon="6.31671">
        <ele>1622</ele>
        <time>2019-05-22T11:33:05Z</time>
      </trkpt>
      <trkpt lat="46.59864" lon="6.31678">
        <ele>1622</ele>
        <time>2019-05-22T11:33:10Z</time>
      </trkpt>
      <trkpt lat="46.59869" lon="6.31691">
        <ele>1621</ele>
        <time>2019-05-22T11:33:20Z</time>
      </trkpt>
      <trkpt lat="46.59873" lon="6.31697">
        <ele>1621</ele>
        <time>2019-05-22T11:33:25Z</time>
      </trkpt>
      <trkpt lat="46.59878" lon="6.3171">
        <ele>1621</ele>
        <time>2019-05-22T11:33:35Z</time>
      </trkpt>
      <trkpt lat="46.5988" lon="6.31718">
        <ele>1620</ele>
        <time>2019-05-22T11:33:43Z</time>
      </trkpt>
      <trkpt lat="46.59881" lon="6.31726">
        <ele>1619</ele>
        <time>2019-05-22T11:33:48Z</time>
      </trkpt>
      <trkpt lat="46.59883" lon="6.31732">
        <ele>1618</ele>
        <time>2019-05-22T11:33:53Z</time>
      </trkpt>
      <trkpt lat="46.59884" lon="6.31739">
        <ele>1618</ele>
        <time>2019-05-22T11:33:57Z</time>
      </trkpt>
      <trkpt lat="46.59886" lon="6.31746">
        <ele>1618</ele>
        <time>2019-05-22T11:34:01Z</time>
      </trkpt>
      <trkpt lat="46.599" lon="6.31777">
        <ele>1617</ele>
        <time>2019-05-22T11:34:21Z</time>
      </trkpt>
      <trkpt lat="46.59906" lon="6.31789">
        <ele>1617</ele>
        <time>2019-05-22T11:34:30Z</time>
      </trkpt>
      <trkpt lat="46.59908" lon="6.31795">
        <ele>1617</ele>
        <time>2019-05-22T11:34:34Z</time>
      </trkpt>
      <trkpt lat="46.59911" lon="6.31801">
        <ele>1618</ele>
        <time>2019-05-22T11:34:38Z</time>
      </trkpt>
      <trkpt lat="46.59919" lon="6.31809">
        <ele>1618</ele>
        <time>2019-05-22T11:34:46Z</time>
      </trkpt>
      <trkpt lat="46.59929" lon="6.31814">
        <ele>1617</ele>
        <time>2019-05-22T11:34:55Z</time>
      </trkpt>
      <trkpt lat="46.59942" lon="6.31831">
        <ele>1616</ele>
        <time>2019-05-22T11:35:11Z</time>
      </trkpt>
      <trkpt lat="46.59963" lon="6.3186">
        <ele>1617</ele>
        <time>2019-05-22T11:35:35Z</time>
      </trkpt>
      <trkpt lat="46.59967" lon="6.31865">
        <ele>1617</ele>
        <time>2019-05-22T11:35:39Z</time>
      </trkpt>
      <trkpt lat="46.59976" lon="6.31875">
        <ele>1617</ele>
        <time>2019-05-22T11:35:47Z</time>
      </trkpt>
      <trkpt lat="46.59982" lon="6.31884">
        <ele>1616</ele>
        <time>2019-05-22T11:35:55Z</time>
      </trkpt>
      <trkpt lat="46.59987" lon="6.31888">
        <ele>1615</ele>
        <time>2019-05-22T11:35:59Z</time>
      </trkpt>
      <trkpt lat="46.59991" lon="6.31893">
        <ele>1615</ele>
        <time>2019-05-22T11:36:04Z</time>
      </trkpt>
      <trkpt lat="46.59997" lon="6.31904">
        <ele>1616</ele>
        <time>2019-05-22T11:36:12Z</time>
      </trkpt>
      <trkpt lat="46.60005" lon="6.31913">
        <ele>1615</ele>
        <time>2019-05-22T11:36:21Z</time>
      </trkpt>
      <trkpt lat="46.60011" lon="6.31915">
        <ele>1615</ele>
        <time>2019-05-22T11:36:26Z</time>
      </trkpt>
      <trkpt lat="46.60016" lon="6.31917">
        <ele>1615</ele>
        <time>2019-05-22T11:36:37Z</time>
      </trkpt>
      <trkpt lat="46.60027" lon="6.31919">
        <ele>1615</ele>
        <time>2019-05-22T11:36:47Z</time>
      </trkpt>
      <trkpt lat="46.60031" lon="6.3192">
        <ele>1615</ele>
        <time>2019-05-22T11:36:52Z</time>
      </trkpt>
      <trkpt lat="46.60036" lon="6.3192">
        <ele>1615</ele>
        <time>2019-05-22T11:36:57Z</time>
      </trkpt>
      <trkpt lat="46.60041" lon="6.3192">
        <ele>1615</ele>
        <time>2019-05-22T11:37:02Z</time>
      </trkpt>
      <trkpt lat="46.60046" lon="6.3192">
        <ele>1615</ele>
        <time>2019-05-22T11:37:08Z</time>
      </trkpt>
      <trkpt lat="46.60055" lon="6.31916">
        <ele>1613</ele>
        <time>2019-05-22T11:37:17Z</time>
      </trkpt>
      <trkpt lat="46.6006" lon="6.31913">
        <ele>1613</ele>
        <time>2019-05-22T11:37:21Z</time>
      </trkpt>
      <trkpt lat="46.60065" lon="6.3191">
        <ele>1612</ele>
        <time>2019-05-22T11:37:26Z</time>
      </trkpt>
      <trkpt lat="46.6007" lon="6.31908">
        <ele>1612</ele>
        <time>2019-05-22T11:37:31Z</time>
      </trkpt>
      <trkpt lat="46.60083" lon="6.31905">
        <ele>1610</ele>
        <time>2019-05-22T11:37:45Z</time>
      </trkpt>
      <trkpt lat="46.60088" lon="6.31906">
        <ele>1610</ele>
        <time>2019-05-22T11:37:50Z</time>
      </trkpt>
      <trkpt lat="46.60093" lon="6.31908">
        <ele>1613</ele>
        <time>2019-05-22T11:38:01Z</time>
      </trkpt>
      <trkpt lat="46.60097" lon="6.31913">
        <ele>1613</ele>
        <time>2019-05-22T11:38:06Z</time>
      </trkpt>
      <trkpt lat="46.60102" lon="6.31915">
        <ele>1613</ele>
        <time>2019-05-22T11:38:10Z</time>
      </trkpt>
      <trkpt lat="46.60105" lon="6.31919">
        <ele>1614</ele>
        <time>2019-05-22T11:38:14Z</time>
      </trkpt>
      <trkpt lat="46.6011" lon="6.31923">
        <ele>1614</ele>
        <time>2019-05-22T11:38:19Z</time>
      </trkpt>
      <trkpt lat="46.60113" lon="6.31927">
        <ele>1614</ele>
        <time>2019-05-22T11:38:23Z</time>
      </trkpt>
      <trkpt lat="46.60127" lon="6.31934">
        <ele>1614</ele>
        <time>2019-05-22T11:38:36Z</time>
      </trkpt>
      <trkpt lat="46.60132" lon="6.31936">
        <ele>1614</ele>
        <time>2019-05-22T11:38:41Z</time>
      </trkpt>
      <trkpt lat="46.60149" lon="6.31936">
        <ele>1612</ele>
        <time>2019-05-22T11:38:58Z</time>
      </trkpt>
      <trkpt lat="46.60154" lon="6.31935">
        <ele>1611</ele>
        <time>2019-05-22T11:39:03Z</time>
      </trkpt>
      <trkpt lat="46.60159" lon="6.31936">
        <ele>1611</ele>
        <time>2019-05-22T11:39:07Z</time>
      </trkpt>
      <trkpt lat="46.60163" lon="6.31938">
        <ele>1611</ele>
        <time>2019-05-22T11:39:11Z</time>
      </trkpt>
      <trkpt lat="46.60167" lon="6.31941">
        <ele>1611</ele>
        <time>2019-05-22T11:39:14Z</time>
      </trkpt>
      <trkpt lat="46.60181" lon="6.31948">
        <ele>1610</ele>
        <time>2019-05-22T11:39:26Z</time>
      </trkpt>
      <trkpt lat="46.60186" lon="6.3195">
        <ele>1611</ele>
        <time>2019-05-22T11:39:30Z</time>
      </trkpt>
      <trkpt lat="46.60196" lon="6.31952">
        <ele>1610</ele>
        <time>2019-05-22T11:39:38Z</time>
      </trkpt>
      <trkpt lat="46.60202" lon="6.31952">
        <ele>1609</ele>
        <time>2019-05-22T11:39:43Z</time>
      </trkpt>
      <trkpt lat="46.60206" lon="6.31952">
        <ele>1609</ele>
        <time>2019-05-22T11:39:47Z</time>
      </trkpt>
      <trkpt lat="46.60211" lon="6.31951">
        <ele>1608</ele>
        <time>2019-05-22T11:39:51Z</time>
      </trkpt>
      <trkpt lat="46.60221" lon="6.31949">
        <ele>1608</ele>
        <time>2019-05-22T11:40:01Z</time>
      </trkpt>
      <trkpt lat="46.60225" lon="6.31948">
        <ele>1608</ele>
        <time>2019-05-22T11:40:05Z</time>
      </trkpt>
      <trkpt lat="46.60242" lon="6.31942">
        <ele>1607</ele>
        <time>2019-05-22T11:40:20Z</time>
      </trkpt>
      <trkpt lat="46.60258" lon="6.31942">
        <ele>1608</ele>
        <time>2019-05-22T11:40:32Z</time>
      </trkpt>
      <trkpt lat="46.60268" lon="6.31939">
        <ele>1608</ele>
        <time>2019-05-22T11:40:44Z</time>
      </trkpt>
      <trkpt lat="46.60287" lon="6.31944">
        <ele>1607</ele>
        <time>2019-05-22T11:41:00Z</time>
      </trkpt>
      <trkpt lat="46.60295" lon="6.31948">
        <ele>1607</ele>
        <time>2019-05-22T11:41:07Z</time>
      </trkpt>
      <trkpt lat="46.60312" lon="6.31959">
        <ele>1606</ele>
        <time>2019-05-22T11:41:23Z</time>
      </trkpt>
      <trkpt lat="46.60321" lon="6.31965">
        <ele>1605</ele>
        <time>2019-05-22T11:41:31Z</time>
      </trkpt>
      <trkpt lat="46.60343" lon="6.3198">
        <ele>1603</ele>
        <time>2019-05-22T11:41:54Z</time>
      </trkpt>
      <trkpt lat="46.60351" lon="6.31987">
        <ele>1603</ele>
        <time>2019-05-22T11:42:01Z</time>
      </trkpt>
      <trkpt lat="46.6036" lon="6.31986">
        <ele>1602</ele>
        <time>2019-05-22T11:42:10Z</time>
      </trkpt>
      <trkpt lat="46.60361" lon="6.31979">
        <ele>1601</ele>
        <time>2019-05-22T11:42:15Z</time>
      </trkpt>
      <trkpt lat="46.60354" lon="6.31969">
        <ele>1600</ele>
        <time>2019-05-22T11:42:24Z</time>
      </trkpt>
      <trkpt lat="46.60341" lon="6.31956">
        <ele>1598</ele>
        <time>2019-05-22T11:42:36Z</time>
      </trkpt>
      <trkpt lat="46.6033" lon="6.3194">
        <ele>1597</ele>
        <time>2019-05-22T11:42:49Z</time>
      </trkpt>
      <trkpt lat="46.6032" lon="6.31922">
        <ele>1595</ele>
        <time>2019-05-22T11:43:03Z</time>
      </trkpt>
      <trkpt lat="46.60317" lon="6.31916">
        <ele>1595</ele>
        <time>2019-05-22T11:43:08Z</time>
      </trkpt>
      <trkpt lat="46.60314" lon="6.3191">
        <ele>1594</ele>
        <time>2019-05-22T11:43:12Z</time>
      </trkpt>
      <trkpt lat="46.60307" lon="6.319">
        <ele>1593</ele>
        <time>2019-05-22T11:43:21Z</time>
      </trkpt>
      <trkpt lat="46.60301" lon="6.31885">
        <ele>1591</ele>
        <time>2019-05-22T11:43:33Z</time>
      </trkpt>
      <trkpt lat="46.60288" lon="6.31864">
        <ele>1588</ele>
        <time>2019-05-22T11:43:49Z</time>
      </trkpt>
      <trkpt lat="46.60282" lon="6.31854">
        <ele>1588</ele>
        <time>2019-05-22T11:43:57Z</time>
      </trkpt>
      <trkpt lat="46.60279" lon="6.31848">
        <ele>1588</ele>
        <time>2019-05-22T11:44:02Z</time>
      </trkpt>
      <trkpt lat="46.60278" lon="6.31842">
        <ele>1588</ele>
        <time>2019-05-22T11:44:07Z</time>
      </trkpt>
      <trkpt lat="46.60269" lon="6.31816">
        <ele>1586</ele>
        <time>2019-05-22T11:44:26Z</time>
      </trkpt>
      <trkpt lat="46.60268" lon="6.31797">
        <ele>1585</ele>
        <time>2019-05-22T11:44:41Z</time>
      </trkpt>
      <trkpt lat="46.60259" lon="6.31771">
        <ele>1583</ele>
        <time>2019-05-22T11:44:59Z</time>
      </trkpt>
      <trkpt lat="46.60258" lon="6.31758">
        <ele>1581</ele>
        <time>2019-05-22T11:45:07Z</time>
      </trkpt>
      <trkpt lat="46.60253" lon="6.31746">
        <ele>1580</ele>
        <time>2019-05-22T11:45:16Z</time>
      </trkpt>
      <trkpt lat="46.60251" lon="6.31732">
        <ele>1580</ele>
        <time>2019-05-22T11:45:25Z</time>
      </trkpt>
      <trkpt lat="46.60249" lon="6.31718">
        <ele>1578</ele>
        <time>2019-05-22T11:45:34Z</time>
      </trkpt>
      <trkpt lat="46.60245" lon="6.31706">
        <ele>1578</ele>
        <time>2019-05-22T11:45:43Z</time>
      </trkpt>
      <trkpt lat="46.6024" lon="6.31678">
        <ele>1575</ele>
        <time>2019-05-22T11:46:02Z</time>
      </trkpt>
      <trkpt lat="46.60236" lon="6.31666">
        <ele>1573</ele>
        <time>2019-05-22T11:46:11Z</time>
      </trkpt>
      <trkpt lat="46.60233" lon="6.31653">
        <ele>1573</ele>
        <time>2019-05-22T11:46:18Z</time>
      </trkpt>
      <trkpt lat="46.60222" lon="6.31599">
        <ele>1568</ele>
        <time>2019-05-22T11:46:54Z</time>
      </trkpt>
      <trkpt lat="46.6022" lon="6.31586">
        <ele>1568</ele>
        <time>2019-05-22T11:47:03Z</time>
      </trkpt>
      <trkpt lat="46.6023" lon="6.31541">
        <ele>1561</ele>
        <time>2019-05-22T11:47:38Z</time>
      </trkpt>
      <trkpt lat="46.60231" lon="6.31534">
        <ele>1560</ele>
        <time>2019-05-22T11:47:43Z</time>
      </trkpt>
      <trkpt lat="46.60232" lon="6.31527">
        <ele>1560</ele>
        <time>2019-05-22T11:47:48Z</time>
      </trkpt>
      <trkpt lat="46.60231" lon="6.31519">
        <ele>1560</ele>
        <time>2019-05-22T11:47:53Z</time>
      </trkpt>
      <trkpt lat="46.60228" lon="6.31514">
        <ele>1559</ele>
        <time>2019-05-22T11:47:58Z</time>
      </trkpt>
      <trkpt lat="46.60216" lon="6.31499">
        <ele>1559</ele>
        <time>2019-05-22T11:48:15Z</time>
      </trkpt>
      <trkpt lat="46.60231" lon="6.31541">
        <ele>1555</ele>
        <time>2019-05-22T12:24:30Z</time>
      </trkpt>
      <trkpt lat="46.60229" lon="6.31547">
        <ele>1555</ele>
        <time>2019-05-22T12:24:35Z</time>
      </trkpt>
      <trkpt lat="46.60221" lon="6.31573">
        <ele>1559</ele>
        <time>2019-05-22T12:25:07Z</time>
      </trkpt>
      <trkpt lat="46.60223" lon="6.31586">
        <ele>1560</ele>
        <time>2019-05-22T12:25:19Z</time>
      </trkpt>
      <trkpt lat="46.60226" lon="6.31591">
        <ele>1560</ele>
        <time>2019-05-22T12:25:25Z</time>
      </trkpt>
      <trkpt lat="46.6023" lon="6.31596">
        <ele>1559</ele>
        <time>2019-05-22T12:25:30Z</time>
      </trkpt>
      <trkpt lat="46.60233" lon="6.31603">
        <ele>1561</ele>
        <time>2019-05-22T12:25:38Z</time>
      </trkpt>
      <trkpt lat="46.60238" lon="6.31605">
        <ele>1562</ele>
        <time>2019-05-22T12:25:44Z</time>
      </trkpt>
      <trkpt lat="46.60246" lon="6.3161">
        <ele>1561</ele>
        <time>2019-05-22T12:25:55Z</time>
      </trkpt>
      <trkpt lat="46.60255" lon="6.3161">
        <ele>1559</ele>
        <time>2019-05-22T12:26:13Z</time>
      </trkpt>
      <trkpt lat="46.60277" lon="6.31626">
        <ele>1554</ele>
        <time>2019-05-22T12:26:45Z</time>
      </trkpt>
      <trkpt lat="46.60286" lon="6.31637">
        <ele>1552</ele>
        <time>2019-05-22T12:26:57Z</time>
      </trkpt>
      <trkpt lat="46.60292" lon="6.31651">
        <ele>1552</ele>
        <time>2019-05-22T12:27:07Z</time>
      </trkpt>
      <trkpt lat="46.60301" lon="6.31669">
        <ele>1549</ele>
        <time>2019-05-22T12:27:23Z</time>
      </trkpt>
      <trkpt lat="46.60302" lon="6.31676">
        <ele>1549</ele>
        <time>2019-05-22T12:27:28Z</time>
      </trkpt>
      <trkpt lat="46.60305" lon="6.31689">
        <ele>1550</ele>
        <time>2019-05-22T12:27:36Z</time>
      </trkpt>
      <trkpt lat="46.60306" lon="6.31698">
        <ele>1549</ele>
        <time>2019-05-22T12:27:43Z</time>
      </trkpt>
      <trkpt lat="46.60308" lon="6.31713">
        <ele>1550</ele>
        <time>2019-05-22T12:27:53Z</time>
      </trkpt>
      <trkpt lat="46.60315" lon="6.31734">
        <ele>1550</ele>
        <time>2019-05-22T12:28:11Z</time>
      </trkpt>
      <trkpt lat="46.60321" lon="6.31739">
        <ele>1551</ele>
        <time>2019-05-22T12:28:19Z</time>
      </trkpt>
      <trkpt lat="46.60325" lon="6.31745">
        <ele>1551</ele>
        <time>2019-05-22T12:28:23Z</time>
      </trkpt>
      <trkpt lat="46.60334" lon="6.31767">
        <ele>1551</ele>
        <time>2019-05-22T12:28:41Z</time>
      </trkpt>
      <trkpt lat="46.60338" lon="6.31779">
        <ele>1552</ele>
        <time>2019-05-22T12:28:50Z</time>
      </trkpt>
      <trkpt lat="46.60349" lon="6.31803">
        <ele>1552</ele>
        <time>2019-05-22T12:29:08Z</time>
      </trkpt>
      <trkpt lat="46.60377" lon="6.31844">
        <ele>1551</ele>
        <time>2019-05-22T12:29:45Z</time>
      </trkpt>
      <trkpt lat="46.60388" lon="6.31857">
        <ele>1552</ele>
        <time>2019-05-22T12:29:58Z</time>
      </trkpt>
      <trkpt lat="46.60393" lon="6.31869">
        <ele>1551</ele>
        <time>2019-05-22T12:30:08Z</time>
      </trkpt>
      <trkpt lat="46.60407" lon="6.31887">
        <ele>1552</ele>
        <time>2019-05-22T12:30:25Z</time>
      </trkpt>
      <trkpt lat="46.60411" lon="6.31899">
        <ele>1552</ele>
        <time>2019-05-22T12:30:34Z</time>
      </trkpt>
      <trkpt lat="46.60421" lon="6.31911">
        <ele>1553</ele>
        <time>2019-05-22T12:30:46Z</time>
      </trkpt>
      <trkpt lat="46.60428" lon="6.31921">
        <ele>1553</ele>
        <time>2019-05-22T12:30:55Z</time>
      </trkpt>
      <trkpt lat="46.60439" lon="6.31943">
        <ele>1551</ele>
        <time>2019-05-22T12:31:12Z</time>
      </trkpt>
      <trkpt lat="46.6045" lon="6.31958">
        <ele>1551</ele>
        <time>2019-05-22T12:31:25Z</time>
      </trkpt>
      <trkpt lat="46.60459" lon="6.31965">
        <ele>1551</ele>
        <time>2019-05-22T12:31:37Z</time>
      </trkpt>
      <trkpt lat="46.60466" lon="6.31977">
        <ele>1552</ele>
        <time>2019-05-22T12:31:50Z</time>
      </trkpt>
      <trkpt lat="46.60475" lon="6.31985">
        <ele>1552</ele>
        <time>2019-05-22T12:32:32Z</time>
      </trkpt>
      <trkpt lat="46.60488" lon="6.32005">
        <ele>1557</ele>
        <time>2019-05-22T12:32:56Z</time>
      </trkpt>
      <trkpt lat="46.60503" lon="6.32017">
        <ele>1553</ele>
        <time>2019-05-22T12:33:14Z</time>
      </trkpt>
      <trkpt lat="46.60513" lon="6.32022">
        <ele>1550</ele>
        <time>2019-05-22T12:33:25Z</time>
      </trkpt>
      <trkpt lat="46.6053" lon="6.32036">
        <ele>1549</ele>
        <time>2019-05-22T12:33:41Z</time>
      </trkpt>
      <trkpt lat="46.60548" lon="6.32058">
        <ele>1547</ele>
        <time>2019-05-22T12:34:06Z</time>
      </trkpt>
      <trkpt lat="46.60554" lon="6.32068">
        <ele>1547</ele>
        <time>2019-05-22T12:34:20Z</time>
      </trkpt>
      <trkpt lat="46.60563" lon="6.32077">
        <ele>1544</ele>
        <time>2019-05-22T12:34:38Z</time>
      </trkpt>
      <trkpt lat="46.60572" lon="6.32087">
        <ele>1539</ele>
        <time>2019-05-22T12:34:56Z</time>
      </trkpt>
      <trkpt lat="46.60576" lon="6.32106">
        <ele>1538</ele>
        <time>2019-05-22T12:35:12Z</time>
      </trkpt>
      <trkpt lat="46.60579" lon="6.32118">
        <ele>1538</ele>
        <time>2019-05-22T12:35:32Z</time>
      </trkpt>
      <trkpt lat="46.60592" lon="6.32142">
        <ele>1535</ele>
        <time>2019-05-22T12:36:09Z</time>
      </trkpt>
      <trkpt lat="46.60601" lon="6.3216">
        <ele>1534</ele>
        <time>2019-05-22T12:36:31Z</time>
      </trkpt>
      <trkpt lat="46.60619" lon="6.32191">
        <ele>1528</ele>
        <time>2019-05-22T12:37:23Z</time>
      </trkpt>
      <trkpt lat="46.60622" lon="6.32205">
        <ele>1528</ele>
        <time>2019-05-22T12:37:33Z</time>
      </trkpt>
      <trkpt lat="46.60627" lon="6.32216">
        <ele>1527</ele>
        <time>2019-05-22T12:37:40Z</time>
      </trkpt>
      <trkpt lat="46.60634" lon="6.3223">
        <ele>1528</ele>
        <time>2019-05-22T12:37:55Z</time>
      </trkpt>
      <trkpt lat="46.60635" lon="6.32247">
        <ele>1529</ele>
        <time>2019-05-22T12:38:10Z</time>
      </trkpt>
      <trkpt lat="46.60641" lon="6.32261">
        <ele>1528</ele>
        <time>2019-05-22T12:38:24Z</time>
      </trkpt>
      <trkpt lat="46.60646" lon="6.32274">
        <ele>1529</ele>
        <time>2019-05-22T12:38:40Z</time>
      </trkpt>
      <trkpt lat="46.60653" lon="6.32296">
        <ele>1528</ele>
        <time>2019-05-22T12:39:01Z</time>
      </trkpt>
      <trkpt lat="46.6066" lon="6.32309">
        <ele>1526</ele>
        <time>2019-05-22T12:39:16Z</time>
      </trkpt>
      <trkpt lat="46.60666" lon="6.32322">
        <ele>1523</ele>
        <time>2019-05-22T12:39:34Z</time>
      </trkpt>
      <trkpt lat="46.60676" lon="6.32328">
        <ele>1523</ele>
        <time>2019-05-22T12:39:58Z</time>
      </trkpt>
      <trkpt lat="46.60683" lon="6.32339">
        <ele>1522</ele>
        <time>2019-05-22T12:40:16Z</time>
      </trkpt>
      <trkpt lat="46.60694" lon="6.32346">
        <ele>1522</ele>
        <time>2019-05-22T12:40:34Z</time>
      </trkpt>
      <trkpt lat="46.60703" lon="6.32354">
        <ele>1519</ele>
        <time>2019-05-22T12:40:58Z</time>
      </trkpt>
      <trkpt lat="46.60713" lon="6.3236">
        <ele>1514</ele>
        <time>2019-05-22T12:41:22Z</time>
      </trkpt>
      <trkpt lat="46.60706" lon="6.32371">
        <ele>1515</ele>
        <time>2019-05-22T12:41:31Z</time>
      </trkpt>
      <trkpt lat="46.6072" lon="6.32377">
        <ele>1512</ele>
        <time>2019-05-22T12:41:48Z</time>
      </trkpt>
      <trkpt lat="46.60725" lon="6.32386">
        <ele>1512</ele>
        <time>2019-05-22T12:41:55Z</time>
      </trkpt>
      <trkpt lat="46.60735" lon="6.32409">
        <ele>1511</ele>
        <time>2019-05-22T12:42:15Z</time>
      </trkpt>
      <trkpt lat="46.60743" lon="6.3242">
        <ele>1509</ele>
        <time>2019-05-22T12:42:26Z</time>
      </trkpt>
      <trkpt lat="46.60748" lon="6.32431">
        <ele>1508</ele>
        <time>2019-05-22T12:42:35Z</time>
      </trkpt>
      <trkpt lat="46.60755" lon="6.3244">
        <ele>1506</ele>
        <time>2019-05-22T12:42:46Z</time>
      </trkpt>
      <trkpt lat="46.60763" lon="6.32454">
        <ele>1507</ele>
        <time>2019-05-22T12:43:01Z</time>
      </trkpt>
      <trkpt lat="46.60765" lon="6.32467">
        <ele>1506</ele>
        <time>2019-05-22T12:43:10Z</time>
      </trkpt>
      <trkpt lat="46.60765" lon="6.32488">
        <ele>1506</ele>
        <time>2019-05-22T12:43:26Z</time>
      </trkpt>
      <trkpt lat="46.60775" lon="6.32499">
        <ele>1505</ele>
        <time>2019-05-22T12:43:38Z</time>
      </trkpt>
      <trkpt lat="46.60789" lon="6.32504">
        <ele>1502</ele>
        <time>2019-05-22T12:43:53Z</time>
      </trkpt>
      <trkpt lat="46.60793" lon="6.32514">
        <ele>1502</ele>
        <time>2019-05-22T12:44:00Z</time>
      </trkpt>
      <trkpt lat="46.60798" lon="6.32521">
        <ele>1502</ele>
        <time>2019-05-22T12:44:08Z</time>
      </trkpt>
      <trkpt lat="46.608" lon="6.32527">
        <ele>1502</ele>
        <time>2019-05-22T12:44:14Z</time>
      </trkpt>
      <trkpt lat="46.60803" lon="6.32532">
        <ele>1502</ele>
        <time>2019-05-22T12:44:19Z</time>
      </trkpt>
      <trkpt lat="46.60807" lon="6.32535">
        <ele>1502</ele>
        <time>2019-05-22T12:44:24Z</time>
      </trkpt>
      <trkpt lat="46.60812" lon="6.32542">
        <ele>1502</ele>
        <time>2019-05-22T12:44:31Z</time>
      </trkpt>
      <trkpt lat="46.60814" lon="6.32548">
        <ele>1502</ele>
        <time>2019-05-22T12:44:36Z</time>
      </trkpt>
      <trkpt lat="46.60816" lon="6.32556">
        <ele>1502</ele>
        <time>2019-05-22T12:44:43Z</time>
      </trkpt>
      <trkpt lat="46.60823" lon="6.32571">
        <ele>1501</ele>
        <time>2019-05-22T12:44:57Z</time>
      </trkpt>
      <trkpt lat="46.60834" lon="6.32583">
        <ele>1501</ele>
        <time>2019-05-22T12:45:12Z</time>
      </trkpt>
      <trkpt lat="46.60839" lon="6.32594">
        <ele>1501</ele>
        <time>2019-05-22T12:45:21Z</time>
      </trkpt>
      <trkpt lat="46.60845" lon="6.32606">
        <ele>1501</ele>
        <time>2019-05-22T12:45:31Z</time>
      </trkpt>
      <trkpt lat="46.60855" lon="6.32613">
        <ele>1501</ele>
        <time>2019-05-22T12:45:41Z</time>
      </trkpt>
      <trkpt lat="46.60873" lon="6.32646">
        <ele>1500</ele>
        <time>2019-05-22T12:46:10Z</time>
      </trkpt>
      <trkpt lat="46.60877" lon="6.32659">
        <ele>1498</ele>
        <time>2019-05-22T12:46:22Z</time>
      </trkpt>
      <trkpt lat="46.60891" lon="6.32679">
        <ele>1495</ele>
        <time>2019-05-22T12:46:40Z</time>
      </trkpt>
      <trkpt lat="46.60896" lon="6.32691">
        <ele>1494</ele>
        <time>2019-05-22T12:46:48Z</time>
      </trkpt>
      <trkpt lat="46.60898" lon="6.32696">
        <ele>1495</ele>
        <time>2019-05-22T12:46:52Z</time>
      </trkpt>
      <trkpt lat="46.60901" lon="6.32702">
        <ele>1494</ele>
        <time>2019-05-22T12:46:56Z</time>
      </trkpt>
      <trkpt lat="46.60905" lon="6.32704">
        <ele>1494</ele>
        <time>2019-05-22T12:47:00Z</time>
      </trkpt>
      <trkpt lat="46.6091" lon="6.32711">
        <ele>1493</ele>
        <time>2019-05-22T12:47:08Z</time>
      </trkpt>
      <trkpt lat="46.60917" lon="6.32719">
        <ele>1492</ele>
        <time>2019-05-22T12:47:18Z</time>
      </trkpt>
      <trkpt lat="46.6092" lon="6.32728">
        <ele>1492</ele>
        <time>2019-05-22T12:47:26Z</time>
      </trkpt>
      <trkpt lat="46.60921" lon="6.32735">
        <ele>1492</ele>
        <time>2019-05-22T12:47:31Z</time>
      </trkpt>
      <trkpt lat="46.60928" lon="6.32746">
        <ele>1490</ele>
        <time>2019-05-22T12:47:40Z</time>
      </trkpt>
      <trkpt lat="46.60932" lon="6.3275">
        <ele>1490</ele>
        <time>2019-05-22T12:47:44Z</time>
      </trkpt>
      <trkpt lat="46.60936" lon="6.32758">
        <ele>1489</ele>
        <time>2019-05-22T12:47:50Z</time>
      </trkpt>
      <trkpt lat="46.6094" lon="6.32771">
        <ele>1490</ele>
        <time>2019-05-22T12:47:59Z</time>
      </trkpt>
      <trkpt lat="46.60948" lon="6.32781">
        <ele>1490</ele>
        <time>2019-05-22T12:48:11Z</time>
      </trkpt>
      <trkpt lat="46.60956" lon="6.3279">
        <ele>1490</ele>
        <time>2019-05-22T12:48:21Z</time>
      </trkpt>
      <trkpt lat="46.60962" lon="6.32801">
        <ele>1490</ele>
        <time>2019-05-22T12:48:30Z</time>
      </trkpt>
      <trkpt lat="46.60968" lon="6.32811">
        <ele>1489</ele>
        <time>2019-05-22T12:48:39Z</time>
      </trkpt>
      <trkpt lat="46.60973" lon="6.32824">
        <ele>1490</ele>
        <time>2019-05-22T12:48:48Z</time>
      </trkpt>
      <trkpt lat="46.60981" lon="6.32833">
        <ele>1490</ele>
        <time>2019-05-22T12:48:58Z</time>
      </trkpt>
      <trkpt lat="46.60987" lon="6.32843">
        <ele>1488</ele>
        <time>2019-05-22T12:49:08Z</time>
      </trkpt>
      <trkpt lat="46.60998" lon="6.3286">
        <ele>1488</ele>
        <time>2019-05-22T12:49:24Z</time>
      </trkpt>
      <trkpt lat="46.61004" lon="6.32871">
        <ele>1488</ele>
        <time>2019-05-22T12:49:32Z</time>
      </trkpt>
      <trkpt lat="46.61009" lon="6.32882">
        <ele>1488</ele>
        <time>2019-05-22T12:49:41Z</time>
      </trkpt>
      <trkpt lat="46.61017" lon="6.32889">
        <ele>1488</ele>
        <time>2019-05-22T12:49:48Z</time>
      </trkpt>
      <trkpt lat="46.61024" lon="6.32898">
        <ele>1488</ele>
        <time>2019-05-22T12:49:57Z</time>
      </trkpt>
      <trkpt lat="46.61032" lon="6.32908">
        <ele>1487</ele>
        <time>2019-05-22T12:50:09Z</time>
      </trkpt>
      <trkpt lat="46.61042" lon="6.32928">
        <ele>1488</ele>
        <time>2019-05-22T12:50:27Z</time>
      </trkpt>
      <trkpt lat="46.61056" lon="6.32945">
        <ele>1488</ele>
        <time>2019-05-22T12:50:47Z</time>
      </trkpt>
      <trkpt lat="46.6107" lon="6.32953">
        <ele>1489</ele>
        <time>2019-05-22T12:51:03Z</time>
      </trkpt>
      <trkpt lat="46.61085" lon="6.32983">
        <ele>1490</ele>
        <time>2019-05-22T12:51:30Z</time>
      </trkpt>
      <trkpt lat="46.61092" lon="6.32992">
        <ele>1490</ele>
        <time>2019-05-22T12:51:37Z</time>
      </trkpt>
      <trkpt lat="46.61102" lon="6.32987">
        <ele>1490</ele>
        <time>2019-05-22T12:51:46Z</time>
      </trkpt>
      <trkpt lat="46.61112" lon="6.33001">
        <ele>1488</ele>
        <time>2019-05-22T12:52:00Z</time>
      </trkpt>
      <trkpt lat="46.61119" lon="6.3301">
        <ele>1488</ele>
        <time>2019-05-22T12:52:07Z</time>
      </trkpt>
      <trkpt lat="46.61129" lon="6.33016">
        <ele>1487</ele>
        <time>2019-05-22T12:52:24Z</time>
      </trkpt>
      <trkpt lat="46.61143" lon="6.3302">
        <ele>1484</ele>
        <time>2019-05-22T12:52:42Z</time>
      </trkpt>
      <trkpt lat="46.61151" lon="6.33016">
        <ele>1478</ele>
        <time>2019-05-22T12:53:13Z</time>
      </trkpt>
      <trkpt lat="46.61157" lon="6.33015">
        <ele>1472</ele>
        <time>2019-05-22T12:54:43Z</time>
      </trkpt>
      <trkpt lat="46.61164" lon="6.33011">
        <ele>1469</ele>
        <time>2019-05-22T12:54:55Z</time>
      </trkpt>
      <trkpt lat="46.61169" lon="6.3301">
        <ele>1469</ele>
        <time>2019-05-22T12:55:01Z</time>
      </trkpt>
      <trkpt lat="46.61174" lon="6.33009">
        <ele>1467</ele>
        <time>2019-05-22T12:55:07Z</time>
      </trkpt>
      <trkpt lat="46.6118" lon="6.33008">
        <ele>1467</ele>
        <time>2019-05-22T12:55:15Z</time>
      </trkpt>
      <trkpt lat="46.61189" lon="6.33006">
        <ele>1467</ele>
        <time>2019-05-22T12:55:23Z</time>
      </trkpt>
      <trkpt lat="46.61204" lon="6.32995">
        <ele>1463</ele>
        <time>2019-05-22T12:55:39Z</time>
      </trkpt>
      <trkpt lat="46.61212" lon="6.32991">
        <ele>1463</ele>
        <time>2019-05-22T12:55:47Z</time>
      </trkpt>
      <trkpt lat="46.61242" lon="6.32978">
        <ele>1458</ele>
        <time>2019-05-22T12:56:22Z</time>
      </trkpt>
      <trkpt lat="46.61251" lon="6.32961">
        <ele>1455</ele>
        <time>2019-05-22T12:56:39Z</time>
      </trkpt>
      <trkpt lat="46.61254" lon="6.32939">
        <ele>1452</ele>
        <time>2019-05-22T12:56:58Z</time>
      </trkpt>
      <trkpt lat="46.61254" lon="6.32933">
        <ele>1451</ele>
        <time>2019-05-22T12:57:16Z</time>
      </trkpt>
      <trkpt lat="46.61259" lon="6.32932">
        <ele>1450</ele>
        <time>2019-05-22T12:57:28Z</time>
      </trkpt>
      <trkpt lat="46.61268" lon="6.32927">
        <ele>1448</ele>
        <time>2019-05-22T12:57:40Z</time>
      </trkpt>
      <trkpt lat="46.61278" lon="6.32924">
        <ele>1449</ele>
        <time>2019-05-22T12:57:54Z</time>
      </trkpt>
      <trkpt lat="46.61282" lon="6.32919">
        <ele>1448</ele>
        <time>2019-05-22T12:58:00Z</time>
      </trkpt>
      <trkpt lat="46.61294" lon="6.32911">
        <ele>1445</ele>
        <time>2019-05-22T12:58:15Z</time>
      </trkpt>
      <trkpt lat="46.61301" lon="6.32909">
        <ele>1445</ele>
        <time>2019-05-22T12:58:27Z</time>
      </trkpt>
      <trkpt lat="46.61306" lon="6.32909">
        <ele>1444</ele>
        <time>2019-05-22T12:58:39Z</time>
      </trkpt>
      <trkpt lat="46.61322" lon="6.32912">
        <ele>1439</ele>
        <time>2019-05-22T12:59:10Z</time>
      </trkpt>
      <trkpt lat="46.61336" lon="6.32912">
        <ele>1438</ele>
        <time>2019-05-22T12:59:25Z</time>
      </trkpt>
      <trkpt lat="46.61348" lon="6.32904">
        <ele>1437</ele>
        <time>2019-05-22T12:59:42Z</time>
      </trkpt>
      <trkpt lat="46.61358" lon="6.32891">
        <ele>1434</ele>
        <time>2019-05-22T13:00:01Z</time>
      </trkpt>
      <trkpt lat="46.6139" lon="6.32877">
        <ele>1430</ele>
        <time>2019-05-22T13:00:37Z</time>
      </trkpt>
      <trkpt lat="46.61396" lon="6.32872">
        <ele>1428</ele>
        <time>2019-05-22T13:00:55Z</time>
      </trkpt>
      <trkpt lat="46.61404" lon="6.3286">
        <ele>1424</ele>
        <time>2019-05-22T13:01:24Z</time>
      </trkpt>
      <trkpt lat="46.61408" lon="6.3286">
        <ele>1421</ele>
        <time>2019-05-22T13:01:51Z</time>
      </trkpt>
      <trkpt lat="46.61417" lon="6.32861">
        <ele>1416</ele>
        <time>2019-05-22T13:02:45Z</time>
      </trkpt>
      <trkpt lat="46.6142" lon="6.32867">
        <ele>1416</ele>
        <time>2019-05-22T13:02:50Z</time>
      </trkpt>
      <trkpt lat="46.61424" lon="6.32873">
        <ele>1418</ele>
        <time>2019-05-22T13:02:55Z</time>
      </trkpt>
      <trkpt lat="46.61428" lon="6.32878">
        <ele>1418</ele>
        <time>2019-05-22T13:02:59Z</time>
      </trkpt>
      <trkpt lat="46.61433" lon="6.3289">
        <ele>1417</ele>
        <time>2019-05-22T13:03:08Z</time>
      </trkpt>
      <trkpt lat="46.61437" lon="6.32894">
        <ele>1418</ele>
        <time>2019-05-22T13:03:12Z</time>
      </trkpt>
      <trkpt lat="46.6144" lon="6.32898">
        <ele>1417</ele>
        <time>2019-05-22T13:03:16Z</time>
      </trkpt>
      <trkpt lat="46.61443" lon="6.32903">
        <ele>1418</ele>
        <time>2019-05-22T13:03:21Z</time>
      </trkpt>
      <trkpt lat="46.61465" lon="6.32947">
        <ele>1416</ele>
        <time>2019-05-22T13:03:55Z</time>
      </trkpt>
      <trkpt lat="46.61472" lon="6.32973">
        <ele>1415</ele>
        <time>2019-05-22T13:04:11Z</time>
      </trkpt>
      <trkpt lat="46.61479" lon="6.32983">
        <ele>1413</ele>
        <time>2019-05-22T13:04:19Z</time>
      </trkpt>
      <trkpt lat="46.61488" lon="6.32989">
        <ele>1412</ele>
        <time>2019-05-22T13:04:27Z</time>
      </trkpt>
      <trkpt lat="46.61496" lon="6.32997">
        <ele>1413</ele>
        <time>2019-05-22T13:04:35Z</time>
      </trkpt>
      <trkpt lat="46.61512" lon="6.33011">
        <ele>1412</ele>
        <time>2019-05-22T13:04:51Z</time>
      </trkpt>
      <trkpt lat="46.61524" lon="6.33032">
        <ele>1412</ele>
        <time>2019-05-22T13:05:07Z</time>
      </trkpt>
      <trkpt lat="46.61528" lon="6.33045">
        <ele>1412</ele>
        <time>2019-05-22T13:05:16Z</time>
      </trkpt>
      <trkpt lat="46.61537" lon="6.33078">
        <ele>1410</ele>
        <time>2019-05-22T13:05:40Z</time>
      </trkpt>
      <trkpt lat="46.61544" lon="6.33089">
        <ele>1409</ele>
        <time>2019-05-22T13:05:48Z</time>
      </trkpt>
      <trkpt lat="46.61551" lon="6.33098">
        <ele>1409</ele>
        <time>2019-05-22T13:05:56Z</time>
      </trkpt>
      <trkpt lat="46.61558" lon="6.33107">
        <ele>1407</ele>
        <time>2019-05-22T13:06:04Z</time>
      </trkpt>
      <trkpt lat="46.61565" lon="6.33116">
        <ele>1406</ele>
        <time>2019-05-22T13:06:11Z</time>
      </trkpt>
      <trkpt lat="46.6157" lon="6.33128">
        <ele>1405</ele>
        <time>2019-05-22T13:06:20Z</time>
      </trkpt>
      <trkpt lat="46.61579" lon="6.33136">
        <ele>1404</ele>
        <time>2019-05-22T13:06:28Z</time>
      </trkpt>
      <trkpt lat="46.61592" lon="6.33157">
        <ele>1402</ele>
        <time>2019-05-22T13:06:44Z</time>
      </trkpt>
      <trkpt lat="46.61605" lon="6.33176">
        <ele>1402</ele>
        <time>2019-05-22T13:06:59Z</time>
      </trkpt>
      <trkpt lat="46.61628" lon="6.33199">
        <ele>1399</ele>
        <time>2019-05-22T13:07:21Z</time>
      </trkpt>
      <trkpt lat="46.61647" lon="6.33209">
        <ele>1398</ele>
        <time>2019-05-22T13:07:38Z</time>
      </trkpt>
      <trkpt lat="46.61654" lon="6.33219">
        <ele>1397</ele>
        <time>2019-05-22T13:07:46Z</time>
      </trkpt>
      <trkpt lat="46.61669" lon="6.33232">
        <ele>1397</ele>
        <time>2019-05-22T13:08:01Z</time>
      </trkpt>
      <trkpt lat="46.61675" lon="6.33244">
        <ele>1397</ele>
        <time>2019-05-22T13:08:09Z</time>
      </trkpt>
      <trkpt lat="46.61684" lon="6.33248">
        <ele>1397</ele>
        <time>2019-05-22T13:08:17Z</time>
      </trkpt>
      <trkpt lat="46.61694" lon="6.33247">
        <ele>1396</ele>
        <time>2019-05-22T13:08:24Z</time>
      </trkpt>
      <trkpt lat="46.61704" lon="6.33249">
        <ele>1396</ele>
        <time>2019-05-22T13:08:31Z</time>
      </trkpt>
      <trkpt lat="46.61714" lon="6.33244">
        <ele>1395</ele>
        <time>2019-05-22T13:08:39Z</time>
      </trkpt>
      <trkpt lat="46.61723" lon="6.33241">
        <ele>1395</ele>
        <time>2019-05-22T13:08:46Z</time>
      </trkpt>
      <trkpt lat="46.61733" lon="6.33237">
        <ele>1395</ele>
        <time>2019-05-22T13:08:54Z</time>
      </trkpt>
      <trkpt lat="46.61743" lon="6.33229">
        <ele>1395</ele>
        <time>2019-05-22T13:09:06Z</time>
      </trkpt>
      <trkpt lat="46.61782" lon="6.33216">
        <ele>1387</ele>
        <time>2019-05-22T13:09:37Z</time>
      </trkpt>
      <trkpt lat="46.61791" lon="6.33215">
        <ele>1386</ele>
        <time>2019-05-22T13:09:45Z</time>
      </trkpt>
      <trkpt lat="46.618" lon="6.33217">
        <ele>1385</ele>
        <time>2019-05-22T13:09:53Z</time>
      </trkpt>
      <trkpt lat="46.61808" lon="6.33226">
        <ele>1384</ele>
        <time>2019-05-22T13:10:01Z</time>
      </trkpt>
      <trkpt lat="46.61816" lon="6.33234">
        <ele>1384</ele>
        <time>2019-05-22T13:10:10Z</time>
      </trkpt>
      <trkpt lat="46.61822" lon="6.33244">
        <ele>1384</ele>
        <time>2019-05-22T13:10:17Z</time>
      </trkpt>
      <trkpt lat="46.61835" lon="6.33263">
        <ele>1382</ele>
        <time>2019-05-22T13:10:35Z</time>
      </trkpt>
      <trkpt lat="46.61839" lon="6.33276">
        <ele>1382</ele>
        <time>2019-05-22T13:10:43Z</time>
      </trkpt>
      <trkpt lat="46.61847" lon="6.33285">
        <ele>1381</ele>
        <time>2019-05-22T13:10:51Z</time>
      </trkpt>
      <trkpt lat="46.61856" lon="6.3329">
        <ele>1380</ele>
        <time>2019-05-22T13:10:58Z</time>
      </trkpt>
      <trkpt lat="46.61864" lon="6.33298">
        <ele>1380</ele>
        <time>2019-05-22T13:11:05Z</time>
      </trkpt>
      <trkpt lat="46.6187" lon="6.33309">
        <ele>1380</ele>
        <time>2019-05-22T13:11:13Z</time>
      </trkpt>
      <trkpt lat="46.61874" lon="6.33322">
        <ele>1380</ele>
        <time>2019-05-22T13:11:21Z</time>
      </trkpt>
      <trkpt lat="46.61875" lon="6.33363">
        <ele>1378</ele>
        <time>2019-05-22T13:11:43Z</time>
      </trkpt>
      <trkpt lat="46.61878" lon="6.33376">
        <ele>1378</ele>
        <time>2019-05-22T13:11:50Z</time>
      </trkpt>
      <trkpt lat="46.61883" lon="6.33388">
        <ele>1378</ele>
        <time>2019-05-22T13:11:57Z</time>
      </trkpt>
      <trkpt lat="46.6189" lon="6.33396">
        <ele>1378</ele>
        <time>2019-05-22T13:12:03Z</time>
      </trkpt>
      <trkpt lat="46.61898" lon="6.33404">
        <ele>1377</ele>
        <time>2019-05-22T13:12:11Z</time>
      </trkpt>
      <trkpt lat="46.61907" lon="6.3341">
        <ele>1377</ele>
        <time>2019-05-22T13:12:20Z</time>
      </trkpt>
      <trkpt lat="46.61915" lon="6.33417">
        <ele>1377</ele>
        <time>2019-05-22T13:12:27Z</time>
      </trkpt>
      <trkpt lat="46.61924" lon="6.33422">
        <ele>1377</ele>
        <time>2019-05-22T13:12:34Z</time>
      </trkpt>
      <trkpt lat="46.61938" lon="6.3344">
        <ele>1375</ele>
        <time>2019-05-22T13:12:49Z</time>
      </trkpt>
      <trkpt lat="46.61949" lon="6.33461">
        <ele>1376</ele>
        <time>2019-05-22T13:13:05Z</time>
      </trkpt>
      <trkpt lat="46.6195" lon="6.33475">
        <ele>1376</ele>
        <time>2019-05-22T13:13:13Z</time>
      </trkpt>
      <trkpt lat="46.61957" lon="6.33486">
        <ele>1377</ele>
        <time>2019-05-22T13:13:21Z</time>
      </trkpt>
      <trkpt lat="46.61965" lon="6.33493">
        <ele>1377</ele>
        <time>2019-05-22T13:13:28Z</time>
      </trkpt>
      <trkpt lat="46.61974" lon="6.33499">
        <ele>1376</ele>
        <time>2019-05-22T13:13:38Z</time>
      </trkpt>
      <trkpt lat="46.6199" lon="6.33516">
        <ele>1375</ele>
        <time>2019-05-22T13:13:55Z</time>
      </trkpt>
      <trkpt lat="46.62004" lon="6.33535">
        <ele>1373</ele>
        <time>2019-05-22T13:14:11Z</time>
      </trkpt>
      <trkpt lat="46.62005" lon="6.33549">
        <ele>1372</ele>
        <time>2019-05-22T13:14:19Z</time>
      </trkpt>
      <trkpt lat="46.62009" lon="6.33562">
        <ele>1372</ele>
        <time>2019-05-22T13:14:29Z</time>
      </trkpt>
      <trkpt lat="46.62014" lon="6.33574">
        <ele>1371</ele>
        <time>2019-05-22T13:14:36Z</time>
      </trkpt>
      <trkpt lat="46.6202" lon="6.33583">
        <ele>1370</ele>
        <time>2019-05-22T13:14:42Z</time>
      </trkpt>
      <trkpt lat="46.62029" lon="6.33588">
        <ele>1370</ele>
        <time>2019-05-22T13:14:50Z</time>
      </trkpt>
      <trkpt lat="46.62043" lon="6.33609">
        <ele>1368</ele>
        <time>2019-05-22T13:15:06Z</time>
      </trkpt>
      <trkpt lat="46.62055" lon="6.3363">
        <ele>1364</ele>
        <time>2019-05-22T13:15:22Z</time>
      </trkpt>
      <trkpt lat="46.62062" lon="6.33639">
        <ele>1364</ele>
        <time>2019-05-22T13:15:31Z</time>
      </trkpt>
      <trkpt lat="46.62068" lon="6.3365">
        <ele>1364</ele>
        <time>2019-05-22T13:15:39Z</time>
      </trkpt>
      <trkpt lat="46.62077" lon="6.3369">
        <ele>1360</ele>
        <time>2019-05-22T13:16:06Z</time>
      </trkpt>
      <trkpt lat="46.62082" lon="6.33702">
        <ele>1360</ele>
        <time>2019-05-22T13:16:14Z</time>
      </trkpt>
      <trkpt lat="46.62092" lon="6.33725">
        <ele>1357</ele>
        <time>2019-05-22T13:16:29Z</time>
      </trkpt>
      <trkpt lat="46.62107" lon="6.33741">
        <ele>1353</ele>
        <time>2019-05-22T13:16:44Z</time>
      </trkpt>
      <trkpt lat="46.62113" lon="6.33752">
        <ele>1351</ele>
        <time>2019-05-22T13:16:53Z</time>
      </trkpt>
      <trkpt lat="46.62128" lon="6.33769">
        <ele>1352</ele>
        <time>2019-05-22T13:17:10Z</time>
      </trkpt>
      <trkpt lat="46.62139" lon="6.33776">
        <ele>1350</ele>
        <time>2019-05-22T13:17:20Z</time>
      </trkpt>
      <trkpt lat="46.62146" lon="6.33784">
        <ele>1349</ele>
        <time>2019-05-22T13:17:28Z</time>
      </trkpt>
      <trkpt lat="46.62153" lon="6.33794">
        <ele>1348</ele>
        <time>2019-05-22T13:17:35Z</time>
      </trkpt>
      <trkpt lat="46.62165" lon="6.33816">
        <ele>1347</ele>
        <time>2019-05-22T13:17:50Z</time>
      </trkpt>
      <trkpt lat="46.62195" lon="6.33851">
        <ele>1340</ele>
        <time>2019-05-22T13:18:20Z</time>
      </trkpt>
      <trkpt lat="46.62207" lon="6.33873">
        <ele>1337</ele>
        <time>2019-05-22T13:18:36Z</time>
      </trkpt>
      <trkpt lat="46.62232" lon="6.33909">
        <ele>1333</ele>
        <time>2019-05-22T13:19:02Z</time>
      </trkpt>
      <trkpt lat="46.62236" lon="6.33921">
        <ele>1334</ele>
        <time>2019-05-22T13:19:10Z</time>
      </trkpt>
      <trkpt lat="46.6224" lon="6.33933">
        <ele>1334</ele>
        <time>2019-05-22T13:19:19Z</time>
      </trkpt>
      <trkpt lat="46.62243" lon="6.33946">
        <ele>1333</ele>
        <time>2019-05-22T13:19:26Z</time>
      </trkpt>
      <trkpt lat="46.62251" lon="6.3397">
        <ele>1334</ele>
        <time>2019-05-22T13:19:42Z</time>
      </trkpt>
      <trkpt lat="46.62256" lon="6.33983">
        <ele>1333</ele>
        <time>2019-05-22T13:19:52Z</time>
      </trkpt>
      <trkpt lat="46.62261" lon="6.33995">
        <ele>1333</ele>
        <time>2019-05-22T13:20:00Z</time>
      </trkpt>
      <trkpt lat="46.62271" lon="6.34018">
        <ele>1333</ele>
        <time>2019-05-22T13:20:15Z</time>
      </trkpt>
      <trkpt lat="46.62278" lon="6.34026">
        <ele>1333</ele>
        <time>2019-05-22T13:20:23Z</time>
      </trkpt>
      <trkpt lat="46.62286" lon="6.34034">
        <ele>1331</ele>
        <time>2019-05-22T13:20:30Z</time>
      </trkpt>
      <trkpt lat="46.62302" lon="6.34047">
        <ele>1331</ele>
        <time>2019-05-22T13:20:48Z</time>
      </trkpt>
      <trkpt lat="46.62322" lon="6.34054">
        <ele>1328</ele>
        <time>2019-05-22T13:21:05Z</time>
      </trkpt>
      <trkpt lat="46.62332" lon="6.34051">
        <ele>1326</ele>
        <time>2019-05-22T13:21:14Z</time>
      </trkpt>
      <trkpt lat="46.62364" lon="6.34058">
        <ele>1321</ele>
        <time>2019-05-22T13:21:40Z</time>
      </trkpt>
      <trkpt lat="46.62369" lon="6.34061">
        <ele>1321</ele>
        <time>2019-05-22T13:21:43Z</time>
      </trkpt>
      <trkpt lat="46.62374" lon="6.34063">
        <ele>1320</ele>
        <time>2019-05-22T13:21:48Z</time>
      </trkpt>
      <trkpt lat="46.62379" lon="6.34069">
        <ele>1319</ele>
        <time>2019-05-22T13:21:59Z</time>
      </trkpt>
      <trkpt lat="46.62385" lon="6.34074">
        <ele>1317</ele>
        <time>2019-05-22T13:22:09Z</time>
      </trkpt>
      <trkpt lat="46.62389" lon="6.34078">
        <ele>1317</ele>
        <time>2019-05-22T13:22:13Z</time>
      </trkpt>
      <trkpt lat="46.62393" lon="6.34082">
        <ele>1316</ele>
        <time>2019-05-22T13:22:18Z</time>
      </trkpt>
      <trkpt lat="46.62397" lon="6.34085">
        <ele>1316</ele>
        <time>2019-05-22T13:22:22Z</time>
      </trkpt>
      <trkpt lat="46.62408" lon="6.34092">
        <ele>1314</ele>
        <time>2019-05-22T13:22:34Z</time>
      </trkpt>
      <trkpt lat="46.62425" lon="6.34099">
        <ele>1313</ele>
        <time>2019-05-22T13:22:51Z</time>
      </trkpt>
      <trkpt lat="46.62429" lon="6.34101">
        <ele>1313</ele>
        <time>2019-05-22T13:22:56Z</time>
      </trkpt>
      <trkpt lat="46.62437" lon="6.34109">
        <ele>1312</ele>
        <time>2019-05-22T13:23:07Z</time>
      </trkpt>
      <trkpt lat="46.62446" lon="6.34124">
        <ele>1308</ele>
        <time>2019-05-22T13:23:28Z</time>
      </trkpt>
      <trkpt lat="46.6244" lon="6.34115">
        <ele>1308</ele>
        <time>2019-05-22T13:24:17Z</time>
      </trkpt>
      <trkpt lat="46.62434" lon="6.34105">
        <ele>1308</ele>
        <time>2019-05-22T13:24:27Z</time>
      </trkpt>
      <trkpt lat="46.62432" lon="6.34098">
        <ele>1309</ele>
        <time>2019-05-22T13:24:32Z</time>
      </trkpt>
      <trkpt lat="46.6242" lon="6.34099">
        <ele>1309</ele>
        <time>2019-05-22T13:25:19Z</time>
      </trkpt>
      <trkpt lat="46.62427" lon="6.34093">
        <ele>1310</ele>
        <time>2019-05-22T13:26:07Z</time>
      </trkpt>
      <trkpt lat="46.62424" lon="6.34094">
        <ele>1309</ele>
        <time>2019-05-22T13:27:13Z</time>
      </trkpt>
      <trkpt lat="46.6243" lon="6.34105">
        <ele>1306</ele>
        <time>2019-05-22T13:29:44Z</time>
      </trkpt>
      <trkpt lat="46.62436" lon="6.34111">
        <ele>1310</ele>
        <time>2019-05-22T13:30:20Z</time>
      </trkpt>
      <trkpt lat="46.62442" lon="6.34129">
        <ele>1306</ele>
        <time>2019-05-22T13:30:38Z</time>
      </trkpt>
      <trkpt lat="46.62445" lon="6.34142">
        <ele>1306</ele>
        <time>2019-05-22T13:30:47Z</time>
      </trkpt>
      <trkpt lat="46.62453" lon="6.34159">
        <ele>1305</ele>
        <time>2019-05-22T13:30:59Z</time>
      </trkpt>
      <trkpt lat="46.62461" lon="6.34168">
        <ele>1303</ele>
        <time>2019-05-22T13:31:07Z</time>
      </trkpt>
      <trkpt lat="46.62482" lon="6.34187">
        <ele>1302</ele>
        <time>2019-05-22T13:31:29Z</time>
      </trkpt>
      <trkpt lat="46.62486" lon="6.34192">
        <ele>1302</ele>
        <time>2019-05-22T13:31:34Z</time>
      </trkpt>
      <trkpt lat="46.6249" lon="6.34198">
        <ele>1301</ele>
        <time>2019-05-22T13:31:39Z</time>
      </trkpt>
      <trkpt lat="46.62492" lon="6.34206">
        <ele>1301</ele>
        <time>2019-05-22T13:31:44Z</time>
      </trkpt>
      <trkpt lat="46.62495" lon="6.34213">
        <ele>1301</ele>
        <time>2019-05-22T13:31:49Z</time>
      </trkpt>
      <trkpt lat="46.62497" lon="6.34219">
        <ele>1301</ele>
        <time>2019-05-22T13:31:53Z</time>
      </trkpt>
      <trkpt lat="46.62499" lon="6.34225">
        <ele>1300</ele>
        <time>2019-05-22T13:31:57Z</time>
      </trkpt>
      <trkpt lat="46.62504" lon="6.34239">
        <ele>1300</ele>
        <time>2019-05-22T13:32:05Z</time>
      </trkpt>
      <trkpt lat="46.62505" lon="6.34246">
        <ele>1300</ele>
        <time>2019-05-22T13:32:09Z</time>
      </trkpt>
      <trkpt lat="46.6251" lon="6.34259">
        <ele>1299</ele>
        <time>2019-05-22T13:32:17Z</time>
      </trkpt>
      <trkpt lat="46.62517" lon="6.34285">
        <ele>1298</ele>
        <time>2019-05-22T13:32:33Z</time>
      </trkpt>
      <trkpt lat="46.62521" lon="6.34297">
        <ele>1298</ele>
        <time>2019-05-22T13:32:41Z</time>
      </trkpt>
      <trkpt lat="46.62528" lon="6.34322">
        <ele>1297</ele>
        <time>2019-05-22T13:32:56Z</time>
      </trkpt>
      <trkpt lat="46.62532" lon="6.34334">
        <ele>1298</ele>
        <time>2019-05-22T13:33:04Z</time>
      </trkpt>
      <trkpt lat="46.62532" lon="6.34342">
        <ele>1298</ele>
        <time>2019-05-22T13:33:09Z</time>
      </trkpt>
      <trkpt lat="46.62534" lon="6.34349">
        <ele>1298</ele>
        <time>2019-05-22T13:33:13Z</time>
      </trkpt>
      <trkpt lat="46.6254" lon="6.3437">
        <ele>1296</ele>
        <time>2019-05-22T13:33:26Z</time>
      </trkpt>
      <trkpt lat="46.6254" lon="6.34378">
        <ele>1296</ele>
        <time>2019-05-22T13:33:31Z</time>
      </trkpt>
      <trkpt lat="46.6254" lon="6.34385">
        <ele>1295</ele>
        <time>2019-05-22T13:33:35Z</time>
      </trkpt>
      <trkpt lat="46.62543" lon="6.34408">
        <ele>1295</ele>
        <time>2019-05-22T13:33:50Z</time>
      </trkpt>
      <trkpt lat="46.62546" lon="6.3443">
        <ele>1293</ele>
        <time>2019-05-22T13:34:02Z</time>
      </trkpt>
      <trkpt lat="46.62547" lon="6.34437">
        <ele>1293</ele>
        <time>2019-05-22T13:34:06Z</time>
      </trkpt>
      <trkpt lat="46.62548" lon="6.34444">
        <ele>1293</ele>
        <time>2019-05-22T13:34:10Z</time>
      </trkpt>
      <trkpt lat="46.62549" lon="6.34452">
        <ele>1293</ele>
        <time>2019-05-22T13:34:15Z</time>
      </trkpt>
      <trkpt lat="46.62549" lon="6.34459">
        <ele>1293</ele>
        <time>2019-05-22T13:34:19Z</time>
      </trkpt>
      <trkpt lat="46.62551" lon="6.34465">
        <ele>1292</ele>
        <time>2019-05-22T13:34:23Z</time>
      </trkpt>
      <trkpt lat="46.62555" lon="6.34471">
        <ele>1291</ele>
        <time>2019-05-22T13:34:27Z</time>
      </trkpt>
      <trkpt lat="46.62557" lon="6.34477">
        <ele>1291</ele>
        <time>2019-05-22T13:34:32Z</time>
      </trkpt>
      <trkpt lat="46.6256" lon="6.34482">
        <ele>1290</ele>
        <time>2019-05-22T13:34:36Z</time>
      </trkpt>
      <trkpt lat="46.6257" lon="6.34489">
        <ele>1289</ele>
        <time>2019-05-22T13:34:44Z</time>
      </trkpt>
      <trkpt lat="46.62575" lon="6.34491">
        <ele>1289</ele>
        <time>2019-05-22T13:34:48Z</time>
      </trkpt>
      <trkpt lat="46.6258" lon="6.34493">
        <ele>1290</ele>
        <time>2019-05-22T13:34:52Z</time>
      </trkpt>
      <trkpt lat="46.62584" lon="6.34496">
        <ele>1290</ele>
        <time>2019-05-22T13:34:56Z</time>
      </trkpt>
      <trkpt lat="46.62594" lon="6.345">
        <ele>1290</ele>
        <time>2019-05-22T13:35:06Z</time>
      </trkpt>
      <trkpt lat="46.62599" lon="6.34502">
        <ele>1291</ele>
        <time>2019-05-22T13:35:10Z</time>
      </trkpt>
      <trkpt lat="46.62608" lon="6.34507">
        <ele>1290</ele>
        <time>2019-05-22T13:35:18Z</time>
      </trkpt>
      <trkpt lat="46.62617" lon="6.34515">
        <ele>1291</ele>
        <time>2019-05-22T13:35:26Z</time>
      </trkpt>
      <trkpt lat="46.62621" lon="6.34518">
        <ele>1290</ele>
        <time>2019-05-22T13:35:30Z</time>
      </trkpt>
      <trkpt lat="46.62643" lon="6.3454">
        <ele>1289</ele>
        <time>2019-05-22T13:35:50Z</time>
      </trkpt>
      <trkpt lat="46.6265" lon="6.3455">
        <ele>1289</ele>
        <time>2019-05-22T13:35:58Z</time>
      </trkpt>
      <trkpt lat="46.62655" lon="6.34554">
        <ele>1289</ele>
        <time>2019-05-22T13:36:03Z</time>
      </trkpt>
      <trkpt lat="46.6266" lon="6.34558">
        <ele>1289</ele>
        <time>2019-05-22T13:36:07Z</time>
      </trkpt>
      <trkpt lat="46.62668" lon="6.34567">
        <ele>1287</ele>
        <time>2019-05-22T13:36:15Z</time>
      </trkpt>
      <trkpt lat="46.62672" lon="6.3457">
        <ele>1287</ele>
        <time>2019-05-22T13:36:19Z</time>
      </trkpt>
      <trkpt lat="46.62677" lon="6.34576">
        <ele>1288</ele>
        <time>2019-05-22T13:36:23Z</time>
      </trkpt>
      <trkpt lat="46.62681" lon="6.34581">
        <ele>1287</ele>
        <time>2019-05-22T13:36:27Z</time>
      </trkpt>
      <trkpt lat="46.62684" lon="6.34586">
        <ele>1288</ele>
        <time>2019-05-22T13:36:31Z</time>
      </trkpt>
      <trkpt lat="46.62692" lon="6.34594">
        <ele>1288</ele>
        <time>2019-05-22T13:36:38Z</time>
      </trkpt>
      <trkpt lat="46.62696" lon="6.34599">
        <ele>1287</ele>
        <time>2019-05-22T13:36:42Z</time>
      </trkpt>
      <trkpt lat="46.627" lon="6.34604">
        <ele>1288</ele>
        <time>2019-05-22T13:36:46Z</time>
      </trkpt>
      <trkpt lat="46.62708" lon="6.34613">
        <ele>1287</ele>
        <time>2019-05-22T13:36:54Z</time>
      </trkpt>
      <trkpt lat="46.62713" lon="6.34616">
        <ele>1287</ele>
        <time>2019-05-22T13:36:58Z</time>
      </trkpt>
      <trkpt lat="46.62717" lon="6.3462">
        <ele>1286</ele>
        <time>2019-05-22T13:37:02Z</time>
      </trkpt>
      <trkpt lat="46.6272" lon="6.34626">
        <ele>1286</ele>
        <time>2019-05-22T13:37:06Z</time>
      </trkpt>
      <trkpt lat="46.62724" lon="6.3463">
        <ele>1286</ele>
        <time>2019-05-22T13:37:10Z</time>
      </trkpt>
      <trkpt lat="46.62732" lon="6.3464">
        <ele>1287</ele>
        <time>2019-05-22T13:37:18Z</time>
      </trkpt>
      <trkpt lat="46.62737" lon="6.34644">
        <ele>1287</ele>
        <time>2019-05-22T13:37:22Z</time>
      </trkpt>
      <trkpt lat="46.62746" lon="6.34653">
        <ele>1287</ele>
        <time>2019-05-22T13:37:30Z</time>
      </trkpt>
      <trkpt lat="46.62749" lon="6.34658">
        <ele>1287</ele>
        <time>2019-05-22T13:37:34Z</time>
      </trkpt>
      <trkpt lat="46.62761" lon="6.34673">
        <ele>1287</ele>
        <time>2019-05-22T13:37:46Z</time>
      </trkpt>
      <trkpt lat="46.62768" lon="6.34681">
        <ele>1288</ele>
        <time>2019-05-22T13:37:54Z</time>
      </trkpt>
      <trkpt lat="46.62785" lon="6.34698">
        <ele>1288</ele>
        <time>2019-05-22T13:38:12Z</time>
      </trkpt>
      <trkpt lat="46.62791" lon="6.34712">
        <ele>1288</ele>
        <time>2019-05-22T13:38:20Z</time>
      </trkpt>
      <trkpt lat="46.62794" lon="6.34719">
        <ele>1288</ele>
        <time>2019-05-22T13:38:24Z</time>
      </trkpt>
      <trkpt lat="46.62795" lon="6.34726">
        <ele>1287</ele>
        <time>2019-05-22T13:38:28Z</time>
      </trkpt>
      <trkpt lat="46.62797" lon="6.34741">
        <ele>1287</ele>
        <time>2019-05-22T13:38:36Z</time>
      </trkpt>
      <trkpt lat="46.62799" lon="6.34748">
        <ele>1287</ele>
        <time>2019-05-22T13:38:40Z</time>
      </trkpt>
      <trkpt lat="46.62802" lon="6.34763">
        <ele>1287</ele>
        <time>2019-05-22T13:38:48Z</time>
      </trkpt>
      <trkpt lat="46.62804" lon="6.3477">
        <ele>1288</ele>
        <time>2019-05-22T13:38:52Z</time>
      </trkpt>
      <trkpt lat="46.62806" lon="6.34784">
        <ele>1289</ele>
        <time>2019-05-22T13:39:00Z</time>
      </trkpt>
      <trkpt lat="46.62808" lon="6.34791">
        <ele>1289</ele>
        <time>2019-05-22T13:39:04Z</time>
      </trkpt>
      <trkpt lat="46.62811" lon="6.34797">
        <ele>1289</ele>
        <time>2019-05-22T13:39:08Z</time>
      </trkpt>
      <trkpt lat="46.62816" lon="6.34801">
        <ele>1288</ele>
        <time>2019-05-22T13:39:12Z</time>
      </trkpt>
      <trkpt lat="46.62821" lon="6.34805">
        <ele>1289</ele>
        <time>2019-05-22T13:39:16Z</time>
      </trkpt>
      <trkpt lat="46.62825" lon="6.34808">
        <ele>1289</ele>
        <time>2019-05-22T13:39:20Z</time>
      </trkpt>
      <trkpt lat="46.62829" lon="6.34811">
        <ele>1288</ele>
        <time>2019-05-22T13:39:24Z</time>
      </trkpt>
      <trkpt lat="46.62838" lon="6.34819">
        <ele>1289</ele>
        <time>2019-05-22T13:39:32Z</time>
      </trkpt>
      <trkpt lat="46.62842" lon="6.34822">
        <ele>1289</ele>
        <time>2019-05-22T13:39:36Z</time>
      </trkpt>
      <trkpt lat="46.62847" lon="6.34824">
        <ele>1289</ele>
        <time>2019-05-22T13:39:40Z</time>
      </trkpt>
      <trkpt lat="46.62852" lon="6.34826">
        <ele>1288</ele>
        <time>2019-05-22T13:39:44Z</time>
      </trkpt>
      <trkpt lat="46.62857" lon="6.34829">
        <ele>1288</ele>
        <time>2019-05-22T13:39:48Z</time>
      </trkpt>
      <trkpt lat="46.62861" lon="6.34832">
        <ele>1289</ele>
        <time>2019-05-22T13:39:52Z</time>
      </trkpt>
      <trkpt lat="46.62866" lon="6.34835">
        <ele>1288</ele>
        <time>2019-05-22T13:39:56Z</time>
      </trkpt>
      <trkpt lat="46.62875" lon="6.34838">
        <ele>1288</ele>
        <time>2019-05-22T13:40:04Z</time>
      </trkpt>
      <trkpt lat="46.6288" lon="6.34838">
        <ele>1289</ele>
        <time>2019-05-22T13:40:08Z</time>
      </trkpt>
      <trkpt lat="46.62891" lon="6.34839">
        <ele>1288</ele>
        <time>2019-05-22T13:40:17Z</time>
      </trkpt>
      <trkpt lat="46.62896" lon="6.34839">
        <ele>1288</ele>
        <time>2019-05-22T13:40:21Z</time>
      </trkpt>
      <trkpt lat="46.62902" lon="6.34842">
        <ele>1288</ele>
        <time>2019-05-22T13:40:26Z</time>
      </trkpt>
      <trkpt lat="46.62907" lon="6.34843">
        <ele>1288</ele>
        <time>2019-05-22T13:40:30Z</time>
      </trkpt>
      <trkpt lat="46.62936" lon="6.34847">
        <ele>1289</ele>
        <time>2019-05-22T13:40:55Z</time>
      </trkpt>
      <trkpt lat="46.62944" lon="6.34852">
        <ele>1291</ele>
        <time>2019-05-22T13:41:03Z</time>
      </trkpt>
      <trkpt lat="46.62953" lon="6.34859">
        <ele>1292</ele>
        <time>2019-05-22T13:41:12Z</time>
      </trkpt>
      <trkpt lat="46.62962" lon="6.34865">
        <ele>1292</ele>
        <time>2019-05-22T13:41:21Z</time>
      </trkpt>
      <trkpt lat="46.62971" lon="6.34869">
        <ele>1291</ele>
        <time>2019-05-22T13:41:30Z</time>
      </trkpt>
      <trkpt lat="46.62981" lon="6.34869">
        <ele>1292</ele>
        <time>2019-05-22T13:41:37Z</time>
      </trkpt>
      <trkpt lat="46.62991" lon="6.34871">
        <ele>1292</ele>
        <time>2019-05-22T13:41:46Z</time>
      </trkpt>
      <trkpt lat="46.63019" lon="6.34881">
        <ele>1294</ele>
        <time>2019-05-22T13:42:11Z</time>
      </trkpt>
      <trkpt lat="46.63023" lon="6.34881">
        <ele>1295</ele>
        <time>2019-05-22T13:42:15Z</time>
      </trkpt>
      <trkpt lat="46.63028" lon="6.3488">
        <ele>1295</ele>
        <time>2019-05-22T13:42:19Z</time>
      </trkpt>
      <trkpt lat="46.63032" lon="6.3488">
        <ele>1295</ele>
        <time>2019-05-22T13:42:23Z</time>
      </trkpt>
      <trkpt lat="46.63037" lon="6.34882">
        <ele>1296</ele>
        <time>2019-05-22T13:42:27Z</time>
      </trkpt>
      <trkpt lat="46.63042" lon="6.34881">
        <ele>1296</ele>
        <time>2019-05-22T13:42:32Z</time>
      </trkpt>
      <trkpt lat="46.63047" lon="6.3488">
        <ele>1295</ele>
        <time>2019-05-22T13:42:36Z</time>
      </trkpt>
      <trkpt lat="46.63062" lon="6.34878">
        <ele>1297</ele>
        <time>2019-05-22T13:42:48Z</time>
      </trkpt>
      <trkpt lat="46.63066" lon="6.34876">
        <ele>1298</ele>
        <time>2019-05-22T13:42:53Z</time>
      </trkpt>
      <trkpt lat="46.63083" lon="6.34876">
        <ele>1303</ele>
        <time>2019-05-22T13:43:08Z</time>
      </trkpt>
      <trkpt lat="46.63097" lon="6.34879">
        <ele>1306</ele>
        <time>2019-05-22T13:43:20Z</time>
      </trkpt>
      <trkpt lat="46.63111" lon="6.3489">
        <ele>1309</ele>
        <time>2019-05-22T13:43:34Z</time>
      </trkpt>
      <trkpt lat="46.63109" lon="6.34935">
        <ele>1311</ele>
        <time>2019-05-22T13:44:58Z</time>
      </trkpt>
      <trkpt lat="46.63108" lon="6.34944">
        <ele>1310</ele>
        <time>2019-05-22T13:45:06Z</time>
      </trkpt>
      <trkpt lat="46.63113" lon="6.34969">
        <ele>1307</ele>
        <time>2019-05-22T13:45:31Z</time>
      </trkpt>
      <trkpt lat="46.63115" lon="6.34975">
        <ele>1307</ele>
        <time>2019-05-22T13:45:35Z</time>
      </trkpt>
      <trkpt lat="46.63127" lon="6.35">
        <ele>1304</ele>
        <time>2019-05-22T13:45:52Z</time>
      </trkpt>
      <trkpt lat="46.63132" lon="6.35001">
        <ele>1304</ele>
        <time>2019-05-22T13:45:56Z</time>
      </trkpt>
      <trkpt lat="46.63143" lon="6.35018">
        <ele>1303</ele>
        <time>2019-05-22T13:46:12Z</time>
      </trkpt>
      <trkpt lat="46.63148" lon="6.35021">
        <ele>1302</ele>
        <time>2019-05-22T13:46:16Z</time>
      </trkpt>
      <trkpt lat="46.63152" lon="6.35035">
        <ele>1301</ele>
        <time>2019-05-22T13:46:24Z</time>
      </trkpt>
      <trkpt lat="46.6316" lon="6.35043">
        <ele>1302</ele>
        <time>2019-05-22T13:46:33Z</time>
      </trkpt>
      <trkpt lat="46.63175" lon="6.3506">
        <ele>1302</ele>
        <time>2019-05-22T13:46:48Z</time>
      </trkpt>
      <trkpt lat="46.63175" lon="6.35067">
        <ele>1301</ele>
        <time>2019-05-22T13:46:52Z</time>
      </trkpt>
      <trkpt lat="46.63172" lon="6.3507">
        <ele>1299</ele>
        <time>2019-05-22T13:48:30Z</time>
      </trkpt>
      <trkpt lat="46.63169" lon="6.35076">
        <ele>1301</ele>
        <time>2019-05-22T13:48:33Z</time>
      </trkpt>
      <trkpt lat="46.63173" lon="6.35081">
        <ele>1301</ele>
        <time>2019-05-22T13:48:38Z</time>
      </trkpt>
      <trkpt lat="46.63175" lon="6.35091">
        <ele>1301</ele>
        <time>2019-05-22T13:48:46Z</time>
      </trkpt>
      <trkpt lat="46.63176" lon="6.351">
        <ele>1300</ele>
        <time>2019-05-22T13:48:52Z</time>
      </trkpt>
      <trkpt lat="46.63177" lon="6.35106">
        <ele>1300</ele>
        <time>2019-05-22T13:48:55Z</time>
      </trkpt>
      <trkpt lat="46.63179" lon="6.35112">
        <ele>1300</ele>
        <time>2019-05-22T13:48:59Z</time>
      </trkpt>
      <trkpt lat="46.63183" lon="6.35118">
        <ele>1300</ele>
        <time>2019-05-22T13:49:04Z</time>
      </trkpt>
      <trkpt lat="46.63185" lon="6.35124">
        <ele>1299</ele>
        <time>2019-05-22T13:49:08Z</time>
      </trkpt>
      <trkpt lat="46.63188" lon="6.35138">
        <ele>1298</ele>
        <time>2019-05-22T13:49:16Z</time>
      </trkpt>
      <trkpt lat="46.63197" lon="6.35155">
        <ele>1297</ele>
        <time>2019-05-22T13:49:28Z</time>
      </trkpt>
      <trkpt lat="46.63201" lon="6.35167">
        <ele>1297</ele>
        <time>2019-05-22T13:49:36Z</time>
      </trkpt>
      <trkpt lat="46.63207" lon="6.35178">
        <ele>1297</ele>
        <time>2019-05-22T13:49:43Z</time>
      </trkpt>
      <trkpt lat="46.63215" lon="6.35186">
        <ele>1295</ele>
        <time>2019-05-22T13:49:50Z</time>
      </trkpt>
      <trkpt lat="46.63222" lon="6.35195">
        <ele>1295</ele>
        <time>2019-05-22T13:49:58Z</time>
      </trkpt>
      <trkpt lat="46.63227" lon="6.35201">
        <ele>1295</ele>
        <time>2019-05-22T13:50:03Z</time>
      </trkpt>
      <trkpt lat="46.63234" lon="6.35201">
        <ele>1293</ele>
        <time>2019-05-22T13:50:24Z</time>
      </trkpt>
      <trkpt lat="46.63237" lon="6.35207">
        <ele>1293</ele>
        <time>2019-05-22T13:50:28Z</time>
      </trkpt>
      <trkpt lat="46.63247" lon="6.35213">
        <ele>1295</ele>
        <time>2019-05-22T13:50:38Z</time>
      </trkpt>
      <trkpt lat="46.63256" lon="6.3523">
        <ele>1294</ele>
        <time>2019-05-22T13:50:52Z</time>
      </trkpt>
      <trkpt lat="46.63261" lon="6.35234">
        <ele>1293</ele>
        <time>2019-05-22T13:50:57Z</time>
      </trkpt>
      <trkpt lat="46.63263" lon="6.35241">
        <ele>1293</ele>
        <time>2019-05-22T13:51:01Z</time>
      </trkpt>
      <trkpt lat="46.63269" lon="6.35252">
        <ele>1292</ele>
        <time>2019-05-22T13:51:10Z</time>
      </trkpt>
      <trkpt lat="46.63292" lon="6.35275">
        <ele>1290</ele>
        <time>2019-05-22T13:51:33Z</time>
      </trkpt>
      <trkpt lat="46.63298" lon="6.35288">
        <ele>1289</ele>
        <time>2019-05-22T13:51:41Z</time>
      </trkpt>
      <trkpt lat="46.63305" lon="6.35296">
        <ele>1290</ele>
        <time>2019-05-22T13:51:48Z</time>
      </trkpt>
      <trkpt lat="46.63308" lon="6.3531">
        <ele>1290</ele>
        <time>2019-05-22T13:51:56Z</time>
      </trkpt>
      <trkpt lat="46.63312" lon="6.35322">
        <ele>1290</ele>
        <time>2019-05-22T13:52:03Z</time>
      </trkpt>
      <trkpt lat="46.63318" lon="6.35332">
        <ele>1290</ele>
        <time>2019-05-22T13:52:11Z</time>
      </trkpt>
      <trkpt lat="46.63326" lon="6.35339">
        <ele>1290</ele>
        <time>2019-05-22T13:52:18Z</time>
      </trkpt>
      <trkpt lat="46.63335" lon="6.35345">
        <ele>1289</ele>
        <time>2019-05-22T13:52:25Z</time>
      </trkpt>
      <trkpt lat="46.63348" lon="6.35349">
        <ele>1288</ele>
        <time>2019-05-22T13:52:33Z</time>
      </trkpt>
      <trkpt lat="46.63354" lon="6.35361">
        <ele>1288</ele>
        <time>2019-05-22T13:52:42Z</time>
      </trkpt>
      <trkpt lat="46.63358" lon="6.35373">
        <ele>1287</ele>
        <time>2019-05-22T13:52:49Z</time>
      </trkpt>
      <trkpt lat="46.63365" lon="6.35383">
        <ele>1286</ele>
        <time>2019-05-22T13:52:57Z</time>
      </trkpt>
      <trkpt lat="46.63381" lon="6.35397">
        <ele>1286</ele>
        <time>2019-05-22T13:53:13Z</time>
      </trkpt>
      <trkpt lat="46.63383" lon="6.35411">
        <ele>1284</ele>
        <time>2019-05-22T13:53:20Z</time>
      </trkpt>
      <trkpt lat="46.63387" lon="6.35424">
        <ele>1285</ele>
        <time>2019-05-22T13:53:27Z</time>
      </trkpt>
      <trkpt lat="46.63393" lon="6.35435">
        <ele>1283</ele>
        <time>2019-05-22T13:53:35Z</time>
      </trkpt>
      <trkpt lat="46.63401" lon="6.35442">
        <ele>1283</ele>
        <time>2019-05-22T13:53:44Z</time>
      </trkpt>
      <trkpt lat="46.63416" lon="6.35447">
        <ele>1283</ele>
        <time>2019-05-22T13:53:59Z</time>
      </trkpt>
      <trkpt lat="46.63425" lon="6.35454">
        <ele>1283</ele>
        <time>2019-05-22T13:54:07Z</time>
      </trkpt>
      <trkpt lat="46.63444" lon="6.35461">
        <ele>1282</ele>
        <time>2019-05-22T13:54:24Z</time>
      </trkpt>
      <trkpt lat="46.63462" lon="6.35464">
        <ele>1281</ele>
        <time>2019-05-22T13:54:41Z</time>
      </trkpt>
      <trkpt lat="46.6347" lon="6.35469">
        <ele>1281</ele>
        <time>2019-05-22T13:54:48Z</time>
      </trkpt>
      <trkpt lat="46.63478" lon="6.35478">
        <ele>1280</ele>
        <time>2019-05-22T13:54:57Z</time>
      </trkpt>
      <trkpt lat="46.63489" lon="6.35479">
        <ele>1280</ele>
        <time>2019-05-22T13:55:04Z</time>
      </trkpt>
      <trkpt lat="46.63502" lon="6.35486">
        <ele>1280</ele>
        <time>2019-05-22T13:55:15Z</time>
      </trkpt>
      <trkpt lat="46.63528" lon="6.35503">
        <ele>1278</ele>
        <time>2019-05-22T13:55:41Z</time>
      </trkpt>
      <trkpt lat="46.63535" lon="6.35511">
        <ele>1278</ele>
        <time>2019-05-22T13:55:50Z</time>
      </trkpt>
      <trkpt lat="46.63545" lon="6.35512">
        <ele>1277</ele>
        <time>2019-05-22T13:55:58Z</time>
      </trkpt>
      <trkpt lat="46.63552" lon="6.3552">
        <ele>1276</ele>
        <time>2019-05-22T13:56:06Z</time>
      </trkpt>
      <trkpt lat="46.63561" lon="6.35524">
        <ele>1275</ele>
        <time>2019-05-22T13:56:12Z</time>
      </trkpt>
      <trkpt lat="46.63571" lon="6.35524">
        <ele>1273</ele>
        <time>2019-05-22T13:56:19Z</time>
      </trkpt>
      <trkpt lat="46.63589" lon="6.35537">
        <ele>1272</ele>
        <time>2019-05-22T13:56:37Z</time>
      </trkpt>
      <trkpt lat="46.63598" lon="6.35537">
        <ele>1271</ele>
        <time>2019-05-22T13:56:46Z</time>
      </trkpt>
      <trkpt lat="46.63625" lon="6.35552">
        <ele>1266</ele>
        <time>2019-05-22T13:57:07Z</time>
      </trkpt>
      <trkpt lat="46.63632" lon="6.35564">
        <ele>1264</ele>
        <time>2019-05-22T13:57:16Z</time>
      </trkpt>
      <trkpt lat="46.63658" lon="6.35584">
        <ele>1261</ele>
        <time>2019-05-22T13:57:40Z</time>
      </trkpt>
      <trkpt lat="46.63695" lon="6.35605">
        <ele>1256</ele>
        <time>2019-05-22T13:58:15Z</time>
      </trkpt>
      <trkpt lat="46.63705" lon="6.35611">
        <ele>1254</ele>
        <time>2019-05-22T13:58:22Z</time>
      </trkpt>
      <trkpt lat="46.63713" lon="6.3562">
        <ele>1253</ele>
        <time>2019-05-22T13:58:31Z</time>
      </trkpt>
      <trkpt lat="46.63719" lon="6.35631">
        <ele>1252</ele>
        <time>2019-05-22T13:58:38Z</time>
      </trkpt>
      <trkpt lat="46.63727" lon="6.35639">
        <ele>1251</ele>
        <time>2019-05-22T13:58:45Z</time>
      </trkpt>
      <trkpt lat="46.63736" lon="6.35645">
        <ele>1251</ele>
        <time>2019-05-22T13:58:51Z</time>
      </trkpt>
      <trkpt lat="46.63744" lon="6.35651">
        <ele>1250</ele>
        <time>2019-05-22T13:58:58Z</time>
      </trkpt>
      <trkpt lat="46.63754" lon="6.35663">
        <ele>1249</ele>
        <time>2019-05-22T13:59:11Z</time>
      </trkpt>
      <trkpt lat="46.63765" lon="6.3567">
        <ele>1248</ele>
        <time>2019-05-22T13:59:21Z</time>
      </trkpt>
      <trkpt lat="46.63779" lon="6.35673">
        <ele>1248</ele>
        <time>2019-05-22T13:59:38Z</time>
      </trkpt>
      <trkpt lat="46.63785" lon="6.35662">
        <ele>1247</ele>
        <time>2019-05-22T13:59:44Z</time>
      </trkpt>
      <trkpt lat="46.63793" lon="6.35657">
        <ele>1247</ele>
        <time>2019-05-22T13:59:50Z</time>
      </trkpt>
      <trkpt lat="46.63814" lon="6.35653">
        <ele>1245</ele>
        <time>2019-05-22T14:00:14Z</time>
      </trkpt>
      <trkpt lat="46.63877" lon="6.35627">
        <ele>1235</ele>
        <time>2019-05-22T14:03:25Z</time>
      </trkpt>
      <trkpt lat="46.63887" lon="6.35626">
        <ele>1236</ele>
        <time>2019-05-22T14:03:31Z</time>
      </trkpt>
      <trkpt lat="46.63899" lon="6.35616">
        <ele>1235</ele>
        <time>2019-05-22T14:03:49Z</time>
      </trkpt>
      <trkpt lat="46.63911" lon="6.35616">
        <ele>1234</ele>
        <time>2019-05-22T14:03:59Z</time>
      </trkpt>
      <trkpt lat="46.6392" lon="6.35613">
        <ele>1234</ele>
        <time>2019-05-22T14:04:08Z</time>
      </trkpt>
      <trkpt lat="46.63939" lon="6.35624">
        <ele>1234</ele>
        <time>2019-05-22T14:04:26Z</time>
      </trkpt>
      <trkpt lat="46.63953" lon="6.35634">
        <ele>1232</ele>
        <time>2019-05-22T14:04:44Z</time>
      </trkpt>
      <trkpt lat="46.63961" lon="6.35639">
        <ele>1232</ele>
        <time>2019-05-22T14:04:51Z</time>
      </trkpt>
      <trkpt lat="46.63969" lon="6.3565">
        <ele>1232</ele>
        <time>2019-05-22T14:05:00Z</time>
      </trkpt>
      <trkpt lat="46.63977" lon="6.35657">
        <ele>1230</ele>
        <time>2019-05-22T14:05:08Z</time>
      </trkpt>
      <trkpt lat="46.63985" lon="6.35664">
        <ele>1231</ele>
        <time>2019-05-22T14:05:16Z</time>
      </trkpt>
      <trkpt lat="46.64009" lon="6.35669">
        <ele>1229</ele>
        <time>2019-05-22T14:05:35Z</time>
      </trkpt>
      <trkpt lat="46.64018" lon="6.35665">
        <ele>1229</ele>
        <time>2019-05-22T14:05:44Z</time>
      </trkpt>
      <trkpt lat="46.64027" lon="6.35664">
        <ele>1228</ele>
        <time>2019-05-22T14:05:53Z</time>
      </trkpt>
      <trkpt lat="46.64037" lon="6.35659">
        <ele>1228</ele>
        <time>2019-05-22T14:06:06Z</time>
      </trkpt>
      <trkpt lat="46.64047" lon="6.3566">
        <ele>1227</ele>
        <time>2019-05-22T14:06:14Z</time>
      </trkpt>
      <trkpt lat="46.64063" lon="6.35694">
        <ele>1225</ele>
        <time>2019-05-22T14:06:50Z</time>
      </trkpt>
      <trkpt lat="46.6407" lon="6.35702">
        <ele>1222</ele>
        <time>2019-05-22T14:07:03Z</time>
      </trkpt>
      <trkpt lat="46.6408" lon="6.35704">
        <ele>1221</ele>
        <time>2019-05-22T14:07:12Z</time>
      </trkpt>
      <trkpt lat="46.64091" lon="6.35743">
        <ele>1216</ele>
        <time>2019-05-22T14:07:47Z</time>
      </trkpt>
      <trkpt lat="46.64093" lon="6.35758">
        <ele>1214</ele>
        <time>2019-05-22T14:07:59Z</time>
      </trkpt>
      <trkpt lat="46.641" lon="6.35781">
        <ele>1211</ele>
        <time>2019-05-22T14:08:17Z</time>
      </trkpt>
      <trkpt lat="46.64103" lon="6.358">
        <ele>1208</ele>
        <time>2019-05-22T14:08:33Z</time>
      </trkpt>
      <trkpt lat="46.64102" lon="6.35829">
        <ele>1200</ele>
        <time>2019-05-22T14:09:09Z</time>
      </trkpt>
      <trkpt lat="46.64106" lon="6.35854">
        <ele>1198</ele>
        <time>2019-05-22T14:09:29Z</time>
      </trkpt>
      <trkpt lat="46.64114" lon="6.35863">
        <ele>1197</ele>
        <time>2019-05-22T14:09:36Z</time>
      </trkpt>
      <trkpt lat="46.64129" lon="6.35881">
        <ele>1194</ele>
        <time>2019-05-22T14:09:53Z</time>
      </trkpt>
      <trkpt lat="46.64136" lon="6.3589">
        <ele>1195</ele>
        <time>2019-05-22T14:10:02Z</time>
      </trkpt>
      <trkpt lat="46.64163" lon="6.35904">
        <ele>1192</ele>
        <time>2019-05-22T14:10:28Z</time>
      </trkpt>
      <trkpt lat="46.64182" lon="6.35911">
        <ele>1191</ele>
        <time>2019-05-22T14:10:43Z</time>
      </trkpt>
      <trkpt lat="46.64191" lon="6.35912">
        <ele>1192</ele>
        <time>2019-05-22T14:10:51Z</time>
      </trkpt>
      <trkpt lat="46.64201" lon="6.35918">
        <ele>1192</ele>
        <time>2019-05-22T14:11:00Z</time>
      </trkpt>
      <trkpt lat="46.6421" lon="6.35919">
        <ele>1192</ele>
        <time>2019-05-22T14:11:09Z</time>
      </trkpt>
      <trkpt lat="46.6422" lon="6.3592">
        <ele>1191</ele>
        <time>2019-05-22T14:11:17Z</time>
      </trkpt>
      <trkpt lat="46.64229" lon="6.3592">
        <ele>1192</ele>
        <time>2019-05-22T14:11:26Z</time>
      </trkpt>
      <trkpt lat="46.64239" lon="6.35916">
        <ele>1193</ele>
        <time>2019-05-22T14:11:36Z</time>
      </trkpt>
      <trkpt lat="46.64249" lon="6.35914">
        <ele>1193</ele>
        <time>2019-05-22T14:11:43Z</time>
      </trkpt>
      <trkpt lat="46.64258" lon="6.35911">
        <ele>1194</ele>
        <time>2019-05-22T14:11:51Z</time>
      </trkpt>
      <trkpt lat="46.64267" lon="6.35907">
        <ele>1194</ele>
        <time>2019-05-22T14:12:00Z</time>
      </trkpt>
      <trkpt lat="46.64287" lon="6.35901">
        <ele>1196</ele>
        <time>2019-05-22T14:12:15Z</time>
      </trkpt>
      <trkpt lat="46.64292" lon="6.359">
        <ele>1195</ele>
        <time>2019-05-22T14:12:19Z</time>
      </trkpt>
      <trkpt lat="46.64297" lon="6.359">
        <ele>1195</ele>
        <time>2019-05-22T14:12:23Z</time>
      </trkpt>
      <trkpt lat="46.64313" lon="6.35895">
        <ele>1196</ele>
        <time>2019-05-22T14:12:40Z</time>
      </trkpt>
      <trkpt lat="46.64318" lon="6.35895">
        <ele>1196</ele>
        <time>2019-05-22T14:12:44Z</time>
      </trkpt>
      <trkpt lat="46.64324" lon="6.35895">
        <ele>1198</ele>
        <time>2019-05-22T14:12:48Z</time>
      </trkpt>
      <trkpt lat="46.64335" lon="6.35895">
        <ele>1198</ele>
        <time>2019-05-22T14:12:56Z</time>
      </trkpt>
      <trkpt lat="46.64339" lon="6.35894">
        <ele>1197</ele>
        <time>2019-05-22T14:13:00Z</time>
      </trkpt>
      <trkpt lat="46.64349" lon="6.35895">
        <ele>1198</ele>
        <time>2019-05-22T14:13:08Z</time>
      </trkpt>
      <trkpt lat="46.64354" lon="6.35894">
        <ele>1198</ele>
        <time>2019-05-22T14:13:13Z</time>
      </trkpt>
      <trkpt lat="46.64358" lon="6.35893">
        <ele>1198</ele>
        <time>2019-05-22T14:13:17Z</time>
      </trkpt>
      <trkpt lat="46.64373" lon="6.35891">
        <ele>1198</ele>
        <time>2019-05-22T14:13:29Z</time>
      </trkpt>
      <trkpt lat="46.64378" lon="6.35892">
        <ele>1198</ele>
        <time>2019-05-22T14:13:34Z</time>
      </trkpt>
      <trkpt lat="46.64378" lon="6.35895">
        <ele>1201</ele>
        <time>2019-05-22T14:17:24Z</time>
      </trkpt>
      <trkpt lat="46.64385" lon="6.35899">
        <ele>1201</ele>
        <time>2019-05-22T14:18:04Z</time>
      </trkpt>
      <trkpt lat="46.6439" lon="6.35898">
        <ele>1202</ele>
        <time>2019-05-22T14:18:07Z</time>
      </trkpt>
      <trkpt lat="46.64405" lon="6.35895">
        <ele>1200</ele>
        <time>2019-05-22T14:18:22Z</time>
      </trkpt>
      <trkpt lat="46.6441" lon="6.35894">
        <ele>1201</ele>
        <time>2019-05-22T14:18:27Z</time>
      </trkpt>
      <trkpt lat="46.64414" lon="6.35891">
        <ele>1200</ele>
        <time>2019-05-22T14:18:32Z</time>
      </trkpt>
      <trkpt lat="46.64429" lon="6.35884">
        <ele>1202</ele>
        <time>2019-05-22T14:18:48Z</time>
      </trkpt>
      <trkpt lat="46.64449" lon="6.35877">
        <ele>1202</ele>
        <time>2019-05-22T14:19:05Z</time>
      </trkpt>
      <trkpt lat="46.64454" lon="6.35873">
        <ele>1201</ele>
        <time>2019-05-22T14:19:10Z</time>
      </trkpt>
      <trkpt lat="46.64468" lon="6.35868">
        <ele>1202</ele>
        <time>2019-05-22T14:19:23Z</time>
      </trkpt>
      <trkpt lat="46.64472" lon="6.35864">
        <ele>1201</ele>
        <time>2019-05-22T14:19:28Z</time>
      </trkpt>
      <trkpt lat="46.64477" lon="6.35862">
        <ele>1201</ele>
        <time>2019-05-22T14:19:32Z</time>
      </trkpt>
      <trkpt lat="46.64481" lon="6.3586">
        <ele>1202</ele>
        <time>2019-05-22T14:19:35Z</time>
      </trkpt>
      <trkpt lat="46.64495" lon="6.35857">
        <ele>1202</ele>
        <time>2019-05-22T14:19:46Z</time>
      </trkpt>
      <trkpt lat="46.64505" lon="6.35853">
        <ele>1201</ele>
        <time>2019-05-22T14:19:55Z</time>
      </trkpt>
      <trkpt lat="46.6451" lon="6.35851">
        <ele>1201</ele>
        <time>2019-05-22T14:20:00Z</time>
      </trkpt>
      <trkpt lat="46.64525" lon="6.35845">
        <ele>1200</ele>
        <time>2019-05-22T14:20:13Z</time>
      </trkpt>
      <trkpt lat="46.6453" lon="6.35845">
        <ele>1200</ele>
        <time>2019-05-22T14:20:16Z</time>
      </trkpt>
      <trkpt lat="46.64534" lon="6.35843">
        <ele>1199</ele>
        <time>2019-05-22T14:20:20Z</time>
      </trkpt>
      <trkpt lat="46.64557" lon="6.35835">
        <ele>1200</ele>
        <time>2019-05-22T14:20:40Z</time>
      </trkpt>
      <trkpt lat="46.64562" lon="6.35832">
        <ele>1200</ele>
        <time>2019-05-22T14:20:45Z</time>
      </trkpt>
      <trkpt lat="46.64567" lon="6.35829">
        <ele>1199</ele>
        <time>2019-05-22T14:20:50Z</time>
      </trkpt>
      <trkpt lat="46.64572" lon="6.35827">
        <ele>1199</ele>
        <time>2019-05-22T14:20:54Z</time>
      </trkpt>
      <trkpt lat="46.64581" lon="6.35821">
        <ele>1198</ele>
        <time>2019-05-22T14:21:03Z</time>
      </trkpt>
      <trkpt lat="46.64602" lon="6.35809">
        <ele>1198</ele>
        <time>2019-05-22T14:21:25Z</time>
      </trkpt>
      <trkpt lat="46.64611" lon="6.35802">
        <ele>1197</ele>
        <time>2019-05-22T14:21:33Z</time>
      </trkpt>
      <trkpt lat="46.64616" lon="6.35799">
        <ele>1198</ele>
        <time>2019-05-22T14:21:37Z</time>
      </trkpt>
      <trkpt lat="46.64621" lon="6.35796">
        <ele>1198</ele>
        <time>2019-05-22T14:21:41Z</time>
      </trkpt>
      <trkpt lat="46.64639" lon="6.35781">
        <ele>1198</ele>
        <time>2019-05-22T14:21:57Z</time>
      </trkpt>
      <trkpt lat="46.64643" lon="6.35778">
        <ele>1198</ele>
        <time>2019-05-22T14:22:01Z</time>
      </trkpt>
      <trkpt lat="46.64647" lon="6.35775">
        <ele>1198</ele>
        <time>2019-05-22T14:22:05Z</time>
      </trkpt>
      <trkpt lat="46.64652" lon="6.35771">
        <ele>1198</ele>
        <time>2019-05-22T14:22:09Z</time>
      </trkpt>
      <trkpt lat="46.64661" lon="6.35764">
        <ele>1198</ele>
        <time>2019-05-22T14:22:18Z</time>
      </trkpt>
      <trkpt lat="46.64678" lon="6.35753">
        <ele>1198</ele>
        <time>2019-05-22T14:22:34Z</time>
      </trkpt>
      <trkpt lat="46.64688" lon="6.35753">
        <ele>1197</ele>
        <time>2019-05-22T14:22:43Z</time>
      </trkpt>
      <trkpt lat="46.64697" lon="6.35758">
        <ele>1196</ele>
        <time>2019-05-22T14:22:52Z</time>
      </trkpt>
      <trkpt lat="46.64705" lon="6.35767">
        <ele>1195</ele>
        <time>2019-05-22T14:23:01Z</time>
      </trkpt>
      <trkpt lat="46.64711" lon="6.35778">
        <ele>1195</ele>
        <time>2019-05-22T14:23:09Z</time>
      </trkpt>
      <trkpt lat="46.64726" lon="6.35798">
        <ele>1194</ele>
        <time>2019-05-22T14:23:28Z</time>
      </trkpt>
      <trkpt lat="46.64735" lon="6.35804">
        <ele>1194</ele>
        <time>2019-05-22T14:23:36Z</time>
      </trkpt>
      <trkpt lat="46.64745" lon="6.35808">
        <ele>1192</ele>
        <time>2019-05-22T14:23:44Z</time>
      </trkpt>
      <trkpt lat="46.64755" lon="6.35806">
        <ele>1191</ele>
        <time>2019-05-22T14:23:52Z</time>
      </trkpt>
      <trkpt lat="46.64763" lon="6.35799">
        <ele>1190</ele>
        <time>2019-05-22T14:24:00Z</time>
      </trkpt>
      <trkpt lat="46.64777" lon="6.35782">
        <ele>1188</ele>
        <time>2019-05-22T14:24:16Z</time>
      </trkpt>
      <trkpt lat="46.64785" lon="6.35776">
        <ele>1188</ele>
        <time>2019-05-22T14:24:25Z</time>
      </trkpt>
      <trkpt lat="46.64795" lon="6.35775">
        <ele>1187</ele>
        <time>2019-05-22T14:24:33Z</time>
      </trkpt>
      <trkpt lat="46.64805" lon="6.35776">
        <ele>1186</ele>
        <time>2019-05-22T14:24:40Z</time>
      </trkpt>
      <trkpt lat="46.64809" lon="6.35777">
        <ele>1186</ele>
        <time>2019-05-22T14:24:43Z</time>
      </trkpt>
      <trkpt lat="46.64813" lon="6.35777">
        <ele>1187</ele>
        <time>2019-05-22T14:24:47Z</time>
      </trkpt>
      <trkpt lat="46.64847" lon="6.35788">
        <ele>1184</ele>
        <time>2019-05-22T14:25:20Z</time>
      </trkpt>
      <trkpt lat="46.64851" lon="6.3579">
        <ele>1184</ele>
        <time>2019-05-22T14:25:24Z</time>
      </trkpt>
      <trkpt lat="46.64856" lon="6.35793">
        <ele>1184</ele>
        <time>2019-05-22T14:25:29Z</time>
      </trkpt>
      <trkpt lat="46.64865" lon="6.35798">
        <ele>1183</ele>
        <time>2019-05-22T14:25:39Z</time>
      </trkpt>
      <trkpt lat="46.6487" lon="6.358">
        <ele>1183</ele>
        <time>2019-05-22T14:25:44Z</time>
      </trkpt>
      <trkpt lat="46.64884" lon="6.35808">
        <ele>1180</ele>
        <time>2019-05-22T14:25:58Z</time>
      </trkpt>
      <trkpt lat="46.64904" lon="6.35811">
        <ele>1178</ele>
        <time>2019-05-22T14:26:15Z</time>
      </trkpt>
      <trkpt lat="46.64928" lon="6.35807">
        <ele>1175</ele>
        <time>2019-05-22T14:26:39Z</time>
      </trkpt>
      <trkpt lat="46.64936" lon="6.35802">
        <ele>1174</ele>
        <time>2019-05-22T14:26:48Z</time>
      </trkpt>
      <trkpt lat="46.64953" lon="6.35788">
        <ele>1171</ele>
        <time>2019-05-22T14:27:06Z</time>
      </trkpt>
      <trkpt lat="46.64962" lon="6.35784">
        <ele>1172</ele>
        <time>2019-05-22T14:27:14Z</time>
      </trkpt>
    </trkseg>
  </trk>
</gpx>